Meramec River (Missouri), Eureka (07019000)

StateMissouriLatestUnknown (9560 cfs)
RiverMeramec RiverRatingObservedEstimated
Updated2021-04-10 21:30 (34 minutes ago)Flood - The river is flooding. Obstacles can be treacherous or deadly. The river should be avoided at this stage for casual trips and definitely for the inexperienced. Trips should be attempted only with protective gear and equipment.Flood(none)(none)
Discharge9560 cfs (median: 3320 cfs)High - The river is high and potentially dangerous, especially for the young and / or inexperienced. Normal stream obstacles are sometimes difficult to navigate. Extended distances can be attempted, but canoe travel may not be advisable.High(none)(none)
Height8.82 feetGood - Conditions are ideal for a canoe or kayak. Boats typically will drag on fewer than one-quarter of riffles, if at all, and portages are unnecessary or rare. Normal float lengths can be attempted without a problem.Good(none)(none)
TrendRising (rising over 24 hours)Low - River is low but can still be floated. Some riffles are okay but most come with significant dragging and might need a portage. Float lengths should be reduced to accommodate low flow, dragging, and portages.Low(none)(none)
USGSExternal icon USGS Site (External icon Google Maps)Poor - River is too low to float comfortably. Most or all riffles will drag or must be portaged and some obstacles (such as slick shelf rock) cause undue problems. Avoid the river at this stage for casual paddling trips.Poor(none)(none)

Trending Data

Plot Image

Trips for Meramec River (Missouri), Eureka (07019000)

DateStartEndDistanceConditionDischargeHeightFishingDetails

A total of 0 rows are displayed.

Condition Descriptions

Fishing Conditions

Fish Species

Notes

Classic Trip List

The classic River Trips application is still available for use. It is updated with the new system using a data retrofit. It is no longer maintained. The original River Trips application is no longer updated (as of 1 Dec 2016) but can be checked for errors or for the condition of the data before it was converted to the new system.

Gauge Data Table

ObservationHeightDischargeMaximum
Discharge
Minimum
Discharge
Mean
Discharge
P05P10P20P25P50
(Median)
P75P80P90P95
2021-04-10 21:30 8.82 9560 29100 (2015) 733 (1954) 5250 1010 1250 1800 1960 3320 6200 7050 12600 18000
2021-04-10 21:00 8.77 9470 29100 (2015) 733 (1954) 5250 1010 1250 1800 1960 3320 6200 7050 12600 18000
2021-04-10 20:30 8.77 9470 29100 (2015) 733 (1954) 5250 1010 1250 1800 1960 3320 6200 7050 12600 18000
2021-04-10 20:00 8.70 9330 29100 (2015) 733 (1954) 5250 1010 1250 1800 1960 3320 6200 7050 12600 18000
2021-04-10 19:30 8.70 9330 29100 (2015) 733 (1954) 5250 1010 1250 1800 1960 3320 6200 7050 12600 18000
2021-04-10 19:00 8.64 9210 29100 (2015) 733 (1954) 5250 1010 1250 1800 1960 3320 6200 7050 12600 18000
2021-04-10 18:30 8.57 9080 29100 (2015) 733 (1954) 5250 1010 1250 1800 1960 3320 6200 7050 12600 18000
2021-04-10 18:00 8.55 9040 29100 (2015) 733 (1954) 5250 1010 1250 1800 1960 3320 6200 7050 12600 18000
2021-04-10 17:30 8.47 8890 29100 (2015) 733 (1954) 5250 1010 1250 1800 1960 3320 6200 7050 12600 18000
2021-04-10 17:00 8.41 8770 29100 (2015) 733 (1954) 5250 1010 1250 1800 1960 3320 6200 7050 12600 18000
2021-04-10 16:30 8.31 8580 29100 (2015) 733 (1954) 5250 1010 1250 1800 1960 3320 6200 7050 12600 18000
2021-04-10 16:00 8.23 8430 29100 (2015) 733 (1954) 5250 1010 1250 1800 1960 3320 6200 7050 12600 18000
2021-04-10 15:30 8.17 8320 29100 (2015) 733 (1954) 5250 1010 1250 1800 1960 3320 6200 7050 12600 18000
2021-04-10 15:00 8.08 8150 29100 (2015) 733 (1954) 5250 1010 1250 1800 1960 3320 6200 7050 12600 18000
2021-04-10 14:30 8.03 8050 29100 (2015) 733 (1954) 5250 1010 1250 1800 1960 3320 6200 7050 12600 18000
2021-04-10 14:00 7.95 7910 29100 (2015) 733 (1954) 5250 1010 1250 1800 1960 3320 6200 7050 12600 18000
2021-04-10 13:30 7.89 7790 29100 (2015) 733 (1954) 5250 1010 1250 1800 1960 3320 6200 7050 12600 18000
2021-04-10 13:00 7.84 7700 29100 (2015) 733 (1954) 5250 1010 1250 1800 1960 3320 6200 7050 12600 18000
2021-04-10 12:30 7.76 7550 29100 (2015) 733 (1954) 5250 1010 1250 1800 1960 3320 6200 7050 12600 18000
2021-04-10 12:00 7.70 7440 29100 (2015) 733 (1954) 5250 1010 1250 1800 1960 3320 6200 7050 12600 18000
2021-04-10 11:30 7.61 7280 29100 (2015) 733 (1954) 5250 1010 1250 1800 1960 3320 6200 7050 12600 18000
2021-04-10 11:00 7.50 7080 29100 (2015) 733 (1954) 5250 1010 1250 1800 1960 3320 6200 7050 12600 18000
2021-04-10 10:30 7.43 6960 29100 (2015) 733 (1954) 5250 1010 1250 1800 1960 3320 6200 7050 12600 18000
2021-04-10 10:00 7.31 6740 29100 (2015) 733 (1954) 5250 1010 1250 1800 1960 3320 6200 7050 12600 18000
2021-04-10 09:30 7.24 6620 29100 (2015) 733 (1954) 5250 1010 1250 1800 1960 3320 6200 7050 12600 18000
2021-04-10 09:00 7.13 6420 29100 (2015) 733 (1954) 5250 1010 1250 1800 1960 3320 6200 7050 12600 18000
2021-04-10 08:30 7.06 6300 29100 (2015) 733 (1954) 5250 1010 1250 1800 1960 3320 6200 7050 12600 18000
2021-04-10 08:00 7.03 6250 29100 (2015) 733 (1954) 5250 1010 1250 1800 1960 3320 6200 7050 12600 18000
2021-04-10 07:30 6.98 6160 29100 (2015) 733 (1954) 5250 1010 1250 1800 1960 3320 6200 7050 12600 18000
2021-04-10 07:00 6.95 6110 29100 (2015) 733 (1954) 5250 1010 1250 1800 1960 3320 6200 7050 12600 18000
2021-04-10 06:30 6.93 6070 29100 (2015) 733 (1954) 5250 1010 1250 1800 1960 3320 6200 7050 12600 18000
2021-04-10 06:00 6.94 6090 29100 (2015) 733 (1954) 5250 1010 1250 1800 1960 3320 6200 7050 12600 18000
2021-04-10 05:30 6.92 6050 29100 (2015) 733 (1954) 5250 1010 1250 1800 1960 3320 6200 7050 12600 18000
2021-04-10 05:00 6.93 6070 29100 (2015) 733 (1954) 5250 1010 1250 1800 1960 3320 6200 7050 12600 18000
2021-04-10 04:30 6.93 6070 29100 (2015) 733 (1954) 5250 1010 1250 1800 1960 3320 6200 7050 12600 18000
2021-04-10 04:00 6.92 6050 29100 (2015) 733 (1954) 5250 1010 1250 1800 1960 3320 6200 7050 12600 18000
2021-04-10 03:30 6.95 6110 29100 (2015) 733 (1954) 5250 1010 1250 1800 1960 3320 6200 7050 12600 18000
2021-04-10 03:00 6.97 6140 29100 (2015) 733 (1954) 5250 1010 1250 1800 1960 3320 6200 7050 12600 18000
2021-04-10 02:30 6.95 6110 29100 (2015) 733 (1954) 5250 1010 1250 1800 1960 3320 6200 7050 12600 18000
2021-04-10 02:00 6.97 6140 29100 (2015) 733 (1954) 5250 1010 1250 1800 1960 3320 6200 7050 12600 18000
2021-04-10 01:30 6.98 6160 29100 (2015) 733 (1954) 5250 1010 1250 1800 1960 3320 6200 7050 12600 18000
2021-04-10 01:00 6.99 6180 29100 (2015) 733 (1954) 5250 1010 1250 1800 1960 3320 6200 7050 12600 18000
2021-04-10 00:30 7.00 6190 29100 (2015) 733 (1954) 5250 1010 1250 1800 1960 3320 6200 7050 12600 18000
2021-04-10 00:00 7.02 6230 29100 (2015) 733 (1954) 5250 1010 1250 1800 1960 3320 6200 7050 12600 18000
2021-04-09 23:30 6.99 6180 38400 (1928) 688 (1954) 5360 1010 1250 1830 2140 3250 6130 7400 12000 16600
2021-04-09 23:00 7.01 6210 38400 (1928) 688 (1954) 5360 1010 1250 1830 2140 3250 6130 7400 12000 16600
2021-04-09 22:30 7.02 6230 38400 (1928) 688 (1954) 5360 1010 1250 1830 2140 3250 6130 7400 12000 16600
2021-04-09 22:00 7.01 6210 38400 (1928) 688 (1954) 5360 1010 1250 1830 2140 3250 6130 7400 12000 16600
2021-04-09 21:30 7.01 6210 38400 (1928) 688 (1954) 5360 1010 1250 1830 2140 3250 6130 7400 12000 16600
2021-04-09 21:00 7.01 6210 38400 (1928) 688 (1954) 5360 1010 1250 1830 2140 3250 6130 7400 12000 16600
2021-04-09 20:30 7.00 6190 38400 (1928) 688 (1954) 5360 1010 1250 1830 2140 3250 6130 7400 12000 16600
2021-04-09 20:00 6.97 6140 38400 (1928) 688 (1954) 5360 1010 1250 1830 2140 3250 6130 7400 12000 16600
2021-04-09 19:30 6.97 6140 38400 (1928) 688 (1954) 5360 1010 1250 1830 2140 3250 6130 7400 12000 16600
2021-04-09 19:00 6.94 6090 38400 (1928) 688 (1954) 5360 1010 1250 1830 2140 3250 6130 7400 12000 16600
2021-04-09 18:30 6.91 6040 38400 (1928) 688 (1954) 5360 1010 1250 1830 2140 3250 6130 7400 12000 16600
2021-04-09 18:00 6.87 5970 38400 (1928) 688 (1954) 5360 1010 1250 1830 2140 3250 6130 7400 12000 16600
2021-04-09 17:30 6.86 5950 38400 (1928) 688 (1954) 5360 1010 1250 1830 2140 3250 6130 7400 12000 16600
2021-04-09 17:00 6.83 5900 38400 (1928) 688 (1954) 5360 1010 1250 1830 2140 3250 6130 7400 12000 16600
2021-04-09 16:30 6.79 5830 38400 (1928) 688 (1954) 5360 1010 1250 1830 2140 3250 6130 7400 12000 16600
2021-04-09 16:00 6.76 5770 38400 (1928) 688 (1954) 5360 1010 1250 1830 2140 3250 6130 7400 12000 16600
2021-04-09 15:30 6.72 5700 38400 (1928) 688 (1954) 5360 1010 1250 1830 2140 3250 6130 7400 12000 16600
2021-04-09 15:00 6.69 5650 38400 (1928) 688 (1954) 5360 1010 1250 1830 2140 3250 6130 7400 12000 16600
2021-04-09 14:30 6.64 5570 38400 (1928) 688 (1954) 5360 1010 1250 1830 2140 3250 6130 7400 12000 16600
2021-04-09 14:00 6.62 5530 38400 (1928) 688 (1954) 5360 1010 1250 1830 2140 3250 6130 7400 12000 16600
2021-04-09 13:30 6.61 5510 38400 (1928) 688 (1954) 5360 1010 1250 1830 2140 3250 6130 7400 12000 16600
2021-04-09 13:00 6.58 5460 38400 (1928) 688 (1954) 5360 1010 1250 1830 2140 3250 6130 7400 12000 16600
2021-04-09 12:30 6.57 5450 38400 (1928) 688 (1954) 5360 1010 1250 1830 2140 3250 6130 7400 12000 16600
2021-04-09 12:00 6.59 5480 38400 (1928) 688 (1954) 5360 1010 1250 1830 2140 3250 6130 7400 12000 16600
2021-04-09 11:30 6.56 5430 38400 (1928) 688 (1954) 5360 1010 1250 1830 2140 3250 6130 7400 12000 16600
2021-04-09 11:00 6.58 5460 38400 (1928) 688 (1954) 5360 1010 1250 1830 2140 3250 6130 7400 12000 16600
2021-04-09 10:30 6.55 5410 38400 (1928) 688 (1954) 5360 1010 1250 1830 2140 3250 6130 7400 12000 16600
2021-04-09 10:00 6.57 5450 38400 (1928) 688 (1954) 5360 1010 1250 1830 2140 3250 6130 7400 12000 16600
2021-04-09 09:30 6.58 5460 38400 (1928) 688 (1954) 5360 1010 1250 1830 2140 3250 6130 7400 12000 16600
2021-04-09 09:00 6.58 5460 38400 (1928) 688 (1954) 5360 1010 1250 1830 2140 3250 6130 7400 12000 16600
2021-04-09 08:30 6.57 5450 38400 (1928) 688 (1954) 5360 1010 1250 1830 2140 3250 6130 7400 12000 16600
2021-04-09 08:00 6.58 5460 38400 (1928) 688 (1954) 5360 1010 1250 1830 2140 3250 6130 7400 12000 16600
2021-04-09 07:30 6.58 5460 38400 (1928) 688 (1954) 5360 1010 1250 1830 2140 3250 6130 7400 12000 16600
2021-04-09 07:00 6.56 5430 38400 (1928) 688 (1954) 5360 1010 1250 1830 2140 3250 6130 7400 12000 16600
2021-04-09 06:30 6.55 5410 38400 (1928) 688 (1954) 5360 1010 1250 1830 2140 3250 6130 7400 12000 16600
2021-04-09 06:00 6.54 5390 38400 (1928) 688 (1954) 5360 1010 1250 1830 2140 3250 6130 7400 12000 16600
2021-04-09 05:30 6.53 5380 38400 (1928) 688 (1954) 5360 1010 1250 1830 2140 3250 6130 7400 12000 16600
2021-04-09 05:00 6.50 5330 38400 (1928) 688 (1954) 5360 1010 1250 1830 2140 3250 6130 7400 12000 16600
2021-04-09 04:30 6.49 5310 38400 (1928) 688 (1954) 5360 1010 1250 1830 2140 3250 6130 7400 12000 16600
2021-04-09 04:00 6.45 5240 38400 (1928) 688 (1954) 5360 1010 1250 1830 2140 3250 6130 7400 12000 16600
2021-04-09 03:30 6.43 5210 38400 (1928) 688 (1954) 5360 1010 1250 1830 2140 3250 6130 7400 12000 16600
2021-04-09 03:00 6.40 5160 38400 (1928) 688 (1954) 5360 1010 1250 1830 2140 3250 6130 7400 12000 16600
2021-04-09 02:30 6.37 5110 38400 (1928) 688 (1954) 5360 1010 1250 1830 2140 3250 6130 7400 12000 16600
2021-04-09 02:00 6.31 5010 38400 (1928) 688 (1954) 5360 1010 1250 1830 2140 3250 6130 7400 12000 16600
2021-04-09 01:30 6.27 4940 38400 (1928) 688 (1954) 5360 1010 1250 1830 2140 3250 6130 7400 12000 16600
2021-04-09 01:00 6.22 4860 38400 (1928) 688 (1954) 5360 1010 1250 1830 2140 3250 6130 7400 12000 16600
2021-04-09 00:30 6.16 4760 38400 (1928) 688 (1954) 5360 1010 1250 1830 2140 3250 6130 7400 12000 16600
2021-04-09 00:00 6.15 4740 38400 (1928) 688 (1954) 5360 1010 1250 1830 2140 3250 6130 7400 12000 16600
2021-04-08 23:30 6.07 4610 39300 (1928) 594 (1954) 5530 1010 1330 1920 2080 3120 6810 7590 12500 19000
2021-04-08 23:00 6.04 4560 39300 (1928) 594 (1954) 5530 1010 1330 1920 2080 3120 6810 7590 12500 19000
2021-04-08 22:30 6.00 4490 39300 (1928) 594 (1954) 5530 1010 1330 1920 2080 3120 6810 7590 12500 19000
2021-04-08 22:00 5.95 4410 39300 (1928) 594 (1954) 5530 1010 1330 1920 2080 3120 6810 7590 12500 19000
2021-04-08 21:30 5.91 4350 39300 (1928) 594 (1954) 5530 1010 1330 1920 2080 3120 6810 7590 12500 19000
2021-04-08 21:00 5.91 4350 39300 (1928) 594 (1954) 5530 1010 1330 1920 2080 3120 6810 7590 12500 19000
2021-04-08 20:30 5.90 4330 39300 (1928) 594 (1954) 5530 1010 1330 1920 2080 3120 6810 7590 12500 19000
2021-04-08 20:00 5.89 4320 39300 (1928) 594 (1954) 5530 1010 1330 1920 2080 3120 6810 7590 12500 19000
2021-04-08 19:30 5.89 4320 39300 (1928) 594 (1954) 5530 1010 1330 1920 2080 3120 6810 7590 12500 19000
2021-04-08 19:00 5.88 4300 39300 (1928) 594 (1954) 5530 1010 1330 1920 2080 3120 6810 7590 12500 19000
2021-04-08 18:30 5.90 4330 39300 (1928) 594 (1954) 5530 1010 1330 1920 2080 3120 6810 7590 12500 19000
2021-04-08 18:00 5.90 4330 39300 (1928) 594 (1954) 5530 1010 1330 1920 2080 3120 6810 7590 12500 19000
2021-04-08 17:30 5.87 4280 39300 (1928) 594 (1954) 5530 1010 1330 1920 2080 3120 6810 7590 12500 19000
2021-04-08 17:00 5.89 4320 39300 (1928) 594 (1954) 5530 1010 1330 1920 2080 3120 6810 7590 12500 19000
2021-04-08 16:30 5.91 4350 39300 (1928) 594 (1954) 5530 1010 1330 1920 2080 3120 6810 7590 12500 19000
2021-04-08 16:00 5.88 4300 39300 (1928) 594 (1954) 5530 1010 1330 1920 2080 3120 6810 7590 12500 19000
2021-04-08 15:30 5.88 4300 39300 (1928) 594 (1954) 5530 1010 1330 1920 2080 3120 6810 7590 12500 19000
2021-04-08 15:00 5.85 4250 39300 (1928) 594 (1954) 5530 1010 1330 1920 2080 3120 6810 7590 12500 19000
2021-04-08 14:30 5.85 4250 39300 (1928) 594 (1954) 5530 1010 1330 1920 2080 3120 6810 7590 12500 19000
2021-04-08 14:00 5.83 4220 39300 (1928) 594 (1954) 5530 1010 1330 1920 2080 3120 6810 7590 12500 19000
2021-04-08 13:30 5.80 4170 39300 (1928) 594 (1954) 5530 1010 1330 1920 2080 3120 6810 7590 12500 19000
2021-04-08 13:00 5.77 4120 39300 (1928) 594 (1954) 5530 1010 1330 1920 2080 3120 6810 7590 12500 19000
2021-04-08 12:30 5.73 4060 39300 (1928) 594 (1954) 5530 1010 1330 1920 2080 3120 6810 7590 12500 19000
2021-04-08 12:00 5.70 4010 39300 (1928) 594 (1954) 5530 1010 1330 1920 2080 3120 6810 7590 12500 19000
2021-04-08 11:30 5.66 3950 39300 (1928) 594 (1954) 5530 1010 1330 1920 2080 3120 6810 7590 12500 19000
2021-04-08 11:00 5.61 3870 39300 (1928) 594 (1954) 5530 1010 1330 1920 2080 3120 6810 7590 12500 19000
2021-04-08 10:30 5.56 3790 39300 (1928) 594 (1954) 5530 1010 1330 1920 2080 3120 6810 7590 12500 19000
2021-04-08 10:00 5.53 3750 39300 (1928) 594 (1954) 5530 1010 1330 1920 2080 3120 6810 7590 12500 19000
2021-04-08 09:30 5.48 3670 39300 (1928) 594 (1954) 5530 1010 1330 1920 2080 3120 6810 7590 12500 19000
2021-04-08 09:00 5.43 3590 39300 (1928) 594 (1954) 5530 1010 1330 1920 2080 3120 6810 7590 12500 19000
2021-04-08 08:30 5.41 3560 39300 (1928) 594 (1954) 5530 1010 1330 1920 2080 3120 6810 7590 12500 19000
2021-04-08 08:00 5.37 3500 39300 (1928) 594 (1954) 5530 1010 1330 1920 2080 3120 6810 7590 12500 19000
2021-04-08 07:30 5.34 3460 39300 (1928) 594 (1954) 5530 1010 1330 1920 2080 3120 6810 7590 12500 19000
2021-04-08 07:00 5.32 3430 39300 (1928) 594 (1954) 5530 1010 1330 1920 2080 3120 6810 7590 12500 19000
2021-04-08 06:30 5.30 3390 39300 (1928) 594 (1954) 5530 1010 1330 1920 2080 3120 6810 7590 12500 19000
2021-04-08 06:00 5.29 3380 39300 (1928) 594 (1954) 5530 1010 1330 1920 2080 3120 6810 7590 12500 19000
2021-04-08 05:30 5.27 3350 39300 (1928) 594 (1954) 5530 1010 1330 1920 2080 3120 6810 7590 12500 19000
2021-04-08 05:00 5.25 3320 39300 (1928) 594 (1954) 5530 1010 1330 1920 2080 3120 6810 7590 12500 19000
2021-04-08 04:30 5.21 3260 39300 (1928) 594 (1954) 5530 1010 1330 1920 2080 3120 6810 7590 12500 19000
2021-04-08 04:00 5.18 3210 39300 (1928) 594 (1954) 5530 1010 1330 1920 2080 3120 6810 7590 12500 19000
2021-04-08 03:30 5.13 3140 39300 (1928) 594 (1954) 5530 1010 1330 1920 2080 3120 6810 7590 12500 19000
2021-04-08 03:00 5.09 3080 39300 (1928) 594 (1954) 5530 1010 1330 1920 2080 3120 6810 7590 12500 19000
2021-04-08 02:30 5.05 3020 39300 (1928) 594 (1954) 5530 1010 1330 1920 2080 3120 6810 7590 12500 19000
2021-04-08 02:00 5.01 2960 39300 (1928) 594 (1954) 5530 1010 1330 1920 2080 3120 6810 7590 12500 19000
2021-04-08 01:30 4.96 2890 39300 (1928) 594 (1954) 5530 1010 1330 1920 2080 3120 6810 7590 12500 19000
2021-04-08 01:00 4.93 2850 39300 (1928) 594 (1954) 5530 1010 1330 1920 2080 3120 6810 7590 12500 19000
2021-04-08 00:30 4.91 2820 39300 (1928) 594 (1954) 5530 1010 1330 1920 2080 3120 6810 7590 12500 19000
2021-04-08 00:00 4.89 2790 39300 (1928) 594 (1954) 5530 1010 1330 1920 2080 3120 6810 7590 12500 19000
2021-04-07 23:30 4.86 2750 31500 (1957) 585 (1954) 5960 1030 1370 1820 2150 3230 8260 9000 13500 24600
2021-04-07 23:00 4.85 2730 31500 (1957) 585 (1954) 5960 1030 1370 1820 2150 3230 8260 9000 13500 24600
2021-04-07 22:30 4.84 2720 31500 (1957) 585 (1954) 5960 1030 1370 1820 2150 3230 8260 9000 13500 24600
2021-04-07 22:00 4.83 2700 31500 (1957) 585 (1954) 5960 1030 1370 1820 2150 3230 8260 9000 13500 24600
2021-04-07 21:30 4.81 2680 31500 (1957) 585 (1954) 5960 1030 1370 1820 2150 3230 8260 9000 13500 24600
2021-04-07 19:30 4.81 2680 31500 (1957) 585 (1954) 5960 1030 1370 1820 2150 3230 8260 9000 13500 24600
2021-04-07 18:30 4.78 2630 31500 (1957) 585 (1954) 5960 1030 1370 1820 2150 3230 8260 9000 13500 24600
2021-04-07 18:00 4.77 2620 31500 (1957) 585 (1954) 5960 1030 1370 1820 2150 3230 8260 9000 13500 24600
2021-04-07 17:30 4.77 2620 31500 (1957) 585 (1954) 5960 1030 1370 1820 2150 3230 8260 9000 13500 24600
2021-04-07 17:00 4.79 2650 31500 (1957) 585 (1954) 5960 1030 1370 1820 2150 3230 8260 9000 13500 24600
2021-04-07 16:30 4.79 2650 31500 (1957) 585 (1954) 5960 1030 1370 1820 2150 3230 8260 9000 13500 24600
2021-04-07 16:00 4.78 2630 31500 (1957) 585 (1954) 5960 1030 1370 1820 2150 3230 8260 9000 13500 24600
2021-04-07 15:30 4.79 2650 31500 (1957) 585 (1954) 5960 1030 1370 1820 2150 3230 8260 9000 13500 24600
2021-04-07 15:00 4.79 2650 31500 (1957) 585 (1954) 5960 1030 1370 1820 2150 3230 8260 9000 13500 24600
2021-04-07 14:30 4.80 2660 31500 (1957) 585 (1954) 5960 1030 1370 1820 2150 3230 8260 9000 13500 24600
2021-04-07 14:00 4.78 2630 31500 (1957) 585 (1954) 5960 1030 1370 1820 2150 3230 8260 9000 13500 24600
2021-04-07 13:30 4.79 2650 31500 (1957) 585 (1954) 5960 1030 1370 1820 2150 3230 8260 9000 13500 24600
2021-04-07 13:00 4.79 2650 31500 (1957) 585 (1954) 5960 1030 1370 1820 2150 3230 8260 9000 13500 24600
2021-04-07 12:30 4.80 2660 31500 (1957) 585 (1954) 5960 1030 1370 1820 2150 3230 8260 9000 13500 24600
2021-04-07 12:00 4.80 2660 31500 (1957) 585 (1954) 5960 1030 1370 1820 2150 3230 8260 9000 13500 24600
2021-04-07 11:30 4.80 2660 31500 (1957) 585 (1954) 5960 1030 1370 1820 2150 3230 8260 9000 13500 24600
2021-04-07 11:00 4.80 2660 31500 (1957) 585 (1954) 5960 1030 1370 1820 2150 3230 8260 9000 13500 24600
2021-04-07 10:30 4.80 2660 31500 (1957) 585 (1954) 5960 1030 1370 1820 2150 3230 8260 9000 13500 24600
2021-04-07 10:00 4.81 2680 31500 (1957) 585 (1954) 5960 1030 1370 1820 2150 3230 8260 9000 13500 24600
2021-04-07 09:30 4.82 2690 31500 (1957) 585 (1954) 5960 1030 1370 1820 2150 3230 8260 9000 13500 24600
2021-04-07 09:00 4.80 2660 31500 (1957) 585 (1954) 5960 1030 1370 1820 2150 3230 8260 9000 13500 24600
2021-04-07 08:30 4.82 2690 31500 (1957) 585 (1954) 5960 1030 1370 1820 2150 3230 8260 9000 13500 24600
2021-04-07 08:00 4.82 2690 31500 (1957) 585 (1954) 5960 1030 1370 1820 2150 3230 8260 9000 13500 24600
2021-04-07 07:30 4.81 2680 31500 (1957) 585 (1954) 5960 1030 1370 1820 2150 3230 8260 9000 13500 24600
2021-04-07 07:00 4.81 2680 31500 (1957) 585 (1954) 5960 1030 1370 1820 2150 3230 8260 9000 13500 24600
2021-04-07 06:30 4.82 2690 31500 (1957) 585 (1954) 5960 1030 1370 1820 2150 3230 8260 9000 13500 24600
2021-04-07 06:00 4.82 2690 31500 (1957) 585 (1954) 5960 1030 1370 1820 2150 3230 8260 9000 13500 24600
2021-04-07 05:30 4.83 2700 31500 (1957) 585 (1954) 5960 1030 1370 1820 2150 3230 8260 9000 13500 24600
2021-04-07 05:00 4.83 2700 31500 (1957) 585 (1954) 5960 1030 1370 1820 2150 3230 8260 9000 13500 24600
2021-04-07 04:30 4.83 2700 31500 (1957) 585 (1954) 5960 1030 1370 1820 2150 3230 8260 9000 13500 24600
2021-04-07 04:00 4.84 2720 31500 (1957) 585 (1954) 5960 1030 1370 1820 2150 3230 8260 9000 13500 24600
2021-04-07 03:30 4.83 2700 31500 (1957) 585 (1954) 5960 1030 1370 1820 2150 3230 8260 9000 13500 24600
2021-04-07 03:00 4.83 2700 31500 (1957) 585 (1954) 5960 1030 1370 1820 2150 3230 8260 9000 13500 24600
2021-04-07 02:30 4.84 2720 31500 (1957) 585 (1954) 5960 1030 1370 1820 2150 3230 8260 9000 13500 24600
2021-04-07 02:00 4.83 2700 31500 (1957) 585 (1954) 5960 1030 1370 1820 2150 3230 8260 9000 13500 24600
2021-04-07 01:30 4.84 2720 31500 (1957) 585 (1954) 5960 1030 1370 1820 2150 3230 8260 9000 13500 24600
2021-04-07 01:00 4.85 2730 31500 (1957) 585 (1954) 5960 1030 1370 1820 2150 3230 8260 9000 13500 24600
2021-04-07 00:30 4.84 2720 31500 (1957) 585 (1954) 5960 1030 1370 1820 2150 3230 8260 9000 13500 24600
2021-04-07 00:00 4.84 2720 31500 (1957) 585 (1954) 5960 1030 1370 1820 2150 3230 8260 9000 13500 24600
2021-04-06 23:30 4.85 2730 43200 (1957) 560 (1954) 6430 1060 1370 1830 2100 3440 7660 10000 19300 23100
2021-04-06 23:00 4.85 2730 43200 (1957) 560 (1954) 6430 1060 1370 1830 2100 3440 7660 10000 19300 23100
2021-04-06 22:30 4.85 2730 43200 (1957) 560 (1954) 6430 1060 1370 1830 2100 3440 7660 10000 19300 23100
2021-04-06 22:00 4.85 2730 43200 (1957) 560 (1954) 6430 1060 1370 1830 2100 3440 7660 10000 19300 23100
2021-04-06 21:30 4.85 2730 43200 (1957) 560 (1954) 6430 1060 1370 1830 2100 3440 7660 10000 19300 23100
2021-04-06 21:00 4.85 2730 43200 (1957) 560 (1954) 6430 1060 1370 1830 2100 3440 7660 10000 19300 23100
2021-04-06 20:30 4.86 2750 43200 (1957) 560 (1954) 6430 1060 1370 1830 2100 3440 7660 10000 19300 23100
2021-04-06 20:00 4.86 2750 43200 (1957) 560 (1954) 6430 1060 1370 1830 2100 3440 7660 10000 19300 23100
2021-04-06 19:30 4.87 2760 43200 (1957) 560 (1954) 6430 1060 1370 1830 2100 3440 7660 10000 19300 23100
2021-04-06 19:00 4.86 2750 43200 (1957) 560 (1954) 6430 1060 1370 1830 2100 3440 7660 10000 19300 23100
2021-04-06 18:30 4.87 2760 43200 (1957) 560 (1954) 6430 1060 1370 1830 2100 3440 7660 10000 19300 23100
2021-04-06 18:00 4.87 2760 43200 (1957) 560 (1954) 6430 1060 1370 1830 2100 3440 7660 10000 19300 23100
2021-04-06 17:30 4.87 2760 43200 (1957) 560 (1954) 6430 1060 1370 1830 2100 3440 7660 10000 19300 23100
2021-04-06 17:00 4.89 2790 43200 (1957) 560 (1954) 6430 1060 1370 1830 2100 3440 7660 10000 19300 23100
2021-04-06 16:30 4.88 2780 43200 (1957) 560 (1954) 6430 1060 1370 1830 2100 3440 7660 10000 19300 23100
2021-04-06 16:00 4.89 2790 43200 (1957) 560 (1954) 6430 1060 1370 1830 2100 3440 7660 10000 19300 23100
2021-04-06 15:30 4.88 2780 43200 (1957) 560 (1954) 6430 1060 1370 1830 2100 3440 7660 10000 19300 23100
2021-04-06 15:00 4.89 2790 43200 (1957) 560 (1954) 6430 1060 1370 1830 2100 3440 7660 10000 19300 23100
2021-04-06 14:30 4.89 2790 43200 (1957) 560 (1954) 6430 1060 1370 1830 2100 3440 7660 10000 19300 23100
2021-04-06 14:00 4.90 2800 43200 (1957) 560 (1954) 6430 1060 1370 1830 2100 3440 7660 10000 19300 23100
2021-04-06 13:30 4.90 2800 43200 (1957) 560 (1954) 6430 1060 1370 1830 2100 3440 7660 10000 19300 23100
2021-04-06 13:00 4.89 2790 43200 (1957) 560 (1954) 6430 1060 1370 1830 2100 3440 7660 10000 19300 23100
2021-04-06 12:30 4.89 2790 43200 (1957) 560 (1954) 6430 1060 1370 1830 2100 3440 7660 10000 19300 23100
2021-04-06 12:00 4.90 2800 43200 (1957) 560 (1954) 6430 1060 1370 1830 2100 3440 7660 10000 19300 23100
2021-04-06 11:30 4.90 2800 43200 (1957) 560 (1954) 6430 1060 1370 1830 2100 3440 7660 10000 19300 23100
2021-04-06 11:00 4.92 2830 43200 (1957) 560 (1954) 6430 1060 1370 1830 2100 3440 7660 10000 19300 23100
2021-04-06 10:30 4.91 2820 43200 (1957) 560 (1954) 6430 1060 1370 1830 2100 3440 7660 10000 19300 23100
2021-04-06 10:00 4.92 2830 43200 (1957) 560 (1954) 6430 1060 1370 1830 2100 3440 7660 10000 19300 23100
2021-04-06 09:30 4.91 2820 43200 (1957) 560 (1954) 6430 1060 1370 1830 2100 3440 7660 10000 19300 23100
2021-04-06 09:00 4.92 2830 43200 (1957) 560 (1954) 6430 1060 1370 1830 2100 3440 7660 10000 19300 23100
2021-04-06 08:30 4.92 2830 43200 (1957) 560 (1954) 6430 1060 1370 1830 2100 3440 7660 10000 19300 23100
2021-04-06 08:00 4.92 2830 43200 (1957) 560 (1954) 6430 1060 1370 1830 2100 3440 7660 10000 19300 23100
2021-04-06 07:30 4.93 2850 43200 (1957) 560 (1954) 6430 1060 1370 1830 2100 3440 7660 10000 19300 23100
2021-04-06 07:00 4.93 2850 43200 (1957) 560 (1954) 6430 1060 1370 1830 2100 3440 7660 10000 19300 23100
2021-04-06 06:30 4.94 2860 43200 (1957) 560 (1954) 6430 1060 1370 1830 2100 3440 7660 10000 19300 23100
2021-04-06 06:00 4.93 2850 43200 (1957) 560 (1954) 6430 1060 1370 1830 2100 3440 7660 10000 19300 23100
2021-04-06 05:30 4.92 2830 43200 (1957) 560 (1954) 6430 1060 1370 1830 2100 3440 7660 10000 19300 23100
2021-04-06 05:00 4.94 2860 43200 (1957) 560 (1954) 6430 1060 1370 1830 2100 3440 7660 10000 19300 23100
2021-04-06 04:30 4.93 2850 43200 (1957) 560 (1954) 6430 1060 1370 1830 2100 3440 7660 10000 19300 23100
2021-04-06 04:00 4.95 2880 43200 (1957) 560 (1954) 6430 1060 1370 1830 2100 3440 7660 10000 19300 23100
2021-04-06 03:30 4.94 2860 43200 (1957) 560 (1954) 6430 1060 1370 1830 2100 3440 7660 10000 19300 23100
2021-04-06 03:00 4.95 2880 43200 (1957) 560 (1954) 6430 1060 1370 1830 2100 3440 7660 10000 19300 23100
2021-04-06 02:30 4.94 2860 43200 (1957) 560 (1954) 6430 1060 1370 1830 2100 3440 7660 10000 19300 23100
2021-04-06 02:00 4.95 2880 43200 (1957) 560 (1954) 6430 1060 1370 1830 2100 3440 7660 10000 19300 23100
2021-04-06 01:30 4.93 2850 43200 (1957) 560 (1954) 6430 1060 1370 1830 2100 3440 7660 10000 19300 23100
2021-04-06 01:00 4.95 2880 43200 (1957) 560 (1954) 6430 1060 1370 1830 2100 3440 7660 10000 19300 23100
2021-04-06 00:30 4.95 2880 43200 (1957) 560 (1954) 6430 1060 1370 1830 2100 3440 7660 10000 19300 23100
2021-04-06 00:00 4.95 2880 43200 (1957) 560 (1954) 6430 1060 1370 1830 2100 3440 7660 10000 19300 23100
2021-04-05 23:30 4.96 2890 33200 (1945) 542 (1954) 6440 1090 1360 1790 2170 3630 7500 9450 16800 24400
2021-04-05 23:00 4.95 2880 33200 (1945) 542 (1954) 6440 1090 1360 1790 2170 3630 7500 9450 16800 24400
2021-04-05 22:30 4.96 2890 33200 (1945) 542 (1954) 6440 1090 1360 1790 2170 3630 7500 9450 16800 24400
2021-04-05 22:00 4.97 2910 33200 (1945) 542 (1954) 6440 1090 1360 1790 2170 3630 7500 9450 16800 24400
2021-04-05 21:30 4.98 2920 33200 (1945) 542 (1954) 6440 1090 1360 1790 2170 3630 7500 9450 16800 24400
2021-04-05 21:00 4.98 2920 33200 (1945) 542 (1954) 6440 1090 1360 1790 2170 3630 7500 9450 16800 24400
2021-04-05 20:30 4.97 2910 33200 (1945) 542 (1954) 6440 1090 1360 1790 2170 3630 7500 9450 16800 24400
2021-04-05 20:00 4.98 2920 33200 (1945) 542 (1954) 6440 1090 1360 1790 2170 3630 7500 9450 16800 24400
2021-04-05 19:30 4.98 2920 33200 (1945) 542 (1954) 6440 1090 1360 1790 2170 3630 7500 9450 16800 24400
2021-04-05 19:00 4.99 2930 33200 (1945) 542 (1954) 6440 1090 1360 1790 2170 3630 7500 9450 16800 24400
2021-04-05 18:30 4.99 2930 33200 (1945) 542 (1954) 6440 1090 1360 1790 2170 3630 7500 9450 16800 24400
2021-04-05 18:00 4.98 2920 33200 (1945) 542 (1954) 6440 1090 1360 1790 2170 3630 7500 9450 16800 24400
2021-04-05 17:30 4.98 2920 33200 (1945) 542 (1954) 6440 1090 1360 1790 2170 3630 7500 9450 16800 24400
2021-04-05 17:00 5.00 2950 33200 (1945) 542 (1954) 6440 1090 1360 1790 2170 3630 7500 9450 16800 24400
2021-04-05 16:30 5.01 2960 33200 (1945) 542 (1954) 6440 1090 1360 1790 2170 3630 7500 9450 16800 24400
2021-04-05 16:00 5.00 2950 33200 (1945) 542 (1954) 6440 1090 1360 1790 2170 3630 7500 9450 16800 24400
2021-04-05 15:30 5.00 2950 33200 (1945) 542 (1954) 6440 1090 1360 1790 2170 3630 7500 9450 16800 24400
2021-04-05 15:00 4.99 2930 33200 (1945) 542 (1954) 6440 1090 1360 1790 2170 3630 7500 9450 16800 24400
2021-04-05 14:30 5.00 2950 33200 (1945) 542 (1954) 6440 1090 1360 1790 2170 3630 7500 9450 16800 24400
2021-04-05 14:00 5.01 2960 33200 (1945) 542 (1954) 6440 1090 1360 1790 2170 3630 7500 9450 16800 24400
2021-04-05 13:30 5.01 2960 33200 (1945) 542 (1954) 6440 1090 1360 1790 2170 3630 7500 9450 16800 24400
2021-04-05 13:00 5.02 2980 33200 (1945) 542 (1954) 6440 1090 1360 1790 2170 3630 7500 9450 16800 24400
2021-04-05 12:30 5.02 2980 33200 (1945) 542 (1954) 6440 1090 1360 1790 2170 3630 7500 9450 16800 24400
2021-04-05 12:00 5.02 2980 33200 (1945) 542 (1954) 6440 1090 1360 1790 2170 3630 7500 9450 16800 24400
2021-04-05 11:30 5.02 2980 33200 (1945) 542 (1954) 6440 1090 1360 1790 2170 3630 7500 9450 16800 24400
2021-04-05 11:00 5.03 2990 33200 (1945) 542 (1954) 6440 1090 1360 1790 2170 3630 7500 9450 16800 24400
2021-04-05 10:30 5.04 3010 33200 (1945) 542 (1954) 6440 1090 1360 1790 2170 3630 7500 9450 16800 24400
2021-04-05 10:00 5.03 2990 33200 (1945) 542 (1954) 6440 1090 1360 1790 2170 3630 7500 9450 16800 24400
2021-04-05 09:30 5.04 3010 33200 (1945) 542 (1954) 6440 1090 1360 1790 2170 3630 7500 9450 16800 24400
2021-04-05 09:00 5.04 3010 33200 (1945) 542 (1954) 6440 1090 1360 1790 2170 3630 7500 9450 16800 24400
2021-04-05 08:30 5.03 2990 33200 (1945) 542 (1954) 6440 1090 1360 1790 2170 3630 7500 9450 16800 24400
2021-04-05 08:00 5.04 3010 33200 (1945) 542 (1954) 6440 1090 1360 1790 2170 3630 7500 9450 16800 24400
2021-04-05 07:30 5.06 3040 33200 (1945) 542 (1954) 6440 1090 1360 1790 2170 3630 7500 9450 16800 24400
2021-04-05 07:00 5.05 3020 33200 (1945) 542 (1954) 6440 1090 1360 1790 2170 3630 7500 9450 16800 24400
2021-04-05 06:30 5.06 3040 33200 (1945) 542 (1954) 6440 1090 1360 1790 2170 3630 7500 9450 16800 24400
2021-04-05 06:00 5.06 3040 33200 (1945) 542 (1954) 6440 1090 1360 1790 2170 3630 7500 9450 16800 24400
2021-04-05 05:30 5.07 3050 33200 (1945) 542 (1954) 6440 1090 1360 1790 2170 3630 7500 9450 16800 24400
2021-04-05 05:00 5.06 3040 33200 (1945) 542 (1954) 6440 1090 1360 1790 2170 3630 7500 9450 16800 24400
2021-04-05 04:30 5.06 3040 33200 (1945) 542 (1954) 6440 1090 1360 1790 2170 3630 7500 9450 16800 24400
2021-04-05 04:00 5.07 3050 33200 (1945) 542 (1954) 6440 1090 1360 1790 2170 3630 7500 9450 16800 24400
2021-04-05 03:30 5.06 3040 33200 (1945) 542 (1954) 6440 1090 1360 1790 2170 3630 7500 9450 16800 24400
2021-04-05 03:00 5.08 3070 33200 (1945) 542 (1954) 6440 1090 1360 1790 2170 3630 7500 9450 16800 24400
2021-04-05 02:30 5.08 3070 33200 (1945) 542 (1954) 6440 1090 1360 1790 2170 3630 7500 9450 16800 24400
2021-04-05 02:00 5.07 3050 33200 (1945) 542 (1954) 6440 1090 1360 1790 2170 3630 7500 9450 16800 24400
2021-04-05 01:30 5.08 3070 33200 (1945) 542 (1954) 6440 1090 1360 1790 2170 3630 7500 9450 16800 24400
2021-04-05 01:00 5.10 3100 33200 (1945) 542 (1954) 6440 1090 1360 1790 2170 3630 7500 9450 16800 24400
2021-04-05 00:30 5.08 3070 33200 (1945) 542 (1954) 6440 1090 1360 1790 2170 3630 7500 9450 16800 24400
2021-04-05 00:00 5.09 3080 33200 (1945) 542 (1954) 6440 1090 1360 1790 2170 3630 7500 9450 16800 24400
2021-04-04 23:30 5.09 3080 54200 (1927) 568 (1954) 6260 1100 1330 1740 1880 3690 6750 7940 13600 21500
2021-04-04 23:00 5.10 3100 54200 (1927) 568 (1954) 6260 1100 1330 1740 1880 3690 6750 7940 13600 21500
2021-04-04 22:30 5.09 3080 54200 (1927) 568 (1954) 6260 1100 1330 1740 1880 3690 6750 7940 13600 21500
2021-04-04 22:00 5.10 3100 54200 (1927) 568 (1954) 6260 1100 1330 1740 1880 3690 6750 7940 13600 21500
2021-04-04 21:30 5.10 3100 54200 (1927) 568 (1954) 6260 1100 1330 1740 1880 3690 6750 7940 13600 21500
2021-04-04 21:00 5.10 3100 54200 (1927) 568 (1954) 6260 1100 1330 1740 1880 3690 6750 7940 13600 21500
2021-04-04 20:30 5.11 3110 54200 (1927) 568 (1954) 6260 1100 1330 1740 1880 3690 6750 7940 13600 21500
2021-04-04 20:00 5.11 3110 54200 (1927) 568 (1954) 6260 1100 1330 1740 1880 3690 6750 7940 13600 21500
2021-04-04 19:30 5.11 3110 54200 (1927) 568 (1954) 6260 1100 1330 1740 1880 3690 6750 7940 13600 21500
2021-04-04 19:00 5.11 3110 54200 (1927) 568 (1954) 6260 1100 1330 1740 1880 3690 6750 7940 13600 21500
2021-04-04 18:30 5.11 3110 54200 (1927) 568 (1954) 6260 1100 1330 1740 1880 3690 6750 7940 13600 21500
2021-04-04 18:00 5.11 3110 54200 (1927) 568 (1954) 6260 1100 1330 1740 1880 3690 6750 7940 13600 21500
2021-04-04 17:30 5.14 3160 54200 (1927) 568 (1954) 6260 1100 1330 1740 1880 3690 6750 7940 13600 21500
2021-04-04 17:00 5.14 3160 54200 (1927) 568 (1954) 6260 1100 1330 1740 1880 3690 6750 7940 13600 21500
2021-04-04 16:30 5.14 3160 54200 (1927) 568 (1954) 6260 1100 1330 1740 1880 3690 6750 7940 13600 21500
2021-04-04 16:00 5.15 3170 54200 (1927) 568 (1954) 6260 1100 1330 1740 1880 3690 6750 7940 13600 21500
2021-04-04 15:30 5.16 3180 54200 (1927) 568 (1954) 6260 1100 1330 1740 1880 3690 6750 7940 13600 21500
2021-04-04 15:00 5.16 3180 54200 (1927) 568 (1954) 6260 1100 1330 1740 1880 3690 6750 7940 13600 21500
2021-04-04 14:30 5.14 3160 54200 (1927) 568 (1954) 6260 1100 1330 1740 1880 3690 6750 7940 13600 21500
2021-04-04 14:00 5.15 3170 54200 (1927) 568 (1954) 6260 1100 1330 1740 1880 3690 6750 7940 13600 21500
2021-04-04 13:30 5.15 3170 54200 (1927) 568 (1954) 6260 1100 1330 1740 1880 3690 6750 7940 13600 21500
2021-04-04 13:00 5.15 3170 54200 (1927) 568 (1954) 6260 1100 1330 1740 1880 3690 6750 7940 13600 21500
2021-04-04 12:30 5.16 3180 54200 (1927) 568 (1954) 6260 1100 1330 1740 1880 3690 6750 7940 13600 21500
2021-04-04 12:00 5.16 3180 54200 (1927) 568 (1954) 6260 1100 1330 1740 1880 3690 6750 7940 13600 21500
2021-04-04 11:30 5.18 3210 54200 (1927) 568 (1954) 6260 1100 1330 1740 1880 3690 6750 7940 13600 21500
2021-04-04 11:00 5.16 3180 54200 (1927) 568 (1954) 6260 1100 1330 1740 1880 3690 6750 7940 13600 21500
2021-04-04 10:30 5.17 3200 54200 (1927) 568 (1954) 6260 1100 1330 1740 1880 3690 6750 7940 13600 21500
2021-04-04 10:00 5.18 3210 54200 (1927) 568 (1954) 6260 1100 1330 1740 1880 3690 6750 7940 13600 21500
2021-04-04 09:30 5.19 3230 54200 (1927) 568 (1954) 6260 1100 1330 1740 1880 3690 6750 7940 13600 21500
2021-04-04 09:00 5.19 3230 54200 (1927) 568 (1954) 6260 1100 1330 1740 1880 3690 6750 7940 13600 21500
2021-04-04 08:30 5.19 3230 54200 (1927) 568 (1954) 6260 1100 1330 1740 1880 3690 6750 7940 13600 21500
2021-04-04 08:00 5.20 3240 54200 (1927) 568 (1954) 6260 1100 1330 1740 1880 3690 6750 7940 13600 21500
2021-04-04 07:30 5.19 3230 54200 (1927) 568 (1954) 6260 1100 1330 1740 1880 3690 6750 7940 13600 21500
2021-04-04 07:00 5.18 3210 54200 (1927) 568 (1954) 6260 1100 1330 1740 1880 3690 6750 7940 13600 21500
2021-04-04 06:30 5.20 3240 54200 (1927) 568 (1954) 6260 1100 1330 1740 1880 3690 6750 7940 13600 21500
2021-04-04 06:00 5.20 3240 54200 (1927) 568 (1954) 6260 1100 1330 1740 1880 3690 6750 7940 13600 21500
2021-04-04 05:30 5.20 3240 54200 (1927) 568 (1954) 6260 1100 1330 1740 1880 3690 6750 7940 13600 21500
2021-04-04 05:00 5.21 3260 54200 (1927) 568 (1954) 6260 1100 1330 1740 1880 3690 6750 7940 13600 21500
2021-04-04 04:30 5.22 3270 54200 (1927) 568 (1954) 6260 1100 1330 1740 1880 3690 6750 7940 13600 21500
2021-04-04 04:00 5.22 3270 54200 (1927) 568 (1954) 6260 1100 1330 1740 1880 3690 6750 7940 13600 21500
2021-04-04 03:30 5.22 3270 54200 (1927) 568 (1954) 6260 1100 1330 1740 1880 3690 6750 7940 13600 21500
2021-04-04 03:00 5.23 3290 54200 (1927) 568 (1954) 6260 1100 1330 1740 1880 3690 6750 7940 13600 21500
2021-04-04 02:30 5.23 3290 54200 (1927) 568 (1954) 6260 1100 1330 1740 1880 3690 6750 7940 13600 21500
2021-04-04 02:00 5.25 3320 54200 (1927) 568 (1954) 6260 1100 1330 1740 1880 3690 6750 7940 13600 21500
2021-04-04 01:30 5.24 3300 54200 (1927) 568 (1954) 6260 1100 1330 1740 1880 3690 6750 7940 13600 21500
2021-04-04 01:00 5.24 3300 54200 (1927) 568 (1954) 6260 1100 1330 1740 1880 3690 6750 7940 13600 21500
2021-04-04 00:30 5.24 3300 54200 (1927) 568 (1954) 6260 1100 1330 1740 1880 3690 6750 7940 13600 21500
2021-04-04 00:00 5.25 3320 54200 (1927) 568 (1954) 6260 1100 1330 1740 1880 3690 6750 7940 13600 21500
2021-04-03 23:30 5.24 3300 63400 (1927) 594 (1954) 6490 1050 1360 1830 2000 3730 6840 8750 12800 15200
2021-04-03 23:00 5.26 3330 63400 (1927) 594 (1954) 6490 1050 1360 1830 2000 3730 6840 8750 12800 15200
2021-04-03 22:30 5.26 3330 63400 (1927) 594 (1954) 6490 1050 1360 1830 2000 3730 6840 8750 12800 15200
2021-04-03 22:00 5.26 3330 63400 (1927) 594 (1954) 6490 1050 1360 1830 2000 3730 6840 8750 12800 15200
2021-04-03 21:30 5.27 3350 63400 (1927) 594 (1954) 6490 1050 1360 1830 2000 3730 6840 8750 12800 15200
2021-04-03 21:00 5.27 3350 63400 (1927) 594 (1954) 6490 1050 1360 1830 2000 3730 6840 8750 12800 15200
2021-04-03 20:30 5.28 3360 63400 (1927) 594 (1954) 6490 1050 1360 1830 2000 3730 6840 8750 12800 15200
2021-04-03 20:00 5.29 3380 63400 (1927) 594 (1954) 6490 1050 1360 1830 2000 3730 6840 8750 12800 15200
2021-04-03 19:30 5.29 3380 63400 (1927) 594 (1954) 6490 1050 1360 1830 2000 3730 6840 8750 12800 15200
2021-04-03 19:00 5.29 3380 63400 (1927) 594 (1954) 6490 1050 1360 1830 2000 3730 6840 8750 12800 15200
2021-04-03 18:30 5.29 3380 63400 (1927) 594 (1954) 6490 1050 1360 1830 2000 3730 6840 8750 12800 15200
2021-04-03 18:00 5.30 3390 63400 (1927) 594 (1954) 6490 1050 1360 1830 2000 3730 6840 8750 12800 15200
2021-04-03 17:30 5.31 3410 63400 (1927) 594 (1954) 6490 1050 1360 1830 2000 3730 6840 8750 12800 15200
2021-04-03 17:00 5.32 3430 63400 (1927) 594 (1954) 6490 1050 1360 1830 2000 3730 6840 8750 12800 15200
2021-04-03 16:30 5.32 3430 63400 (1927) 594 (1954) 6490 1050 1360 1830 2000 3730 6840 8750 12800 15200
2021-04-03 16:00 5.32 3430 63400 (1927) 594 (1954) 6490 1050 1360 1830 2000 3730 6840 8750 12800 15200
2021-04-03 15:30 5.32 3430 63400 (1927) 594 (1954) 6490 1050 1360 1830 2000 3730 6840 8750 12800 15200
2021-04-03 15:00 5.34 3460 63400 (1927) 594 (1954) 6490 1050 1360 1830 2000 3730 6840 8750 12800 15200
2021-04-03 14:30 5.34 3460 63400 (1927) 594 (1954) 6490 1050 1360 1830 2000 3730 6840 8750 12800 15200
2021-04-03 14:00 5.33 3440 63400 (1927) 594 (1954) 6490 1050 1360 1830 2000 3730 6840 8750 12800 15200
2021-04-03 13:30 5.34 3460 63400 (1927) 594 (1954) 6490 1050 1360 1830 2000 3730 6840 8750 12800 15200
2021-04-03 13:00 5.35 3470 63400 (1927) 594 (1954) 6490 1050 1360 1830 2000 3730 6840 8750 12800 15200
2021-04-03 12:30 5.36 3490 63400 (1927) 594 (1954) 6490 1050 1360 1830 2000 3730 6840 8750 12800 15200
2021-04-03 12:00 5.34 3460 63400 (1927) 594 (1954) 6490 1050 1360 1830 2000 3730 6840 8750 12800 15200
2021-04-03 11:30 5.37 3500 63400 (1927) 594 (1954) 6490 1050 1360 1830 2000 3730 6840 8750 12800 15200
2021-04-03 11:00 5.36 3490 63400 (1927) 594 (1954) 6490 1050 1360 1830 2000 3730 6840 8750 12800 15200
2021-04-03 10:30 5.39 3530 63400 (1927) 594 (1954) 6490 1050 1360 1830 2000 3730 6840 8750 12800 15200
2021-04-03 10:00 5.37 3500 63400 (1927) 594 (1954) 6490 1050 1360 1830 2000 3730 6840 8750 12800 15200
2021-04-03 09:30 5.39 3530 63400 (1927) 594 (1954) 6490 1050 1360 1830 2000 3730 6840 8750 12800 15200
2021-04-03 09:00 5.39 3530 63400 (1927) 594 (1954) 6490 1050 1360 1830 2000 3730 6840 8750 12800 15200
2021-04-03 08:30 5.38 3520 63400 (1927) 594 (1954) 6490 1050 1360 1830 2000 3730 6840 8750 12800 15200
2021-04-03 08:00 5.38 3520 63400 (1927) 594 (1954) 6490 1050 1360 1830 2000 3730 6840 8750 12800 15200
2021-04-03 07:30 5.39 3530 63400 (1927) 594 (1954) 6490 1050 1360 1830 2000 3730 6840 8750 12800 15200
2021-04-03 07:00 5.39 3530 63400 (1927) 594 (1954) 6490 1050 1360 1830 2000 3730 6840 8750 12800 15200
2021-04-03 06:30 5.40 3550 63400 (1927) 594 (1954) 6490 1050 1360 1830 2000 3730 6840 8750 12800 15200
2021-04-03 06:00 5.40 3550 63400 (1927) 594 (1954) 6490 1050 1360 1830 2000 3730 6840 8750 12800 15200
2021-04-03 05:30 5.43 3590 63400 (1927) 594 (1954) 6490 1050 1360 1830 2000 3730 6840 8750 12800 15200
2021-04-03 05:00 5.44 3610 63400 (1927) 594 (1954) 6490 1050 1360 1830 2000 3730 6840 8750 12800 15200
2021-04-03 04:30 5.42 3580 63400 (1927) 594 (1954) 6490 1050 1360 1830 2000 3730 6840 8750 12800 15200
2021-04-03 04:00 5.43 3590 63400 (1927) 594 (1954) 6490 1050 1360 1830 2000 3730 6840 8750 12800 15200
2021-04-03 03:30 5.44 3610 63400 (1927) 594 (1954) 6490 1050 1360 1830 2000 3730 6840 8750 12800 15200
2021-04-03 03:00 5.44 3610 63400 (1927) 594 (1954) 6490 1050 1360 1830 2000 3730 6840 8750 12800 15200
2021-04-03 02:30 5.45 3620 63400 (1927) 594 (1954) 6490 1050 1360 1830 2000 3730 6840 8750 12800 15200
2021-04-03 02:00 5.45 3620 63400 (1927) 594 (1954) 6490 1050 1360 1830 2000 3730 6840 8750 12800 15200
2021-04-03 01:30 5.46 3640 63400 (1927) 594 (1954) 6490 1050 1360 1830 2000 3730 6840 8750 12800 15200
2021-04-03 01:00 5.46 3640 63400 (1927) 594 (1954) 6490 1050 1360 1830 2000 3730 6840 8750 12800 15200
2021-04-03 00:30 5.46 3640 63400 (1927) 594 (1954) 6490 1050 1360 1830 2000 3730 6840 8750 12800 15200
2021-04-03 00:00 5.47 3650 63400 (1927) 594 (1954) 6490 1050 1360 1830 2000 3730 6840 8750 12800 15200
2021-04-02 23:30 5.48 3670 55000 (1945) 602 (1954) 7260 1050 1310 1670 2100 3870 7920 8710 14700 28200
2021-04-02 23:00 5.47 3650 55000 (1945) 602 (1954) 7260 1050 1310 1670 2100 3870 7920 8710 14700 28200
2021-04-02 22:30 5.49 3690 55000 (1945) 602 (1954) 7260 1050 1310 1670 2100 3870 7920 8710 14700 28200
2021-04-02 22:00 5.49 3690 55000 (1945) 602 (1954) 7260 1050 1310 1670 2100 3870 7920 8710 14700 28200
2021-04-02 21:30 5.48 3670 55000 (1945) 602 (1954) 7260 1050 1310 1670 2100 3870 7920 8710 14700 28200
2021-04-02 21:00 5.49 3690 55000 (1945) 602 (1954) 7260 1050 1310 1670 2100 3870 7920 8710 14700 28200
2021-04-02 20:30 5.50 3700 55000 (1945) 602 (1954) 7260 1050 1310 1670 2100 3870 7920 8710 14700 28200
2021-04-02 20:00 5.51 3720 55000 (1945) 602 (1954) 7260 1050 1310 1670 2100 3870 7920 8710 14700 28200
2021-04-02 19:30 5.51 3720 55000 (1945) 602 (1954) 7260 1050 1310 1670 2100 3870 7920 8710 14700 28200
2021-04-02 19:00 5.52 3730 55000 (1945) 602 (1954) 7260 1050 1310 1670 2100 3870 7920 8710 14700 28200
2021-04-02 18:30 5.54 3760 55000 (1945) 602 (1954) 7260 1050 1310 1670 2100 3870 7920 8710 14700 28200
2021-04-02 18:00 5.53 3750 55000 (1945) 602 (1954) 7260 1050 1310 1670 2100 3870 7920 8710 14700 28200
2021-04-02 17:30 5.54 3760 55000 (1945) 602 (1954) 7260 1050 1310 1670 2100 3870 7920 8710 14700 28200
2021-04-02 17:00 5.55 3780 55000 (1945) 602 (1954) 7260 1050 1310 1670 2100 3870 7920 8710 14700 28200
2021-04-02 16:30 5.56 3790 55000 (1945) 602 (1954) 7260 1050 1310 1670 2100 3870 7920 8710 14700 28200
2021-04-02 16:00 5.56 3790 55000 (1945) 602 (1954) 7260 1050 1310 1670 2100 3870 7920 8710 14700 28200
2021-04-02 15:30 5.57 3810 55000 (1945) 602 (1954) 7260 1050 1310 1670 2100 3870 7920 8710 14700 28200
2021-04-02 15:00 5.57 3810 55000 (1945) 602 (1954) 7260 1050 1310 1670 2100 3870 7920 8710 14700 28200
2021-04-02 14:30 5.58 3830 55000 (1945) 602 (1954) 7260 1050 1310 1670 2100 3870 7920 8710 14700 28200
2021-04-02 14:00 5.59 3840 55000 (1945) 602 (1954) 7260 1050 1310 1670 2100 3870 7920 8710 14700 28200
2021-04-02 13:30 5.60 3860 55000 (1945) 602 (1954) 7260 1050 1310 1670 2100 3870 7920 8710 14700 28200
2021-04-02 13:00 5.60 3860 55000 (1945) 602 (1954) 7260 1050 1310 1670 2100 3870 7920 8710 14700 28200
2021-04-02 12:30 5.61 3870 55000 (1945) 602 (1954) 7260 1050 1310 1670 2100 3870 7920 8710 14700 28200
2021-04-02 12:00 5.62 3890 55000 (1945) 602 (1954) 7260 1050 1310 1670 2100 3870 7920 8710 14700 28200
2021-04-02 11:30 5.61 3870 55000 (1945) 602 (1954) 7260 1050 1310 1670 2100 3870 7920 8710 14700 28200
2021-04-02 11:00 5.63 3900 55000 (1945) 602 (1954) 7260 1050 1310 1670 2100 3870 7920 8710 14700 28200
2021-04-02 10:30 5.63 3900 55000 (1945) 602 (1954) 7260 1050 1310 1670 2100 3870 7920 8710 14700 28200
2021-04-02 10:00 5.65 3930 55000 (1945) 602 (1954) 7260 1050 1310 1670 2100 3870 7920 8710 14700 28200
2021-04-02 09:30 5.65 3930 55000 (1945) 602 (1954) 7260 1050 1310 1670 2100 3870 7920 8710 14700 28200
2021-04-02 09:00 5.66 3950 55000 (1945) 602 (1954) 7260 1050 1310 1670 2100 3870 7920 8710 14700 28200
2021-04-02 08:30 5.67 3970 55000 (1945) 602 (1954) 7260 1050 1310 1670 2100 3870 7920 8710 14700 28200
2021-04-02 08:00 5.66 3950 55000 (1945) 602 (1954) 7260 1050 1310 1670 2100 3870 7920 8710 14700 28200
2021-04-02 07:30 5.67 3970 55000 (1945) 602 (1954) 7260 1050 1310 1670 2100 3870 7920 8710 14700 28200
2021-04-02 07:00 5.68 3980 55000 (1945) 602 (1954) 7260 1050 1310 1670 2100 3870 7920 8710 14700 28200
2021-04-02 06:30 5.69 4000 55000 (1945) 602 (1954) 7260 1050 1310 1670 2100 3870 7920 8710 14700 28200
2021-04-02 06:00 5.70 4010 55000 (1945) 602 (1954) 7260 1050 1310 1670 2100 3870 7920 8710 14700 28200
2021-04-02 05:30 5.70 4010 55000 (1945) 602 (1954) 7260 1050 1310 1670 2100 3870 7920 8710 14700 28200
2021-04-02 05:00 5.71 4030 55000 (1945) 602 (1954) 7260 1050 1310 1670 2100 3870 7920 8710 14700 28200
2021-04-02 04:30 5.71 4030 55000 (1945) 602 (1954) 7260 1050 1310 1670 2100 3870 7920 8710 14700 28200
2021-04-02 04:00 5.71 4030 55000 (1945) 602 (1954) 7260 1050 1310 1670 2100 3870 7920 8710 14700 28200
2021-04-02 03:30 5.73 4060 55000 (1945) 602 (1954) 7260 1050 1310 1670 2100 3870 7920 8710 14700 28200
2021-04-02 03:00 5.73 4060 55000 (1945) 602 (1954) 7260 1050 1310 1670 2100 3870 7920 8710 14700 28200
2021-04-02 02:30 5.73 4060 55000 (1945) 602 (1954) 7260 1050 1310 1670 2100 3870 7920 8710 14700 28200
2021-04-02 02:00 5.75 4090 55000 (1945) 602 (1954) 7260 1050 1310 1670 2100 3870 7920 8710 14700 28200
2021-04-02 01:30 5.77 4120 55000 (1945) 602 (1954) 7260 1050 1310 1670 2100 3870 7920 8710 14700 28200
2021-04-02 01:00 5.77 4120 55000 (1945) 602 (1954) 7260 1050 1310 1670 2100 3870 7920 8710 14700 28200
2021-04-02 00:30 5.78 4140 55000 (1945) 602 (1954) 7260 1050 1310 1670 2100 3870 7920 8710 14700 28200
2021-04-02 00:00 5.76 4110 55000 (1945) 602 (1954) 7260 1050 1310 1670 2100 3870 7920 8710 14700 28200
2021-04-01 23:30 5.76 4110 48600 (1985) 636 (1954) 7500 1120 1310 1810 2120 3970 9490 10200 25100 28900
2021-04-01 23:00 5.80 4170 48600 (1985) 636 (1954) 7500 1120 1310 1810 2120 3970 9490 10200 25100 28900
2021-04-01 22:30 5.79 4160 48600 (1985) 636 (1954) 7500 1120 1310 1810 2120 3970 9490 10200 25100 28900
2021-04-01 22:00 5.82 4200 48600 (1985) 636 (1954) 7500 1120 1310 1810 2120 3970 9490 10200 25100 28900
2021-04-01 21:30 5.82 4200 48600 (1985) 636 (1954) 7500 1120 1310 1810 2120 3970 9490 10200 25100 28900
2021-04-01 21:00 5.82 4200 48600 (1985) 636 (1954) 7500 1120 1310 1810 2120 3970 9490 10200 25100 28900
2021-04-01 20:30 5.82 4200 48600 (1985) 636 (1954) 7500 1120 1310 1810 2120 3970 9490 10200 25100 28900
2021-04-01 20:00 5.84 4240 48600 (1985) 636 (1954) 7500 1120 1310 1810 2120 3970 9490 10200 25100 28900
2021-04-01 19:30 5.84 4240 48600 (1985) 636 (1954) 7500 1120 1310 1810 2120 3970 9490 10200 25100 28900
2021-04-01 19:00 5.86 4270 48600 (1985) 636 (1954) 7500 1120 1310 1810 2120 3970 9490 10200 25100 28900
2021-04-01 18:30 5.85 4250 48600 (1985) 636 (1954) 7500 1120 1310 1810 2120 3970 9490 10200 25100 28900
2021-04-01 18:00 5.85 4250 48600 (1985) 636 (1954) 7500 1120 1310 1810 2120 3970 9490 10200 25100 28900
2021-04-01 17:30 5.89 4320 48600 (1985) 636 (1954) 7500 1120 1310 1810 2120 3970 9490 10200 25100 28900
2021-04-01 17:00 5.89 4320 48600 (1985) 636 (1954) 7500 1120 1310 1810 2120 3970 9490 10200 25100 28900
2021-04-01 16:30 5.90 4330 48600 (1985) 636 (1954) 7500 1120 1310 1810 2120 3970 9490 10200 25100 28900
2021-04-01 16:00 5.89 4320 48600 (1985) 636 (1954) 7500 1120 1310 1810 2120 3970 9490 10200 25100 28900
2021-04-01 15:30 5.91 4350 48600 (1985) 636 (1954) 7500 1120 1310 1810 2120 3970 9490 10200 25100 28900
2021-04-01 15:00 5.90 4330 48600 (1985) 636 (1954) 7500 1120 1310 1810 2120 3970 9490 10200 25100 28900
2021-04-01 14:30 5.93 4380 48600 (1985) 636 (1954) 7500 1120 1310 1810 2120 3970 9490 10200 25100 28900
2021-04-01 14:00 5.94 4400 48600 (1985) 636 (1954) 7500 1120 1310 1810 2120 3970 9490 10200 25100 28900
2021-04-01 13:30 5.94 4400 48600 (1985) 636 (1954) 7500 1120 1310 1810 2120 3970 9490 10200 25100 28900
2021-04-01 13:00 5.97 4450 48600 (1985) 636 (1954) 7500 1120 1310 1810 2120 3970 9490 10200 25100 28900
2021-04-01 12:30 5.97 4450 48600 (1985) 636 (1954) 7500 1120 1310 1810 2120 3970 9490 10200 25100 28900
2021-04-01 12:00 5.99 4480 48600 (1985) 636 (1954) 7500 1120 1310 1810 2120 3970 9490 10200 25100 28900
2021-04-01 11:30 5.99 4480 48600 (1985) 636 (1954) 7500 1120 1310 1810 2120 3970 9490 10200 25100 28900
2021-04-01 11:00 5.99 4480 48600 (1985) 636 (1954) 7500 1120 1310 1810 2120 3970 9490 10200 25100 28900
2021-04-01 10:30 6.00 4490 48600 (1985) 636 (1954) 7500 1120 1310 1810 2120 3970 9490 10200 25100 28900
2021-04-01 10:00 6.01 4510 48600 (1985) 636 (1954) 7500 1120 1310 1810 2120 3970 9490 10200 25100 28900
2021-04-01 09:30 6.01 4510 48600 (1985) 636 (1954) 7500 1120 1310 1810 2120 3970 9490 10200 25100 28900
2021-04-01 09:00 6.02 4530 48600 (1985) 636 (1954) 7500 1120 1310 1810 2120 3970 9490 10200 25100 28900
2021-04-01 08:30 6.02 4530 48600 (1985) 636 (1954) 7500 1120 1310 1810 2120 3970 9490 10200 25100 28900
2021-04-01 08:00 6.04 4560 48600 (1985) 636 (1954) 7500 1120 1310 1810 2120 3970 9490 10200 25100 28900
2021-04-01 07:30 6.06 4590 48600 (1985) 636 (1954) 7500 1120 1310 1810 2120 3970 9490 10200 25100 28900
2021-04-01 07:00 6.04 4560 48600 (1985) 636 (1954) 7500 1120 1310 1810 2120 3970 9490 10200 25100 28900
2021-04-01 06:30 6.06 4590 48600 (1985) 636 (1954) 7500 1120 1310 1810 2120 3970 9490 10200 25100 28900
2021-04-01 06:00 6.09 4640 48600 (1985) 636 (1954) 7500 1120 1310 1810 2120 3970 9490 10200 25100 28900
2021-04-01 05:30 6.09 4640 48600 (1985) 636 (1954) 7500 1120 1310 1810 2120 3970 9490 10200 25100 28900
2021-04-01 05:00 6.10 4660 48600 (1985) 636 (1954) 7500 1120 1310 1810 2120 3970 9490 10200 25100 28900
2021-04-01 04:30 6.11 4670 48600 (1985) 636 (1954) 7500 1120 1310 1810 2120 3970 9490 10200 25100 28900
2021-04-01 04:00 6.10 4660 48600 (1985) 636 (1954) 7500 1120 1310 1810 2120 3970 9490 10200 25100 28900
2021-04-01 03:30 6.11 4670 48600 (1985) 636 (1954) 7500 1120 1310 1810 2120 3970 9490 10200 25100 28900
2021-04-01 03:00 6.15 4740 48600 (1985) 636 (1954) 7500 1120 1310 1810 2120 3970 9490 10200 25100 28900
2021-04-01 02:30 6.16 4760 48600 (1985) 636 (1954) 7500 1120 1310 1810 2120 3970 9490 10200 25100 28900
2021-04-01 02:00 6.16 4760 48600 (1985) 636 (1954) 7500 1120 1310 1810 2120 3970 9490 10200 25100 28900
2021-04-01 01:30 6.17 4770 48600 (1985) 636 (1954) 7500 1120 1310 1810 2120 3970 9490 10200 25100 28900
2021-04-01 01:00 6.18 4790 48600 (1985) 636 (1954) 7500 1120 1310 1810 2120 3970 9490 10200 25100 28900
2021-04-01 00:30 6.18 4790 48600 (1985) 636 (1954) 7500 1120 1310 1810 2120 3970 9490 10200 25100 28900
2021-04-01 00:00 6.20 4820 48600 (1985) 636 (1954) 7500 1120 1310 1810 2120 3970 9490 10200 25100 28900
2021-03-31 23:30 6.21 4840 39200 (1977) 647 (1941) 7050 1110 1360 1900 2220 4200 7580 9600 18400 26300
2021-03-31 23:00 6.21 4840 39200 (1977) 647 (1941) 7050 1110 1360 1900 2220 4200 7580 9600 18400 26300
2021-03-31 22:30 6.22 4860 39200 (1977) 647 (1941) 7050 1110 1360 1900 2220 4200 7580 9600 18400 26300
2021-03-31 22:00 6.26 4920 39200 (1977) 647 (1941) 7050 1110 1360 1900 2220 4200 7580 9600 18400 26300
2021-03-31 21:30 6.25 4910 39200 (1977) 647 (1941) 7050 1110 1360 1900 2220 4200 7580 9600 18400 26300
2021-03-31 21:00 6.26 4920 39200 (1977) 647 (1941) 7050 1110 1360 1900 2220 4200 7580 9600 18400 26300
2021-03-31 20:30 6.28 4960 39200 (1977) 647 (1941) 7050 1110 1360 1900 2220 4200 7580 9600 18400 26300
2021-03-31 20:00 6.31 5010 39200 (1977) 647 (1941) 7050 1110 1360 1900 2220 4200 7580 9600 18400 26300
2021-03-31 19:30 6.31 5010 39200 (1977) 647 (1941) 7050 1110 1360 1900 2220 4200 7580 9600 18400 26300
2021-03-31 19:00 6.34 5060 39200 (1977) 647 (1941) 7050 1110 1360 1900 2220 4200 7580 9600 18400 26300
2021-03-31 18:30 6.32 5020 39200 (1977) 647 (1941) 7050 1110 1360 1900 2220 4200 7580 9600 18400 26300
2021-03-31 18:00 6.35 5070 39200 (1977) 647 (1941) 7050 1110 1360 1900 2220 4200 7580 9600 18400 26300
2021-03-31 17:30 6.36 5090 39200 (1977) 647 (1941) 7050 1110 1360 1900 2220 4200 7580 9600 18400 26300
2021-03-31 17:00 6.38 5120 39200 (1977) 647 (1941) 7050 1110 1360 1900 2220 4200 7580 9600 18400 26300
2021-03-31 16:30 6.41 5170 39200 (1977) 647 (1941) 7050 1110 1360 1900 2220 4200 7580 9600 18400 26300
2021-03-31 16:00 6.40 5160 39200 (1977) 647 (1941) 7050 1110 1360 1900 2220 4200 7580 9600 18400 26300
2021-03-31 15:30 6.43 5210 39200 (1977) 647 (1941) 7050 1110 1360 1900 2220 4200 7580 9600 18400 26300
2021-03-31 15:00 6.45 5240 39200 (1977) 647 (1941) 7050 1110 1360 1900 2220 4200 7580 9600 18400 26300
2021-03-31 14:30 6.45 5240 39200 (1977) 647 (1941) 7050 1110 1360 1900 2220 4200 7580 9600 18400 26300
2021-03-31 14:00 6.48 5290 39200 (1977) 647 (1941) 7050 1110 1360 1900 2220 4200 7580 9600 18400 26300
2021-03-31 13:30 6.45 5240 39200 (1977) 647 (1941) 7050 1110 1360 1900 2220 4200 7580 9600 18400 26300
2021-03-31 13:00 6.48 5290 39200 (1977) 647 (1941) 7050 1110 1360 1900 2220 4200 7580 9600 18400 26300
2021-03-31 12:30 6.50 5330 39200 (1977) 647 (1941) 7050 1110 1360 1900 2220 4200 7580 9600 18400 26300
2021-03-31 12:00 6.52 5360 39200 (1977) 647 (1941) 7050 1110 1360 1900 2220 4200 7580 9600 18400 26300
2021-03-31 11:30 6.51 5340 39200 (1977) 647 (1941) 7050 1110 1360 1900 2220 4200 7580 9600 18400 26300
2021-03-31 11:00 6.54 5390 39200 (1977) 647 (1941) 7050 1110 1360 1900 2220 4200 7580 9600 18400 26300
2021-03-31 10:30 6.54 5390 39200 (1977) 647 (1941) 7050 1110 1360 1900 2220 4200 7580 9600 18400 26300
2021-03-31 10:00 6.56 5430 39200 (1977) 647 (1941) 7050 1110 1360 1900 2220 4200 7580 9600 18400 26300
2021-03-31 09:30 6.57 5450 39200 (1977) 647 (1941) 7050 1110 1360 1900 2220 4200 7580 9600 18400 26300
2021-03-31 09:00 6.57 5450 39200 (1977) 647 (1941) 7050 1110 1360 1900 2220 4200 7580 9600 18400 26300
2021-03-31 08:30 6.58 5460 39200 (1977) 647 (1941) 7050 1110 1360 1900 2220 4200 7580 9600 18400 26300
2021-03-31 08:00 6.61 5510 39200 (1977) 647 (1941) 7050 1110 1360 1900 2220 4200 7580 9600 18400 26300
2021-03-31 07:30 6.62 5530 39200 (1977) 647 (1941) 7050 1110 1360 1900 2220 4200 7580 9600 18400 26300
2021-03-31 07:00 6.62 5530 39200 (1977) 647 (1941) 7050 1110 1360 1900 2220 4200 7580 9600 18400 26300
2021-03-31 06:30 6.66 5600 39200 (1977) 647 (1941) 7050 1110 1360 1900 2220 4200 7580 9600 18400 26300
2021-03-31 06:00 6.68 5630 39200 (1977) 647 (1941) 7050 1110 1360 1900 2220 4200 7580 9600 18400 26300
2021-03-31 05:30 6.67 5620 39200 (1977) 647 (1941) 7050 1110 1360 1900 2220 4200 7580 9600 18400 26300
2021-03-31 05:00 6.69 5650 39200 (1977) 647 (1941) 7050 1110 1360 1900 2220 4200 7580 9600 18400 26300
2021-03-31 04:30 6.73 5720 39200 (1977) 647 (1941) 7050 1110 1360 1900 2220 4200 7580 9600 18400 26300
2021-03-31 04:00 6.72 5700 39200 (1977) 647 (1941) 7050 1110 1360 1900 2220 4200 7580 9600 18400 26300
2021-03-31 03:30 6.76 5770 39200 (1977) 647 (1941) 7050 1110 1360 1900 2220 4200 7580 9600 18400 26300
2021-03-31 03:00 6.76 5770 39200 (1977) 647 (1941) 7050 1110 1360 1900 2220 4200 7580 9600 18400 26300
2021-03-31 02:30 6.79 5830 39200 (1977) 647 (1941) 7050 1110 1360 1900 2220 4200 7580 9600 18400 26300
2021-03-31 02:00 6.80 5840 39200 (1977) 647 (1941) 7050 1110 1360 1900 2220 4200 7580 9600 18400 26300
2021-03-31 01:30 6.79 5830 39200 (1977) 647 (1941) 7050 1110 1360 1900 2220 4200 7580 9600 18400 26300
2021-03-31 01:00 6.85 5930 39200 (1977) 647 (1941) 7050 1110 1360 1900 2220 4200 7580 9600 18400 26300
2021-03-31 00:30 6.86 5950 39200 (1977) 647 (1941) 7050 1110 1360 1900 2220 4200 7580 9600 18400 26300
2021-03-31 00:00 6.88 5980 39200 (1977) 647 (1941) 7050 1110 1360 1900 2220 4200 7580 9600 18400 26300
2021-03-30 23:30 6.89 6000 41400 (1977) 623 (1941) 6290 1130 1420 1960 2110 3750 7630 9500 14200 19500
2021-03-30 23:00 6.92 6050 41400 (1977) 623 (1941) 6290 1130 1420 1960 2110 3750 7630 9500 14200 19500
2021-03-30 22:30 6.93 6070 41400 (1977) 623 (1941) 6290 1130 1420 1960 2110 3750 7630 9500 14200 19500
2021-03-30 22:00 6.96 6120 41400 (1977) 623 (1941) 6290 1130 1420 1960 2110 3750 7630 9500 14200 19500
2021-03-30 21:30 6.98 6160 41400 (1977) 623 (1941) 6290 1130 1420 1960 2110 3750 7630 9500 14200 19500
2021-03-30 21:00 7.01 6210 41400 (1977) 623 (1941) 6290 1130 1420 1960 2110 3750 7630 9500 14200 19500
2021-03-30 20:30 7.02 6230 41400 (1977) 623 (1941) 6290 1130 1420 1960 2110 3750 7630 9500 14200 19500
2021-03-30 20:00 7.03 6250 41400 (1977) 623 (1941) 6290 1130 1420 1960 2110 3750 7630 9500 14200 19500
2021-03-30 19:30 7.06 6300 41400 (1977) 623 (1941) 6290 1130 1420 1960 2110 3750 7630 9500 14200 19500
2021-03-30 19:00 7.08 6330 41400 (1977) 623 (1941) 6290 1130 1420 1960 2110 3750 7630 9500 14200 19500
2021-03-30 18:30 7.09 6350 41400 (1977) 623 (1941) 6290 1130 1420 1960 2110 3750 7630 9500 14200 19500
2021-03-30 18:00 7.12 6400 41400 (1977) 623 (1941) 6290 1130 1420 1960 2110 3750 7630 9500 14200 19500
2021-03-30 17:30 7.16 6470 41400 (1977) 623 (1941) 6290 1130 1420 1960 2110 3750 7630 9500 14200 19500
2021-03-30 17:00 7.15 6460 41400 (1977) 623 (1941) 6290 1130 1420 1960 2110 3750 7630 9500 14200 19500
2021-03-30 16:30 7.19 6530 41400 (1977) 623 (1941) 6290 1130 1420 1960 2110 3750 7630 9500 14200 19500
2021-03-30 16:00 7.22 6580 41400 (1977) 623 (1941) 6290 1130 1420 1960 2110 3750 7630 9500 14200 19500
2021-03-30 15:30 7.24 6620 41400 (1977) 623 (1941) 6290 1130 1420 1960 2110 3750 7630 9500 14200 19500
2021-03-30 15:00 7.26 6650 41400 (1977) 623 (1941) 6290 1130 1420 1960 2110 3750 7630 9500 14200 19500
2021-03-30 14:30 7.28 6690 41400 (1977) 623 (1941) 6290 1130 1420 1960 2110 3750 7630 9500 14200 19500
2021-03-30 14:00 7.31 6740 41400 (1977) 623 (1941) 6290 1130 1420 1960 2110 3750 7630 9500 14200 19500
2021-03-30 13:30 7.32 6760 41400 (1977) 623 (1941) 6290 1130 1420 1960 2110 3750 7630 9500 14200 19500
2021-03-30 13:00 7.36 6830 41400 (1977) 623 (1941) 6290 1130 1420 1960 2110 3750 7630 9500 14200 19500
2021-03-30 12:30 7.37 6850 41400 (1977) 623 (1941) 6290 1130 1420 1960 2110 3750 7630 9500 14200 19500
2021-03-30 12:00 7.40 6900 41400 (1977) 623 (1941) 6290 1130 1420 1960 2110 3750 7630 9500 14200 19500
2021-03-30 11:30 7.40 6900 41400 (1977) 623 (1941) 6290 1130 1420 1960 2110 3750 7630 9500 14200 19500
2021-03-30 11:00 7.42 6940 41400 (1977) 623 (1941) 6290 1130 1420 1960 2110 3750 7630 9500 14200 19500
2021-03-30 10:30 7.46 7010 41400 (1977) 623 (1941) 6290 1130 1420 1960 2110 3750 7630 9500 14200 19500
2021-03-30 10:00 7.50 7080 41400 (1977) 623 (1941) 6290 1130 1420 1960 2110 3750 7630 9500 14200 19500
2021-03-30 09:30 7.52 7120 41400 (1977) 623 (1941) 6290 1130 1420 1960 2110 3750 7630 9500 14200 19500
2021-03-30 09:00 7.55 7170 41400 (1977) 623 (1941) 6290 1130 1420 1960 2110 3750 7630 9500 14200 19500
2021-03-30 08:30 7.56 7190 41400 (1977) 623 (1941) 6290 1130 1420 1960 2110 3750 7630 9500 14200 19500
2021-03-30 08:00 7.59 7240 41400 (1977) 623 (1941) 6290 1130 1420 1960 2110 3750 7630 9500 14200 19500
2021-03-30 07:30 7.61 7280 41400 (1977) 623 (1941) 6290 1130 1420 1960 2110 3750 7630 9500 14200 19500
2021-03-30 07:00 7.63 7320 41400 (1977) 623 (1941) 6290 1130 1420 1960 2110 3750 7630 9500 14200 19500
2021-03-30 06:30 7.68 7410 41400 (1977) 623 (1941) 6290 1130 1420 1960 2110 3750 7630 9500 14200 19500
2021-03-30 06:00 7.69 7430 41400 (1977) 623 (1941) 6290 1130 1420 1960 2110 3750 7630 9500 14200 19500
2021-03-30 05:30 7.72 7480 41400 (1977) 623 (1941) 6290 1130 1420 1960 2110 3750 7630 9500 14200 19500
2021-03-30 05:00 7.73 7500 41400 (1977) 623 (1941) 6290 1130 1420 1960 2110 3750 7630 9500 14200 19500
2021-03-30 04:30 7.77 7570 41400 (1977) 623 (1941) 6290 1130 1420 1960 2110 3750 7630 9500 14200 19500
2021-03-30 04:00 7.80 7630 41400 (1977) 623 (1941) 6290 1130 1420 1960 2110 3750 7630 9500 14200 19500
2021-03-30 03:30 7.80 7630 41400 (1977) 623 (1941) 6290 1130 1420 1960 2110 3750 7630 9500 14200 19500
2021-03-30 03:00 7.85 7720 41400 (1977) 623 (1941) 6290 1130 1420 1960 2110 3750 7630 9500 14200 19500
2021-03-30 02:30 7.88 7780 41400 (1977) 623 (1941) 6290 1130 1420 1960 2110 3750 7630 9500 14200 19500
2021-03-30 02:00 7.87 7760 41400 (1977) 623 (1941) 6290 1130 1420 1960 2110 3750 7630 9500 14200 19500
2021-03-30 01:30 7.92 7850 41400 (1977) 623 (1941) 6290 1130 1420 1960 2110 3750 7630 9500 14200 19500
2021-03-30 01:00 7.94 7890 41400 (1977) 623 (1941) 6290 1130 1420 1960 2110 3750 7630 9500 14200 19500
2021-03-30 00:30 7.97 7940 41400 (1977) 623 (1941) 6290 1130 1420 1960 2110 3750 7630 9500 14200 19500
2021-03-30 00:00 7.98 7960 41400 (1977) 623 (1941) 6290 1130 1420 1960 2110 3750 7630 9500 14200 19500
2021-03-29 23:30 7.98 7960 60500 (1904) 623 (1941) 6140 1180 1500 1970 2100 3440 7460 8850 12900 18400
2021-03-29 23:00 8.01 8020 60500 (1904) 623 (1941) 6140 1180 1500 1970 2100 3440 7460 8850 12900 18400
2021-03-29 22:30 8.05 8090 60500 (1904) 623 (1941) 6140 1180 1500 1970 2100 3440 7460 8850 12900 18400
2021-03-29 22:00 8.06 8110 60500 (1904) 623 (1941) 6140 1180 1500 1970 2100 3440 7460 8850 12900 18400
2021-03-29 21:30 8.09 8170 60500 (1904) 623 (1941) 6140 1180 1500 1970 2100 3440 7460 8850 12900 18400
2021-03-29 21:00 8.11 8200 60500 (1904) 623 (1941) 6140 1180 1500 1970 2100 3440 7460 8850 12900 18400
2021-03-29 20:30 8.15 8280 60500 (1904) 623 (1941) 6140 1180 1500 1970 2100 3440 7460 8850 12900 18400
2021-03-29 20:00 8.14 8260 60500 (1904) 623 (1941) 6140 1180 1500 1970 2100 3440 7460 8850 12900 18400
2021-03-29 19:30 8.17 8320 60500 (1904) 623 (1941) 6140 1180 1500 1970 2100 3440 7460 8850 12900 18400
2021-03-29 19:00 8.20 8370 60500 (1904) 623 (1941) 6140 1180 1500 1970 2100 3440 7460 8850 12900 18400
2021-03-29 18:30 8.19 8350 60500 (1904) 623 (1941) 6140 1180 1500 1970 2100 3440 7460 8850 12900 18400
2021-03-29 18:00 8.20 8370 60500 (1904) 623 (1941) 6140 1180 1500 1970 2100 3440 7460 8850 12900 18400
2021-03-29 17:30 8.22 8410 60500 (1904) 623 (1941) 6140 1180 1500 1970 2100 3440 7460 8850 12900 18400
2021-03-29 17:00 8.26 8490 60500 (1904) 623 (1941) 6140 1180 1500 1970 2100 3440 7460 8850 12900 18400
2021-03-29 16:30 8.29 8540 60500 (1904) 623 (1941) 6140 1180 1500 1970 2100 3440 7460 8850 12900 18400
2021-03-29 16:00 8.31 8580 60500 (1904) 623 (1941) 6140 1180 1500 1970 2100 3440 7460 8850 12900 18400
2021-03-29 15:30 8.31 8580 60500 (1904) 623 (1941) 6140 1180 1500 1970 2100 3440 7460 8850 12900 18400
2021-03-29 15:00 8.31 8580 60500 (1904) 623 (1941) 6140 1180 1500 1970 2100 3440 7460 8850 12900 18400
2021-03-29 14:30 8.35 8660 60500 (1904) 623 (1941) 6140 1180 1500 1970 2100 3440 7460 8850 12900 18400
2021-03-29 14:00 8.33 8620 60500 (1904) 623 (1941) 6140 1180 1500 1970 2100 3440 7460 8850 12900 18400
2021-03-29 13:30 8.33 8620 60500 (1904) 623 (1941) 6140 1180 1500 1970 2100 3440 7460 8850 12900 18400
2021-03-29 13:00 8.35 8660 60500 (1904) 623 (1941) 6140 1180 1500 1970 2100 3440 7460 8850 12900 18400
2021-03-29 12:30 8.36 8680 60500 (1904) 623 (1941) 6140 1180 1500 1970 2100 3440 7460 8850 12900 18400
2021-03-29 12:00 8.35 8660 60500 (1904) 623 (1941) 6140 1180 1500 1970 2100 3440 7460 8850 12900 18400
2021-03-29 11:30 8.38 8710 60500 (1904) 623 (1941) 6140 1180 1500 1970 2100 3440 7460 8850 12900 18400
2021-03-29 11:00 8.41 8770 60500 (1904) 623 (1941) 6140 1180 1500 1970 2100 3440 7460 8850 12900 18400
2021-03-29 10:30 8.43 8810 60500 (1904) 623 (1941) 6140 1180 1500 1970 2100 3440 7460 8850 12900 18400
2021-03-29 10:00 8.44 8830 60500 (1904) 623 (1941) 6140 1180 1500 1970 2100 3440 7460 8850 12900 18400
2021-03-29 09:30 8.46 8870 60500 (1904) 623 (1941) 6140 1180 1500 1970 2100 3440 7460 8850 12900 18400
2021-03-29 09:00 8.43 8810 60500 (1904) 623 (1941) 6140 1180 1500 1970 2100 3440 7460 8850 12900 18400
2021-03-29 08:30 8.48 8910 60500 (1904) 623 (1941) 6140 1180 1500 1970 2100 3440 7460 8850 12900 18400
2021-03-29 08:00 8.50 8940 60500 (1904) 623 (1941) 6140 1180 1500 1970 2100 3440 7460 8850 12900 18400
2021-03-29 07:30 8.48 8910 60500 (1904) 623 (1941) 6140 1180 1500 1970 2100 3440 7460 8850 12900 18400
2021-03-29 07:00 8.53 9000 60500 (1904) 623 (1941) 6140 1180 1500 1970 2100 3440 7460 8850 12900 18400
2021-03-29 06:30 8.53 9000 60500 (1904) 623 (1941) 6140 1180 1500 1970 2100 3440 7460 8850 12900 18400
2021-03-29 06:00 8.57 9080 60500 (1904) 623 (1941) 6140 1180 1500 1970 2100 3440 7460 8850 12900 18400
2021-03-29 05:30 8.60 9140 60500 (1904) 623 (1941) 6140 1180 1500 1970 2100 3440 7460 8850 12900 18400
2021-03-29 05:00 8.58 9100 60500 (1904) 623 (1941) 6140 1180 1500 1970 2100 3440 7460 8850 12900 18400
2021-03-29 04:30 8.58 9100 60500 (1904) 623 (1941) 6140 1180 1500 1970 2100 3440 7460 8850 12900 18400
2021-03-29 04:00 8.60 9140 60500 (1904) 623 (1941) 6140 1180 1500 1970 2100 3440 7460 8850 12900 18400
2021-03-29 03:30 8.66 9250 60500 (1904) 623 (1941) 6140 1180 1500 1970 2100 3440 7460 8850 12900 18400
2021-03-29 03:00 8.69 9310 60500 (1904) 623 (1941) 6140 1180 1500 1970 2100 3440 7460 8850 12900 18400
2021-03-29 02:30 8.72 9370 60500 (1904) 623 (1941) 6140 1180 1500 1970 2100 3440 7460 8850 12900 18400
2021-03-29 02:00 8.73 9390 60500 (1904) 623 (1941) 6140 1180 1500 1970 2100 3440 7460 8850 12900 18400
2021-03-29 01:30 8.74 9410 60500 (1904) 623 (1941) 6140 1180 1500 1970 2100 3440 7460 8850 12900 18400
2021-03-29 01:00 8.77 9470 60500 (1904) 623 (1941) 6140 1180 1500 1970 2100 3440 7460 8850 12900 18400
2021-03-29 00:30 8.81 9540 60500 (1904) 623 (1941) 6140 1180 1500 1970 2100 3440 7460 8850 12900 18400
2021-03-29 00:00 8.81 9540 60500 (1904) 623 (1941) 6140 1180 1500 1970 2100 3440 7460 8850 12900 18400
2021-03-28 23:30 8.83 9580 68100 (1904) 631 (1941) 6520 831 1430 2030 2200 3290 8290 9490 16200 22000
2021-03-28 23:00 8.87 9660 68100 (1904) 631 (1941) 6520 831 1430 2030 2200 3290 8290 9490 16200 22000
2021-03-28 22:30 8.89 9700 68100 (1904) 631 (1941) 6520 831 1430 2030 2200 3290 8290 9490 16200 22000
2021-03-28 22:00 8.91 9740 68100 (1904) 631 (1941) 6520 831 1430 2030 2200 3290 8290 9490 16200 22000
2021-03-28 21:30 8.92 9760 68100 (1904) 631 (1941) 6520 831 1430 2030 2200 3290 8290 9490 16200 22000
2021-03-28 21:00 8.97 9860 68100 (1904) 631 (1941) 6520 831 1430 2030 2200 3290 8290 9490 16200 22000
2021-03-28 20:30 9.01 9940 68100 (1904) 631 (1941) 6520 831 1430 2030 2200 3290 8290 9490 16200 22000
2021-03-28 19:30 9.03 9980 68100 (1904) 631 (1941) 6520 831 1430 2030 2200 3290 8290 9490 16200 22000
2021-03-28 19:00 9.09 10100 68100 (1904) 631 (1941) 6520 831 1430 2030 2200 3290 8290 9490 16200 22000
2021-03-28 18:30 9.14 10200 68100 (1904) 631 (1941) 6520 831 1430 2030 2200 3290 8290 9490 16200 22000
2021-03-28 18:00 9.17 10300 68100 (1904) 631 (1941) 6520 831 1430 2030 2200 3290 8290 9490 16200 22000
2021-03-28 17:30 9.19 10300 68100 (1904) 631 (1941) 6520 831 1430 2030 2200 3290 8290 9490 16200 22000
2021-03-28 17:00 9.20 10300 68100 (1904) 631 (1941) 6520 831 1430 2030 2200 3290 8290 9490 16200 22000
2021-03-28 16:30 9.27 10500 68100 (1904) 631 (1941) 6520 831 1430 2030 2200 3290 8290 9490 16200 22000
2021-03-28 16:00 9.28 10500 68100 (1904) 631 (1941) 6520 831 1430 2030 2200 3290 8290 9490 16200 22000
2021-03-28 15:30 9.29 10500 68100 (1904) 631 (1941) 6520 831 1430 2030 2200 3290 8290 9490 16200 22000
2021-03-28 15:00 9.32 10600 68100 (1904) 631 (1941) 6520 831 1430 2030 2200 3290 8290 9490 16200 22000
2021-03-28 14:30 9.35 10600 68100 (1904) 631 (1941) 6520 831 1430 2030 2200 3290 8290 9490 16200 22000
2021-03-28 14:00 9.36 10600 68100 (1904) 631 (1941) 6520 831 1430 2030 2200 3290 8290 9490 16200 22000
2021-03-28 13:30 9.39 10700 68100 (1904) 631 (1941) 6520 831 1430 2030 2200 3290 8290 9490 16200 22000
2021-03-28 13:00 9.41 10700 68100 (1904) 631 (1941) 6520 831 1430 2030 2200 3290 8290 9490 16200 22000
2021-03-28 12:30 9.42 10800 68100 (1904) 631 (1941) 6520 831 1430 2030 2200 3290 8290 9490 16200 22000
2021-03-28 12:00 9.38 10700 68100 (1904) 631 (1941) 6520 831 1430 2030 2200 3290 8290 9490 16200 22000
2021-03-28 11:30 9.45 10800 68100 (1904) 631 (1941) 6520 831 1430 2030 2200 3290 8290 9490 16200 22000
2021-03-28 11:00 9.46 10800 68100 (1904) 631 (1941) 6520 831 1430 2030 2200 3290 8290 9490 16200 22000
2021-03-28 10:30 9.45 10800 68100 (1904) 631 (1941) 6520 831 1430 2030 2200 3290 8290 9490 16200 22000
2021-03-28 10:00 9.47 10900 68100 (1904) 631 (1941) 6520 831 1430 2030 2200 3290 8290 9490 16200 22000
2021-03-28 09:30 9.47 10900 68100 (1904) 631 (1941) 6520 831 1430 2030 2200 3290 8290 9490 16200 22000
2021-03-28 09:00 9.44 10800 68100 (1904) 631 (1941) 6520 831 1430 2030 2200 3290 8290 9490 16200 22000
2021-03-28 08:30 9.46 10800 68100 (1904) 631 (1941) 6520 831 1430 2030 2200 3290 8290 9490 16200 22000
2021-03-28 08:00 9.46 10800 68100 (1904) 631 (1941) 6520 831 1430 2030 2200 3290 8290 9490 16200 22000
2021-03-28 07:30 9.44 10800 68100 (1904) 631 (1941) 6520 831 1430 2030 2200 3290 8290 9490 16200 22000
2021-03-28 07:00 9.43 10800 68100 (1904) 631 (1941) 6520 831 1430 2030 2200 3290 8290 9490 16200 22000
2021-03-28 06:30 9.39 10700 68100 (1904) 631 (1941) 6520 831 1430 2030 2200 3290 8290 9490 16200 22000
2021-03-28 06:00 9.39 10700 68100 (1904) 631 (1941) 6520 831 1430 2030 2200 3290 8290 9490 16200 22000
2021-03-28 05:30 9.38 10700 68100 (1904) 631 (1941) 6520 831 1430 2030 2200 3290 8290 9490 16200 22000
2021-03-28 05:00 9.35 10600 68100 (1904) 631 (1941) 6520 831 1430 2030 2200 3290 8290 9490 16200 22000
2021-03-28 04:30 9.36 10600 68100 (1904) 631 (1941) 6520 831 1430 2030 2200 3290 8290 9490 16200 22000
2021-03-28 04:00 9.35 10600 68100 (1904) 631 (1941) 6520 831 1430 2030 2200 3290 8290 9490 16200 22000
2021-03-28 03:30 9.29 10500 68100 (1904) 631 (1941) 6520 831 1430 2030 2200 3290 8290 9490 16200 22000
2021-03-28 03:00 9.28 10500 68100 (1904) 631 (1941) 6520 831 1430 2030 2200 3290 8290 9490 16200 22000
2021-03-28 02:30 9.24 10400 68100 (1904) 631 (1941) 6520 831 1430 2030 2200 3290 8290 9490 16200 22000
2021-03-28 02:00 9.26 10400 68100 (1904) 631 (1941) 6520 831 1430 2030 2200 3290 8290 9490 16200 22000
2021-03-28 01:30 9.19 10300 68100 (1904) 631 (1941) 6520 831 1430 2030 2200 3290 8290 9490 16200 22000
2021-03-28 01:00 9.09 10100 68100 (1904) 631 (1941) 6520 831 1430 2030 2200 3290 8290 9490 16200 22000
2021-03-28 00:30 9.08 10100 68100 (1904) 631 (1941) 6520 831 1430 2030 2200 3290 8290 9490 16200 22000
2021-03-28 00:00 9.09 10100 68100 (1904) 631 (1941) 6520 831 1430 2030 2200 3290 8290 9490 16200 22000
2021-03-27 23:30 9.07 10100 65500 (1904) 568 (1954) 6480 837 1500 1820 2240 3560 7380 8450 14300 23400
2021-03-27 23:00 9.01 9940 65500 (1904) 568 (1954) 6480 837 1500 1820 2240 3560 7380 8450 14300 23400
2021-03-27 22:30 8.97 9860 65500 (1904) 568 (1954) 6480 837 1500 1820 2240 3560 7380 8450 14300 23400
2021-03-27 22:00 8.97 9860 65500 (1904) 568 (1954) 6480 837 1500 1820 2240 3560 7380 8450 14300 23400
2021-03-27 21:30 8.89 9700 65500 (1904) 568 (1954) 6480 837 1500 1820 2240 3560 7380 8450 14300 23400
2021-03-27 21:00 8.91 9740 65500 (1904) 568 (1954) 6480 837 1500 1820 2240 3560 7380 8450 14300 23400
2021-03-27 20:30 8.80 9520 65500 (1904) 568 (1954) 6480 837 1500 1820 2240 3560 7380 8450 14300 23400
2021-03-27 20:00 8.79 9500 65500 (1904) 568 (1954) 6480 837 1500 1820 2240 3560 7380 8450 14300 23400
2021-03-27 19:30 8.74 9410 65500 (1904) 568 (1954) 6480 837 1500 1820 2240 3560 7380 8450 14300 23400
2021-03-27 19:00 8.70 9330 65500 (1904) 568 (1954) 6480 837 1500 1820 2240 3560 7380 8450 14300 23400
2021-03-27 18:30 8.64 9210 65500 (1904) 568 (1954) 6480 837 1500 1820 2240 3560 7380 8450 14300 23400
2021-03-27 18:00 8.60 9140 65500 (1904) 568 (1954) 6480 837 1500 1820 2240 3560 7380 8450 14300 23400
2021-03-27 17:30 8.57 9080 65500 (1904) 568 (1954) 6480 837 1500 1820 2240 3560 7380 8450 14300 23400
2021-03-27 17:00 8.52 8980 65500 (1904) 568 (1954) 6480 837 1500 1820 2240 3560 7380 8450 14300 23400
2021-03-27 16:30 8.48 8910 65500 (1904) 568 (1954) 6480 837 1500 1820 2240 3560 7380 8450 14300 23400
2021-03-27 16:00 8.46 8870 65500 (1904) 568 (1954) 6480 837 1500 1820 2240 3560 7380 8450 14300 23400
2021-03-27 15:30 8.39 8730 65500 (1904) 568 (1954) 6480 837 1500 1820 2240 3560 7380 8450 14300 23400
2021-03-27 15:00 8.33 8620 65500 (1904) 568 (1954) 6480 837 1500 1820 2240 3560 7380 8450 14300 23400
2021-03-27 14:30 8.27 8510 65500 (1904) 568 (1954) 6480 837 1500 1820 2240 3560 7380 8450 14300 23400
2021-03-27 14:00 8.24 8450 65500 (1904) 568 (1954) 6480 837 1500 1820 2240 3560 7380 8450 14300 23400
2021-03-27 13:30 8.14 8260 65500 (1904) 568 (1954) 6480 837 1500 1820 2240 3560 7380 8450 14300 23400
2021-03-27 13:00 8.12 8220 65500 (1904) 568 (1954) 6480 837 1500 1820 2240 3560 7380 8450 14300 23400
2021-03-27 12:30 8.03 8050 65500 (1904) 568 (1954) 6480 837 1500 1820 2240 3560 7380 8450 14300 23400
2021-03-27 12:00 8.04 8070 65500 (1904) 568 (1954) 6480 837 1500 1820 2240 3560 7380 8450 14300 23400
2021-03-27 11:30 7.95 7910 65500 (1904) 568 (1954) 6480 837 1500 1820 2240 3560 7380 8450 14300 23400
2021-03-27 11:00 7.92 7850 65500 (1904) 568 (1954) 6480 837 1500 1820 2240 3560 7380 8450 14300 23400
2021-03-27 10:30 7.87 7760 65500 (1904) 568 (1954) 6480 837 1500 1820 2240 3560 7380 8450 14300 23400
2021-03-27 10:00 7.84 7700 65500 (1904) 568 (1954) 6480 837 1500 1820 2240 3560 7380 8450 14300 23400
2021-03-27 09:30 7.78 7590 65500 (1904) 568 (1954) 6480 837 1500 1820 2240 3560 7380 8450 14300 23400
2021-03-27 09:00 7.75 7540 65500 (1904) 568 (1954) 6480 837 1500 1820 2240 3560 7380 8450 14300 23400
2021-03-27 08:30 7.70 7440 65500 (1904) 568 (1954) 6480 837 1500 1820 2240 3560 7380 8450 14300 23400
2021-03-27 08:00 7.65 7350 65500 (1904) 568 (1954) 6480 837 1500 1820 2240 3560 7380 8450 14300 23400
2021-03-27 07:30 7.59 7240 65500 (1904) 568 (1954) 6480 837 1500 1820 2240 3560 7380 8450 14300 23400
2021-03-27 07:00 7.53 7140 65500 (1904) 568 (1954) 6480 837 1500 1820 2240 3560 7380 8450 14300 23400
2021-03-27 06:30 7.47 7030 65500 (1904) 568 (1954) 6480 837 1500 1820 2240 3560 7380 8450 14300 23400
2021-03-27 06:00 7.42 6940 65500 (1904) 568 (1954) 6480 837 1500 1820 2240 3560 7380 8450 14300 23400
2021-03-27 05:30 7.38 6870 65500 (1904) 568 (1954) 6480 837 1500 1820 2240 3560 7380 8450 14300 23400
2021-03-27 05:00 7.31 6740 65500 (1904) 568 (1954) 6480 837 1500 1820 2240 3560 7380 8450 14300 23400
2021-03-27 04:30 7.23 6600 65500 (1904) 568 (1954) 6480 837 1500 1820 2240 3560 7380 8450 14300 23400
2021-03-27 04:00 7.18 6510 65500 (1904) 568 (1954) 6480 837 1500 1820 2240 3560 7380 8450 14300 23400
2021-03-27 03:30 7.12 6400 65500 (1904) 568 (1954) 6480 837 1500 1820 2240 3560 7380 8450 14300 23400
2021-03-27 03:00 7.08 6330 65500 (1904) 568 (1954) 6480 837 1500 1820 2240 3560 7380 8450 14300 23400
2021-03-27 02:30 7.02 6230 65500 (1904) 568 (1954) 6480 837 1500 1820 2240 3560 7380 8450 14300 23400
2021-03-27 02:00 6.96 6120 65500 (1904) 568 (1954) 6480 837 1500 1820 2240 3560 7380 8450 14300 23400
2021-03-27 01:30 6.93 6070 65500 (1904) 568 (1954) 6480 837 1500 1820 2240 3560 7380 8450 14300 23400
2021-03-27 01:00 6.88 5980 65500 (1904) 568 (1954) 6480 837 1500 1820 2240 3560 7380 8450 14300 23400
2021-03-27 00:30 6.85 5930 65500 (1904) 568 (1954) 6480 837 1500 1820 2240 3560 7380 8450 14300 23400
2021-03-27 00:00 6.80 5840 65500 (1904) 568 (1954) 6480 837 1500 1820 2240 3560 7380 8450 14300 23400
2021-03-26 23:30 6.77 5790 32800 (1958) 517 (1954) 5600 866 1540 1820 2160 3200 5700 6900 13200 21100
2021-03-26 23:00 6.76 5770 32800 (1958) 517 (1954) 5600 866 1540 1820 2160 3200 5700 6900 13200 21100
2021-03-26 22:30 6.73 5720 32800 (1958) 517 (1954) 5600 866 1540 1820 2160 3200 5700 6900 13200 21100
2021-03-26 22:00 6.69 5650 32800 (1958) 517 (1954) 5600 866 1540 1820 2160 3200 5700 6900 13200 21100
2021-03-26 21:30 6.67 5620 32800 (1958) 517 (1954) 5600 866 1540 1820 2160 3200 5700 6900 13200 21100
2021-03-26 21:00 6.65 5580 32800 (1958) 517 (1954) 5600 866 1540 1820 2160 3200 5700 6900 13200 21100
2021-03-26 20:30 6.63 5550 32800 (1958) 517 (1954) 5600 866 1540 1820 2160 3200 5700 6900 13200 21100
2021-03-26 20:00 6.63 5550 32800 (1958) 517 (1954) 5600 866 1540 1820 2160 3200 5700 6900 13200 21100
2021-03-26 19:30 6.63 5550 32800 (1958) 517 (1954) 5600 866 1540 1820 2160 3200 5700 6900 13200 21100
2021-03-26 19:00 6.63 5550 32800 (1958) 517 (1954) 5600 866 1540 1820 2160 3200 5700 6900 13200 21100
2021-03-26 18:30 6.61 5510 32800 (1958) 517 (1954) 5600 866 1540 1820 2160 3200 5700 6900 13200 21100
2021-03-26 18:00 6.61 5510 32800 (1958) 517 (1954) 5600 866 1540 1820 2160 3200 5700 6900 13200 21100
2021-03-26 17:30 6.61 5510 32800 (1958) 517 (1954) 5600 866 1540 1820 2160 3200 5700 6900 13200 21100
2021-03-26 17:00 6.63 5550 32800 (1958) 517 (1954) 5600 866 1540 1820 2160 3200 5700 6900 13200 21100
2021-03-26 16:30 6.61 5510 32800 (1958) 517 (1954) 5600 866 1540 1820 2160 3200 5700 6900 13200 21100
2021-03-26 16:00 6.62 5530 32800 (1958) 517 (1954) 5600 866 1540 1820 2160 3200 5700 6900 13200 21100
2021-03-26 15:30 6.63 5550 32800 (1958) 517 (1954) 5600 866 1540 1820 2160 3200 5700 6900 13200 21100
2021-03-26 15:00 6.62 5530 32800 (1958) 517 (1954) 5600 866 1540 1820 2160 3200 5700 6900 13200 21100
2021-03-26 14:30 6.62 5530 32800 (1958) 517 (1954) 5600 866 1540 1820 2160 3200 5700 6900 13200 21100
2021-03-26 14:00 6.62 5530 32800 (1958) 517 (1954) 5600 866 1540 1820 2160 3200 5700 6900 13200 21100
2021-03-26 13:30 6.60 5500 32800 (1958) 517 (1954) 5600 866 1540 1820 2160 3200 5700 6900 13200 21100
2021-03-26 13:00 6.62 5530 32800 (1958) 517 (1954) 5600 866 1540 1820 2160 3200 5700 6900 13200 21100
2021-03-26 12:30 6.60 5500 32800 (1958) 517 (1954) 5600 866 1540 1820 2160 3200 5700 6900 13200 21100
2021-03-26 12:00 6.59 5480 32800 (1958) 517 (1954) 5600 866 1540 1820 2160 3200 5700 6900 13200 21100
2021-03-26 11:30 6.60 5500 32800 (1958) 517 (1954) 5600 866 1540 1820 2160 3200 5700 6900 13200 21100
2021-03-26 11:00 6.57 5450 32800 (1958) 517 (1954) 5600 866 1540 1820 2160 3200 5700 6900 13200 21100
2021-03-26 10:30 6.57 5450 32800 (1958) 517 (1954) 5600 866 1540 1820 2160 3200 5700 6900 13200 21100
2021-03-26 10:00 6.55 5410 32800 (1958) 517 (1954) 5600 866 1540 1820 2160 3200 5700 6900 13200 21100
2021-03-26 09:30 6.54 5390 32800 (1958) 517 (1954) 5600 866 1540 1820 2160 3200 5700 6900 13200 21100
2021-03-26 09:00 6.54 5390 32800 (1958) 517 (1954) 5600 866 1540 1820 2160 3200 5700 6900 13200 21100
2021-03-26 08:30 6.50 5330 32800 (1958) 517 (1954) 5600 866 1540 1820 2160 3200 5700 6900 13200 21100
2021-03-26 08:00 6.49 5310 32800 (1958) 517 (1954) 5600 866 1540 1820 2160 3200 5700 6900 13200 21100
2021-03-26 07:30 6.48 5290 32800 (1958) 517 (1954) 5600 866 1540 1820 2160 3200 5700 6900 13200 21100
2021-03-26 07:00 6.46 5260 32800 (1958) 517 (1954) 5600 866 1540 1820 2160 3200 5700 6900 13200 21100
2021-03-26 06:30 6.47 5280 32800 (1958) 517 (1954) 5600 866 1540 1820 2160 3200 5700 6900 13200 21100
2021-03-26 06:00 6.46 5260 32800 (1958) 517 (1954) 5600 866 1540 1820 2160 3200 5700 6900 13200 21100
2021-03-26 05:30 6.44 5220 32800 (1958) 517 (1954) 5600 866 1540 1820 2160 3200 5700 6900 13200 21100
2021-03-26 05:00 6.43 5210 32800 (1958) 517 (1954) 5600 866 1540 1820 2160 3200 5700 6900 13200 21100
2021-03-26 04:30 6.42 5190 32800 (1958) 517 (1954) 5600 866 1540 1820 2160 3200 5700 6900 13200 21100
2021-03-26 04:00 6.39 5140 32800 (1958) 517 (1954) 5600 866 1540 1820 2160 3200 5700 6900 13200 21100
2021-03-26 03:30 6.39 5140 32800 (1958) 517 (1954) 5600 866 1540 1820 2160 3200 5700 6900 13200 21100
2021-03-26 03:00 6.36 5090 32800 (1958) 517 (1954) 5600 866 1540 1820 2160 3200 5700 6900 13200 21100
2021-03-26 02:30 6.36 5090 32800 (1958) 517 (1954) 5600 866 1540 1820 2160 3200 5700 6900 13200 21100
2021-03-26 02:00 6.35 5070 32800 (1958) 517 (1954) 5600 866 1540 1820 2160 3200 5700 6900 13200 21100
2021-03-26 01:30 6.33 5040 32800 (1958) 517 (1954) 5600 866 1540 1820 2160 3200 5700 6900 13200 21100
2021-03-26 01:00 6.30 4990 32800 (1958) 517 (1954) 5600 866 1540 1820 2160 3200 5700 6900 13200 21100
2021-03-26 00:30 6.31 5010 32800 (1958) 517 (1954) 5600 866 1540 1820 2160 3200 5700 6900 13200 21100
2021-03-26 00:00 6.28 4960 32800 (1958) 517 (1954) 5600 866 1540 1820 2160 3200 5700 6900 13200 21100
2021-03-25 23:30 6.30 4990 24900 (1978) 500 (1954) 4840 889 1520 1900 2070 3280 6090 6610 10700 15100
2021-03-25 23:00 6.28 4960 24900 (1978) 500 (1954) 4840 889 1520 1900 2070 3280 6090 6610 10700 15100
2021-03-25 22:30 6.30 4990 24900 (1978) 500 (1954) 4840 889 1520 1900 2070 3280 6090 6610 10700 15100
2021-03-25 22:00 6.24 4890 24900 (1978) 500 (1954) 4840 889 1520 1900 2070 3280 6090 6610 10700 15100
2021-03-25 21:30 6.25 4910 24900 (1978) 500 (1954) 4840 889 1520 1900 2070 3280 6090 6610 10700 15100
2021-03-25 21:00 6.22 4860 24900 (1978) 500 (1954) 4840 889 1520 1900 2070 3280 6090 6610 10700 15100
2021-03-25 20:30 6.24 4890 24900 (1978) 500 (1954) 4840 889 1520 1900 2070 3280 6090 6610 10700 15100
2021-03-25 20:00 6.23 4870 24900 (1978) 500 (1954) 4840 889 1520 1900 2070 3280 6090 6610 10700 15100
2021-03-25 19:30 6.23 4870 24900 (1978) 500 (1954) 4840 889 1520 1900 2070 3280 6090 6610 10700 15100
2021-03-25 19:00 6.23 4870 24900 (1978) 500 (1954) 4840 889 1520 1900 2070 3280 6090 6610 10700 15100
2021-03-25 18:30 6.22 4860 24900 (1978) 500 (1954) 4840 889 1520 1900 2070 3280 6090 6610 10700 15100
2021-03-25 18:00 6.22 4860 24900 (1978) 500 (1954) 4840 889 1520 1900 2070 3280 6090 6610 10700 15100
2021-03-25 17:30 6.22 4860 24900 (1978) 500 (1954) 4840 889 1520 1900 2070 3280 6090 6610 10700 15100
2021-03-25 17:00 6.21 4840 24900 (1978) 500 (1954) 4840 889 1520 1900 2070 3280 6090 6610 10700 15100
2021-03-25 16:30 6.23 4870 24900 (1978) 500 (1954) 4840 889 1520 1900 2070 3280 6090 6610 10700 15100
2021-03-25 16:00 6.21 4840 24900 (1978) 500 (1954) 4840 889 1520 1900 2070 3280 6090 6610 10700 15100
2021-03-25 15:30 6.24 4890 24900 (1978) 500 (1954) 4840 889 1520 1900 2070 3280 6090 6610 10700 15100
2021-03-25 15:00 6.24 4890 24900 (1978) 500 (1954) 4840 889 1520 1900 2070 3280 6090 6610 10700 15100
2021-03-25 14:30 6.24 4890 24900 (1978) 500 (1954) 4840 889 1520 1900 2070 3280 6090 6610 10700 15100
2021-03-25 14:00 6.26 4920 24900 (1978) 500 (1954) 4840 889 1520 1900 2070 3280 6090 6610 10700 15100
2021-03-25 13:30 6.27 4940 24900 (1978) 500 (1954) 4840 889 1520 1900 2070 3280 6090 6610 10700 15100
2021-03-25 13:00 6.27 4940 24900 (1978) 500 (1954) 4840 889 1520 1900 2070 3280 6090 6610 10700 15100
2021-03-25 12:30 6.28 4960 24900 (1978) 500 (1954) 4840 889 1520 1900 2070 3280 6090 6610 10700 15100
2021-03-25 12:00 6.29 4970 24900 (1978) 500 (1954) 4840 889 1520 1900 2070 3280 6090 6610 10700 15100
2021-03-25 11:30 6.28 4960 24900 (1978) 500 (1954) 4840 889 1520 1900 2070 3280 6090 6610 10700 15100
2021-03-25 11:00 6.30 4990 24900 (1978) 500 (1954) 4840 889 1520 1900 2070 3280 6090 6610 10700 15100
2021-03-25 10:30 6.32 5020 24900 (1978) 500 (1954) 4840 889 1520 1900 2070 3280 6090 6610 10700 15100
2021-03-25 10:00 6.32 5020 24900 (1978) 500 (1954) 4840 889 1520 1900 2070 3280 6090 6610 10700 15100
2021-03-25 09:30 6.33 5040 24900 (1978) 500 (1954) 4840 889 1520 1900 2070 3280 6090 6610 10700 15100
2021-03-25 09:00 6.34 5060 24900 (1978) 500 (1954) 4840 889 1520 1900 2070 3280 6090 6610 10700 15100
2021-03-25 08:30 6.33 5040 24900 (1978) 500 (1954) 4840 889 1520 1900 2070 3280 6090 6610 10700 15100
2021-03-25 08:00 6.35 5070 24900 (1978) 500 (1954) 4840 889 1520 1900 2070 3280 6090 6610 10700 15100
2021-03-25 07:30 6.37 5110 24900 (1978) 500 (1954) 4840 889 1520 1900 2070 3280 6090 6610 10700 15100
2021-03-25 07:00 6.37 5110 24900 (1978) 500 (1954) 4840 889 1520 1900 2070 3280 6090 6610 10700 15100
2021-03-25 06:30 6.37 5110 24900 (1978) 500 (1954) 4840 889 1520 1900 2070 3280 6090 6610 10700 15100
2021-03-25 06:00 6.39 5140 24900 (1978) 500 (1954) 4840 889 1520 1900 2070 3280 6090 6610 10700 15100
2021-03-25 05:30 6.40 5160 24900 (1978) 500 (1954) 4840 889 1520 1900 2070 3280 6090 6610 10700 15100
2021-03-25 05:00 6.40 5160 24900 (1978) 500 (1954) 4840 889 1520 1900 2070 3280 6090 6610 10700 15100
2021-03-25 04:30 6.40 5160 24900 (1978) 500 (1954) 4840 889 1520 1900 2070 3280 6090 6610 10700 15100
2021-03-25 04:00 6.40 5160 24900 (1978) 500 (1954) 4840 889 1520 1900 2070 3280 6090 6610 10700 15100
2021-03-25 03:30 6.42 5190 24900 (1978) 500 (1954) 4840 889 1520 1900 2070 3280 6090 6610 10700 15100
2021-03-25 03:00 6.41 5170 24900 (1978) 500 (1954) 4840 889 1520 1900 2070 3280 6090 6610 10700 15100
2021-03-25 02:30 6.45 5240 24900 (1978) 500 (1954) 4840 889 1520 1900 2070 3280 6090 6610 10700 15100
2021-03-25 02:00 6.45 5240 24900 (1978) 500 (1954) 4840 889 1520 1900 2070 3280 6090 6610 10700 15100
2021-03-25 01:30 6.45 5240 24900 (1978) 500 (1954) 4840 889 1520 1900 2070 3280 6090 6610 10700 15100
2021-03-25 01:00 6.45 5240 24900 (1978) 500 (1954) 4840 889 1520 1900 2070 3280 6090 6610 10700 15100
2021-03-25 00:30 6.49 5310 24900 (1978) 500 (1954) 4840 889 1520 1900 2070 3280 6090 6610 10700 15100
2021-03-25 00:00 6.50 5330 24900 (1978) 500 (1954) 4840 889 1520 1900 2070 3280 6090 6610 10700 15100
2021-03-24 23:30 5330 31300 (1962) 492 (1954) 5080 851 1440 1880 2020 3340 6010 7540 9810 17900
2021-03-24 23:00 6.51 5340 31300 (1962) 492 (1954) 5080 851 1440 1880 2020 3340 6010 7540 9810 17900
2021-03-24 22:30 6.53 5380 31300 (1962) 492 (1954) 5080 851 1440 1880 2020 3340 6010 7540 9810 17900
2021-03-24 22:00 6.53 5380 31300 (1962) 492 (1954) 5080 851 1440 1880 2020 3340 6010 7540 9810 17900
2021-03-24 21:30 6.55 5410 31300 (1962) 492 (1954) 5080 851 1440 1880 2020 3340 6010 7540 9810 17900
2021-03-24 21:00 6.53 5380 31300 (1962) 492 (1954) 5080 851 1440 1880 2020 3340 6010 7540 9810 17900
2021-03-24 20:30 6.58 5460 31300 (1962) 492 (1954) 5080 851 1440 1880 2020 3340 6010 7540 9810 17900
2021-03-24 20:00 6.54 5390 31300 (1962) 492 (1954) 5080 851 1440 1880 2020 3340 6010 7540 9810 17900
2021-03-24 19:30 6.59 5480 31300 (1962) 492 (1954) 5080 851 1440 1880 2020 3340 6010 7540 9810 17900
2021-03-24 19:00 6.60 5500 31300 (1962) 492 (1954) 5080 851 1440 1880 2020 3340 6010 7540 9810 17900
2021-03-24 18:30 6.61 5510 31300 (1962) 492 (1954) 5080 851 1440 1880 2020 3340 6010 7540 9810 17900
2021-03-24 18:00 6.62 5530 31300 (1962) 492 (1954) 5080 851 1440 1880 2020 3340 6010 7540 9810 17900
2021-03-24 17:30 6.65 5580 31300 (1962) 492 (1954) 5080 851 1440 1880 2020 3340 6010 7540 9810 17900
2021-03-24 17:00 6.67 5620 31300 (1962) 492 (1954) 5080 851 1440 1880 2020 3340 6010 7540 9810 17900
2021-03-24 16:30 6.67 5620 31300 (1962) 492 (1954) 5080 851 1440 1880 2020 3340 6010 7540 9810 17900
2021-03-24 16:00 6.67 5620 31300 (1962) 492 (1954) 5080 851 1440 1880 2020 3340 6010 7540 9810 17900
2021-03-24 15:30 6.69 5650 31300 (1962) 492 (1954) 5080 851 1440 1880 2020 3340 6010 7540 9810 17900
2021-03-24 15:00 6.69 5650 31300 (1962) 492 (1954) 5080 851 1440 1880 2020 3340 6010 7540 9810 17900
2021-03-24 14:30 6.72 5700 31300 (1962) 492 (1954) 5080 851 1440 1880 2020 3340 6010 7540 9810 17900
2021-03-24 14:00 6.71 5690 31300 (1962) 492 (1954) 5080 851 1440 1880 2020 3340 6010 7540 9810 17900
2021-03-24 13:30 6.74 5740 31300 (1962) 492 (1954) 5080 851 1440 1880 2020 3340 6010 7540 9810 17900
2021-03-24 13:00 6.73 5720 31300 (1962) 492 (1954) 5080 851 1440 1880 2020 3340 6010 7540 9810 17900
2021-03-24 12:30 6.76 5770 31300 (1962) 492 (1954) 5080 851 1440 1880 2020 3340 6010 7540 9810 17900
2021-03-24 12:00 6.75 5760 31300 (1962) 492 (1954) 5080 851 1440 1880 2020 3340 6010 7540 9810 17900
2021-03-24 11:30 6.76 5770 31300 (1962) 492 (1954) 5080 851 1440 1880 2020 3340 6010 7540 9810 17900
2021-03-24 11:00 6.78 5810 31300 (1962) 492 (1954) 5080 851 1440 1880 2020 3340 6010 7540 9810 17900
2021-03-24 10:30 6.78 5810 31300 (1962) 492 (1954) 5080 851 1440 1880 2020 3340 6010 7540 9810 17900
2021-03-24 10:00 6.80 5840 31300 (1962) 492 (1954) 5080 851 1440 1880 2020 3340 6010 7540 9810 17900
2021-03-24 09:30 6.82 5880 31300 (1962) 492 (1954) 5080 851 1440 1880 2020 3340 6010 7540 9810 17900
2021-03-24 09:00 6.84 5910 31300 (1962) 492 (1954) 5080 851 1440 1880 2020 3340 6010 7540 9810 17900
2021-03-24 08:30 6.85 5930 31300 (1962) 492 (1954) 5080 851 1440 1880 2020 3340 6010 7540 9810 17900
2021-03-24 08:00 6.87 5970 31300 (1962) 492 (1954) 5080 851 1440 1880 2020 3340 6010 7540 9810 17900
2021-03-24 07:30 6.86 5950 31300 (1962) 492 (1954) 5080 851 1440 1880 2020 3340 6010 7540 9810 17900
2021-03-24 07:00 6.88 5980 31300 (1962) 492 (1954) 5080 851 1440 1880 2020 3340 6010 7540 9810 17900
2021-03-24 06:30 6.90 6020 31300 (1962) 492 (1954) 5080 851 1440 1880 2020 3340 6010 7540 9810 17900
2021-03-24 06:00 6.93 6070 31300 (1962) 492 (1954) 5080 851 1440 1880 2020 3340 6010 7540 9810 17900
2021-03-24 05:30 6.92 6050 31300 (1962) 492 (1954) 5080 851 1440 1880 2020 3340 6010 7540 9810 17900
2021-03-24 05:00 6.95 6110 31300 (1962) 492 (1954) 5080 851 1440 1880 2020 3340 6010 7540 9810 17900
2021-03-24 04:30 6.95 6110 31300 (1962) 492 (1954) 5080 851 1440 1880 2020 3340 6010 7540 9810 17900
2021-03-24 04:00 6.97 6140 31300 (1962) 492 (1954) 5080 851 1440 1880 2020 3340 6010 7540 9810 17900
2021-03-24 03:30 6.99 6180 31300 (1962) 492 (1954) 5080 851 1440 1880 2020 3340 6010 7540 9810 17900
2021-03-24 03:00 6.98 6160 31300 (1962) 492 (1954) 5080 851 1440 1880 2020 3340 6010 7540 9810 17900
2021-03-24 02:30 7.01 6210 31300 (1962) 492 (1954) 5080 851 1440 1880 2020 3340 6010 7540 9810 17900
2021-03-24 02:00 7.03 6250 31300 (1962) 492 (1954) 5080 851 1440 1880 2020 3340 6010 7540 9810 17900
2021-03-24 01:30 7.04 6260 31300 (1962) 492 (1954) 5080 851 1440 1880 2020 3340 6010 7540 9810 17900
2021-03-24 01:00 7.06 6300 31300 (1962) 492 (1954) 5080 851 1440 1880 2020 3340 6010 7540 9810 17900
2021-03-24 00:30 7.07 6320 31300 (1962) 492 (1954) 5080 851 1440 1880 2020 3340 6010 7540 9810 17900
2021-03-24 00:00 7.09 6350 31300 (1962) 492 (1954) 5080 851 1440 1880 2020 3340 6010 7540 9810 17900
2021-03-23 23:30 7.10 6370 70900 (2008) 484 (1954) 6240 834 1340 1950 2120 3550 6590 7590 13000 21100
2021-03-23 23:00 7.09 6350 70900 (2008) 484 (1954) 6240 834 1340 1950 2120 3550 6590 7590 13000 21100
2021-03-23 22:30 7.12 6400 70900 (2008) 484 (1954) 6240 834 1340 1950 2120 3550 6590 7590 13000 21100
2021-03-23 22:00 7.15 6460 70900 (2008) 484 (1954) 6240 834 1340 1950 2120 3550 6590 7590 13000 21100
2021-03-23 21:30 7.16 6470 70900 (2008) 484 (1954) 6240 834 1340 1950 2120 3550 6590 7590 13000 21100
2021-03-23 21:00 7.15 6460 70900 (2008) 484 (1954) 6240 834 1340 1950 2120 3550 6590 7590 13000 21100
2021-03-23 20:30 7.16 6470 70900 (2008) 484 (1954) 6240 834 1340 1950 2120 3550 6590 7590 13000 21100
2021-03-23 20:00 7.18 6510 70900 (2008) 484 (1954) 6240 834 1340 1950 2120 3550 6590 7590 13000 21100
2021-03-23 19:30 7.19 6530 70900 (2008) 484 (1954) 6240 834 1340 1950 2120 3550 6590 7590 13000 21100
2021-03-23 19:00 7.20 6550 70900 (2008) 484 (1954) 6240 834 1340 1950 2120 3550 6590 7590 13000 21100
2021-03-23 18:30 7.24 6620 70900 (2008) 484 (1954) 6240 834 1340 1950 2120 3550 6590 7590 13000 21100
2021-03-23 18:00 7.24 6620 70900 (2008) 484 (1954) 6240 834 1340 1950 2120 3550 6590 7590 13000 21100
2021-03-23 17:30 7.25 6630 70900 (2008) 484 (1954) 6240 834 1340 1950 2120 3550 6590 7590 13000 21100
2021-03-23 17:00 7.29 6700 70900 (2008) 484 (1954) 6240 834 1340 1950 2120 3550 6590 7590 13000 21100
2021-03-23 16:30 7.31 6740 70900 (2008) 484 (1954) 6240 834 1340 1950 2120 3550 6590 7590 13000 21100
2021-03-23 16:00 7.30 6720 70900 (2008) 484 (1954) 6240 834 1340 1950 2120 3550 6590 7590 13000 21100
2021-03-23 15:30 7.33 6780 70900 (2008) 484 (1954) 6240 834 1340 1950 2120 3550 6590 7590 13000 21100
2021-03-23 15:00 7.35 6810 70900 (2008) 484 (1954) 6240 834 1340 1950 2120 3550 6590 7590 13000 21100
2021-03-23 14:30 7.37 6850 70900 (2008) 484 (1954) 6240 834 1340 1950 2120 3550 6590 7590 13000 21100
2021-03-23 14:00 7.37 6850 70900 (2008) 484 (1954) 6240 834 1340 1950 2120 3550 6590 7590 13000 21100
2021-03-23 13:30 7.39 6880 70900 (2008) 484 (1954) 6240 834 1340 1950 2120 3550 6590 7590 13000 21100
2021-03-23 13:00 7.41 6920 70900 (2008) 484 (1954) 6240 834 1340 1950 2120 3550 6590 7590 13000 21100
2021-03-23 12:30 7.42 6940 70900 (2008) 484 (1954) 6240 834 1340 1950 2120 3550 6590 7590 13000 21100
2021-03-23 12:00 7.47 7030 70900 (2008) 484 (1954) 6240 834 1340 1950 2120 3550 6590 7590 13000 21100
2021-03-23 11:30 7.48 7050 70900 (2008) 484 (1954) 6240 834 1340 1950 2120 3550 6590 7590 13000 21100
2021-03-23 11:00 7.49 7060 70900 (2008) 484 (1954) 6240 834 1340 1950 2120 3550 6590 7590 13000 21100
2021-03-23 10:30 7.51 7100 70900 (2008) 484 (1954) 6240 834 1340 1950 2120 3550 6590 7590 13000 21100
2021-03-23 10:00 7.54 7150 70900 (2008) 484 (1954) 6240 834 1340 1950 2120 3550 6590 7590 13000 21100
2021-03-23 09:30 7.55 7170 70900 (2008) 484 (1954) 6240 834 1340 1950 2120 3550 6590 7590 13000 21100
2021-03-23 09:00 7.58 7230 70900 (2008) 484 (1954) 6240 834 1340 1950 2120 3550 6590 7590 13000 21100
2021-03-23 08:30 7.60 7260 70900 (2008) 484 (1954) 6240 834 1340 1950 2120 3550 6590 7590 13000 21100
2021-03-23 08:00 7.61 7280 70900 (2008) 484 (1954) 6240 834 1340 1950 2120 3550 6590 7590 13000 21100
2021-03-23 07:30 7.62 7300 70900 (2008) 484 (1954) 6240 834 1340 1950 2120 3550 6590 7590 13000 21100
2021-03-23 07:00 7.67 7390 70900 (2008) 484 (1954) 6240 834 1340 1950 2120 3550 6590 7590 13000 21100
2021-03-23 06:30 7.68 7410 70900 (2008) 484 (1954) 6240 834 1340 1950 2120 3550 6590 7590 13000 21100
2021-03-23 06:00 7.69 7430 70900 (2008) 484 (1954) 6240 834 1340 1950 2120 3550 6590 7590 13000 21100
2021-03-23 05:30 7.70 7440 70900 (2008) 484 (1954) 6240 834 1340 1950 2120 3550 6590 7590 13000 21100
2021-03-23 05:00 7.74 7520 70900 (2008) 484 (1954) 6240 834 1340 1950 2120 3550 6590 7590 13000 21100
2021-03-23 04:30 7.75 7540 70900 (2008) 484 (1954) 6240 834 1340 1950 2120 3550 6590 7590 13000 21100
2021-03-23 04:00 7.79 7610 70900 (2008) 484 (1954) 6240 834 1340 1950 2120 3550 6590 7590 13000 21100
2021-03-23 03:30 7.80 7630 70900 (2008) 484 (1954) 6240 834 1340 1950 2120 3550 6590 7590 13000 21100
2021-03-23 03:00 7.81 7650 70900 (2008) 484 (1954) 6240 834 1340 1950 2120 3550 6590 7590 13000 21100
2021-03-23 02:30 7.84 7700 70900 (2008) 484 (1954) 6240 834 1340 1950 2120 3550 6590 7590 13000 21100
2021-03-23 02:00 7.87 7760 70900 (2008) 484 (1954) 6240 834 1340 1950 2120 3550 6590 7590 13000 21100
2021-03-23 01:30 7.89 7790 70900 (2008) 484 (1954) 6240 834 1340 1950 2120 3550 6590 7590 13000 21100
2021-03-23 01:00 7.92 7850 70900 (2008) 484 (1954) 6240 834 1340 1950 2120 3550 6590 7590 13000 21100
2021-03-23 00:30 7.94 7890 70900 (2008) 484 (1954) 6240 834 1340 1950 2120 3550 6590 7590 13000 21100
2021-03-23 00:00 7.97 7940 70900 (2008) 484 (1954) 6240 834 1340 1950 2120 3550 6590 7590 13000 21100
2021-03-22 23:30 7.99 7980 112000 (2008) 484 (1954) 7090 853 1340 2020 2230 3670 6410 8320 14400 23900
2021-03-22 23:00 8.03 8050 112000 (2008) 484 (1954) 7090 853 1340 2020 2230 3670 6410 8320 14400 23900
2021-03-22 22:30 8.05 8090 112000 (2008) 484 (1954) 7090 853 1340 2020 2230 3670 6410 8320 14400 23900
2021-03-22 22:00 8.06 8110 112000 (2008) 484 (1954) 7090 853 1340 2020 2230 3670 6410 8320 14400 23900
2021-03-22 21:30 8.13 8240 112000 (2008) 484 (1954) 7090 853 1340 2020 2230 3670 6410 8320 14400 23900
2021-03-22 21:00 8.13 8240 112000 (2008) 484 (1954) 7090 853 1340 2020 2230 3670 6410 8320 14400 23900
2021-03-22 20:30 8.15 8280 112000 (2008) 484 (1954) 7090 853 1340 2020 2230 3670 6410 8320 14400 23900
2021-03-22 20:00 8.31 8580 112000 (2008) 484 (1954) 7090 853 1340 2020 2230 3670 6410 8320 14400 23900
2021-03-22 19:30 8.22 8410 112000 (2008) 484 (1954) 7090 853 1340 2020 2230 3670 6410 8320 14400 23900
2021-03-22 19:00 8.27 8510 112000 (2008) 484 (1954) 7090 853 1340 2020 2230 3670 6410 8320 14400 23900
2021-03-22 18:30 8.28 8520 112000 (2008) 484 (1954) 7090 853 1340 2020 2230 3670 6410 8320 14400 23900
2021-03-22 18:00 8.31 8580 112000 (2008) 484 (1954) 7090 853 1340 2020 2230 3670 6410 8320 14400 23900
2021-03-22 17:30 8.32 8600 112000 (2008) 484 (1954) 7090 853 1340 2020 2230 3670 6410 8320 14400 23900
2021-03-22 17:00 8.37 8700 112000 (2008) 484 (1954) 7090 853 1340 2020 2230 3670 6410 8320 14400 23900
2021-03-22 16:30 8.40 8750 112000 (2008) 484 (1954) 7090 853 1340 2020 2230 3670 6410 8320 14400 23900
2021-03-22 16:00 8.43 8810 112000 (2008) 484 (1954) 7090 853 1340 2020 2230 3670 6410 8320 14400 23900
2021-03-22 15:30 8.47 8890 112000 (2008) 484 (1954) 7090 853 1340 2020 2230 3670 6410 8320 14400 23900
2021-03-22 15:00 8.51 8960 112000 (2008) 484 (1954) 7090 853 1340 2020 2230 3670 6410 8320 14400 23900
2021-03-22 14:30 8.54 9020 112000 (2008) 484 (1954) 7090 853 1340 2020 2230 3670 6410 8320 14400 23900
2021-03-22 14:00 8.57 9080 112000 (2008) 484 (1954) 7090 853 1340 2020 2230 3670 6410 8320 14400 23900
2021-03-22 13:30 8.59 9120 112000 (2008) 484 (1954) 7090 853 1340 2020 2230 3670 6410 8320 14400 23900
2021-03-22 13:00 8.66 9250 112000 (2008) 484 (1954) 7090 853 1340 2020 2230 3670 6410 8320 14400 23900
2021-03-22 12:30 8.66 9250 112000 (2008) 484 (1954) 7090 853 1340 2020 2230 3670 6410 8320 14400 23900
2021-03-22 12:00 8.73 9390 112000 (2008) 484 (1954) 7090 853 1340 2020 2230 3670 6410 8320 14400 23900
2021-03-22 11:30 8.78 9490 112000 (2008) 484 (1954) 7090 853 1340 2020 2230 3670 6410 8320 14400 23900
2021-03-22 11:00 8.81 9540 112000 (2008) 484 (1954) 7090 853 1340 2020 2230 3670 6410 8320 14400 23900
2021-03-22 10:30 8.85 9620 112000 (2008) 484 (1954) 7090 853 1340 2020 2230 3670 6410 8320 14400 23900
2021-03-22 10:00 8.86 9640 112000 (2008) 484 (1954) 7090 853 1340 2020 2230 3670 6410 8320 14400 23900
2021-03-22 09:30 8.94 9800 112000 (2008) 484 (1954) 7090 853 1340 2020 2230 3670 6410 8320 14400 23900
2021-03-22 09:00 8.97 9860 112000 (2008) 484 (1954) 7090 853 1340 2020 2230 3670 6410 8320 14400 23900
2021-03-22 08:30 9.01 9940 112000 (2008) 484 (1954) 7090 853 1340 2020 2230 3670 6410 8320 14400 23900
2021-03-22 08:00 9.05 10000 112000 (2008) 484 (1954) 7090 853 1340 2020 2230 3670 6410 8320 14400 23900
2021-03-22 07:30 9.11 10100 112000 (2008) 484 (1954) 7090 853 1340 2020 2230 3670 6410 8320 14400 23900
2021-03-22 07:00 9.16 10200 112000 (2008) 484 (1954) 7090 853 1340 2020 2230 3670 6410 8320 14400 23900
2021-03-22 06:30 9.18 10300 112000 (2008) 484 (1954) 7090 853 1340 2020 2230 3670 6410 8320 14400 23900
2021-03-22 06:00 9.23 10400 112000 (2008) 484 (1954) 7090 853 1340 2020 2230 3670 6410 8320 14400 23900
2021-03-22 05:30 9.31 10500 112000 (2008) 484 (1954) 7090 853 1340 2020 2230 3670 6410 8320 14400 23900
2021-03-22 05:00 9.37 10700 112000 (2008) 484 (1954) 7090 853 1340 2020 2230 3670 6410 8320 14400 23900
2021-03-22 04:30 9.42 10800 112000 (2008) 484 (1954) 7090 853 1340 2020 2230 3670 6410 8320 14400 23900
2021-03-22 04:00 9.44 10800 112000 (2008) 484 (1954) 7090 853 1340 2020 2230 3670 6410 8320 14400 23900
2021-03-22 03:30 9.50 10900 112000 (2008) 484 (1954) 7090 853 1340 2020 2230 3670 6410 8320 14400 23900
2021-03-22 03:00 9.55 11000 112000 (2008) 484 (1954) 7090 853 1340 2020 2230 3670 6410 8320 14400 23900
2021-03-22 02:30 9.59 11100 112000 (2008) 484 (1954) 7090 853 1340 2020 2230 3670 6410 8320 14400 23900
2021-03-22 02:00 9.67 11300 112000 (2008) 484 (1954) 7090 853 1340 2020 2230 3670 6410 8320 14400 23900
2021-03-22 01:30 9.74 11400 112000 (2008) 484 (1954) 7090 853 1340 2020 2230 3670 6410 8320 14400 23900
2021-03-22 01:00 9.77 11500 112000 (2008) 484 (1954) 7090 853 1340 2020 2230 3670 6410 8320 14400 23900
2021-03-22 00:30 9.85 11600 112000 (2008) 484 (1954) 7090 853 1340 2020 2230 3670 6410 8320 14400 23900
2021-03-22 00:00 9.89 11700 112000 (2008) 484 (1954) 7090 853 1340 2020 2230 3670 6410 8320 14400 23900
2021-03-21 23:30 9.99 11900 115000 (2008) 468 (1954) 7150 902 1300 2090 2230 3570 6910 8040 14300 25500
2021-03-21 23:00 10.03 12000 115000 (2008) 468 (1954) 7150 902 1300 2090 2230 3570 6910 8040 14300 25500
2021-03-21 22:30 10.13 12200 115000 (2008) 468 (1954) 7150 902 1300 2090 2230 3570 6910 8040 14300 25500
2021-03-21 22:00 10.13 12200 115000 (2008) 468 (1954) 7150 902 1300 2090 2230 3570 6910 8040 14300 25500
2021-03-21 21:30 10.24 12400 115000 (2008) 468 (1954) 7150 902 1300 2090 2230 3570 6910 8040 14300 25500
2021-03-21 21:00 10.30 12600 115000 (2008) 468 (1954) 7150 902 1300 2090 2230 3570 6910 8040 14300 25500
2021-03-21 20:30 10.35 12700 115000 (2008) 468 (1954) 7150 902 1300 2090 2230 3570 6910 8040 14300 25500
2021-03-21 20:00 10.46 12900 115000 (2008) 468 (1954) 7150 902 1300 2090 2230 3570 6910 8040 14300 25500
2021-03-21 19:30 10.55 13100 115000 (2008) 468 (1954) 7150 902 1300 2090 2230 3570 6910 8040 14300 25500
2021-03-21 19:00 10.61 13200 115000 (2008) 468 (1954) 7150 902 1300 2090 2230 3570 6910 8040 14300 25500
2021-03-21 18:30 10.66 13300 115000 (2008) 468 (1954) 7150 902 1300 2090 2230 3570 6910 8040 14300 25500
2021-03-21 18:00 10.78 13600 115000 (2008) 468 (1954) 7150 902 1300 2090 2230 3570 6910 8040 14300 25500
2021-03-21 17:30 10.86 13700 115000 (2008) 468 (1954) 7150 902 1300 2090 2230 3570 6910 8040 14300 25500
2021-03-21 17:00 10.95 13900 115000 (2008) 468 (1954) 7150 902 1300 2090 2230 3570 6910 8040 14300 25500
2021-03-21 16:30 11.03 14100 115000 (2008) 468 (1954) 7150 902 1300 2090 2230 3570 6910 8040 14300 25500
2021-03-21 16:00 11.12 14300 115000 (2008) 468 (1954) 7150 902 1300 2090 2230 3570 6910 8040 14300 25500
2021-03-21 15:30 11.20 14500 115000 (2008) 468 (1954) 7150 902 1300 2090 2230 3570 6910 8040 14300 25500
2021-03-21 15:00 11.30 14700 115000 (2008) 468 (1954) 7150 902 1300 2090 2230 3570 6910 8040 14300 25500
2021-03-21 14:30 11.38 14900 115000 (2008) 468 (1954) 7150 902 1300 2090 2230 3570 6910 8040 14300 25500
2021-03-21 14:00 11.50 15100 115000 (2008) 468 (1954) 7150 902 1300 2090 2230 3570 6910 8040 14300 25500
2021-03-21 13:30 11.61 15400 115000 (2008) 468 (1954) 7150 902 1300 2090 2230 3570 6910 8040 14300 25500
2021-03-21 13:00 11.69 15600 115000 (2008) 468 (1954) 7150 902 1300 2090 2230 3570 6910 8040 14300 25500
2021-03-21 12:30 11.80 15800 115000 (2008) 468 (1954) 7150 902 1300 2090 2230 3570 6910 8040 14300 25500
2021-03-21 12:00 11.85 15900 115000 (2008) 468 (1954) 7150 902 1300 2090 2230 3570 6910 8040 14300 25500
2021-03-21 11:30 11.98 16200 115000 (2008) 468 (1954) 7150 902 1300 2090 2230 3570 6910 8040 14300 25500
2021-03-21 11:00 12.08 16400 115000 (2008) 468 (1954) 7150 902 1300 2090 2230 3570 6910 8040 14300 25500
2021-03-21 10:30 12.20 16700 115000 (2008) 468 (1954) 7150 902 1300 2090 2230 3570 6910 8040 14300 25500
2021-03-21 10:00 12.29 16900 115000 (2008) 468 (1954) 7150 902 1300 2090 2230 3570 6910 8040 14300 25500
2021-03-21 09:30 12.39 17100 115000 (2008) 468 (1954) 7150 902 1300 2090 2230 3570 6910 8040 14300 25500
2021-03-21 09:00 12.52 17400 115000 (2008) 468 (1954) 7150 902 1300 2090 2230 3570 6910 8040 14300 25500
2021-03-21 08:30 12.64 17700 115000 (2008) 468 (1954) 7150 902 1300 2090 2230 3570 6910 8040 14300 25500
2021-03-21 08:00 12.76 18000 115000 (2008) 468 (1954) 7150 902 1300 2090 2230 3570 6910 8040 14300 25500
2021-03-21 07:30 12.89 18300 115000 (2008) 468 (1954) 7150 902 1300 2090 2230 3570 6910 8040 14300 25500
2021-03-21 07:00 13.01 18600 115000 (2008) 468 (1954) 7150 902 1300 2090 2230 3570 6910 8040 14300 25500
2021-03-21 06:30 13.09 18700 115000 (2008) 468 (1954) 7150 902 1300 2090 2230 3570 6910 8040 14300 25500
2021-03-21 06:00 13.26 19100 115000 (2008) 468 (1954) 7150 902 1300 2090 2230 3570 6910 8040 14300 25500
2021-03-21 05:30 13.38 19400 115000 (2008) 468 (1954) 7150 902 1300 2090 2230 3570 6910 8040 14300 25500
2021-03-21 05:00 13.51 19700 115000 (2008) 468 (1954) 7150 902 1300 2090 2230 3570 6910 8040 14300 25500
2021-03-21 04:30 13.63 20000 115000 (2008) 468 (1954) 7150 902 1300 2090 2230 3570 6910 8040 14300 25500
2021-03-21 04:00 13.76 20300 115000 (2008) 468 (1954) 7150 902 1300 2090 2230 3570 6910 8040 14300 25500
2021-03-21 03:30 13.90 20600 115000 (2008) 468 (1954) 7150 902 1300 2090 2230 3570 6910 8040 14300 25500
2021-03-21 03:00 14.02 20900 115000 (2008) 468 (1954) 7150 902 1300 2090 2230 3570 6910 8040 14300 25500
2021-03-21 02:30 14.16 21300 115000 (2008) 468 (1954) 7150 902 1300 2090 2230 3570 6910 8040 14300 25500
2021-03-21 02:00 14.34 21700 115000 (2008) 468 (1954) 7150 902 1300 2090 2230 3570 6910 8040 14300 25500
2021-03-21 01:30 14.44 21900 115000 (2008) 468 (1954) 7150 902 1300 2090 2230 3570 6910 8040 14300 25500
2021-03-21 01:00 14.60 22300 115000 (2008) 468 (1954) 7150 902 1300 2090 2230 3570 6910 8040 14300 25500
2021-03-21 00:30 14.74 22700 115000 (2008) 468 (1954) 7150 902 1300 2090 2230 3570 6910 8040 14300 25500
2021-03-21 00:00 14.90 23100 115000 (2008) 468 (1954) 7150 902 1300 2090 2230 3570 6910 8040 14300 25500
2021-03-20 23:30 15.05 23400 71900 (2008) 460 (1954) 6200 900 1310 2120 2300 3480 6500 7240 11500 20200
2021-03-20 23:00 15.21 23800 71900 (2008) 460 (1954) 6200 900 1310 2120 2300 3480 6500 7240 11500 20200
2021-03-20 22:30 15.37 24200 71900 (2008) 460 (1954) 6200 900 1310 2120 2300 3480 6500 7240 11500 20200
2021-03-20 22:00 15.52 24600 71900 (2008) 460 (1954) 6200 900 1310 2120 2300 3480 6500 7240 11500 20200
2021-03-20 21:30 15.68 25000 71900 (2008) 460 (1954) 6200 900 1310 2120 2300 3480 6500 7240 11500 20200
2021-03-20 21:00 15.83 25400 71900 (2008) 460 (1954) 6200 900 1310 2120 2300 3480 6500 7240 11500 20200
2021-03-20 20:30 15.99 25800 71900 (2008) 460 (1954) 6200 900 1310 2120 2300 3480 6500 7240 11500 20200
2021-03-20 20:00 16.16 26200 71900 (2008) 460 (1954) 6200 900 1310 2120 2300 3480 6500 7240 11500 20200
2021-03-20 19:30 16.31 26600 71900 (2008) 460 (1954) 6200 900 1310 2120 2300 3480 6500 7240 11500 20200
2021-03-20 19:00 16.48 27000 71900 (2008) 460 (1954) 6200 900 1310 2120 2300 3480 6500 7240 11500 20200
2021-03-20 18:30 16.62 27400 71900 (2008) 460 (1954) 6200 900 1310 2120 2300 3480 6500 7240 11500 20200
2021-03-20 18:00 16.78 27800 71900 (2008) 460 (1954) 6200 900 1310 2120 2300 3480 6500 7240 11500 20200
2021-03-20 17:30 16.91 28100 71900 (2008) 460 (1954) 6200 900 1310 2120 2300 3480 6500 7240 11500 20200
2021-03-20 17:00 17.07 28500 71900 (2008) 460 (1954) 6200 900 1310 2120 2300 3480 6500 7240 11500 20200
2021-03-20 16:30 17.17 28800 71900 (2008) 460 (1954) 6200 900 1310 2120 2300 3480 6500 7240 11500 20200
2021-03-20 16:00 17.36 29300 71900 (2008) 460 (1954) 6200 900 1310 2120 2300 3480 6500 7240 11500 20200
2021-03-20 15:30 17.46 29600 71900 (2008) 460 (1954) 6200 900 1310 2120 2300 3480 6500 7240 11500 20200
2021-03-20 15:00 17.56 29800 71900 (2008) 460 (1954) 6200 900 1310 2120 2300 3480 6500 7240 11500 20200
2021-03-20 14:30 17.68 30100 71900 (2008) 460 (1954) 6200 900 1310 2120 2300 3480 6500 7240 11500 20200
2021-03-20 14:00 17.78 30400 71900 (2008) 460 (1954) 6200 900 1310 2120 2300 3480 6500 7240 11500 20200
2021-03-20 13:30 17.85 30600 71900 (2008) 460 (1954) 6200 900 1310 2120 2300 3480 6500 7240 11500 20200
2021-03-20 13:00 17.96 30900 71900 (2008) 460 (1954) 6200 900 1310 2120 2300 3480 6500 7240 11500 20200
2021-03-20 12:30 18.00 31000 71900 (2008) 460 (1954) 6200 900 1310 2120 2300 3480 6500 7240 11500 20200
2021-03-20 12:00 18.07 31200 71900 (2008) 460 (1954) 6200 900 1310 2120 2300 3480 6500 7240 11500 20200
2021-03-20 11:30 18.13 31300 71900 (2008) 460 (1954) 6200 900 1310 2120 2300 3480 6500 7240 11500 20200
2021-03-20 11:00 18.18 31500 71900 (2008) 460 (1954) 6200 900 1310 2120 2300 3480 6500 7240 11500 20200
2021-03-20 10:30 18.20 31500 71900 (2008) 460 (1954) 6200 900 1310 2120 2300 3480 6500 7240 11500 20200
2021-03-20 10:00 18.23 31600 71900 (2008) 460 (1954) 6200 900 1310 2120 2300 3480 6500 7240 11500 20200
2021-03-20 09:30 18.27 31700 71900 (2008) 460 (1954) 6200 900 1310 2120 2300 3480 6500 7240 11500 20200
2021-03-20 09:00 18.29 31700 71900 (2008) 460 (1954) 6200 900 1310 2120 2300 3480 6500 7240 11500 20200
2021-03-20 08:30 18.30 31800 71900 (2008) 460 (1954) 6200 900 1310 2120 2300 3480 6500 7240 11500 20200
2021-03-20 08:00 18.32 31800 71900 (2008) 460 (1954) 6200 900 1310 2120 2300 3480 6500 7240 11500 20200
2021-03-20 07:30 18.32 31800 71900 (2008) 460 (1954) 6200 900 1310 2120 2300 3480 6500 7240 11500 20200
2021-03-20 07:00 18.37 32000 71900 (2008) 460 (1954) 6200 900 1310 2120 2300 3480 6500 7240 11500 20200
2021-03-20 06:30 18.33 31900 71900 (2008) 460 (1954) 6200 900 1310 2120 2300 3480 6500 7240 11500 20200
2021-03-20 06:00 18.34 31900 71900 (2008) 460 (1954) 6200 900 1310 2120 2300 3480 6500 7240 11500 20200
2021-03-20 05:30 18.34 31900 71900 (2008) 460 (1954) 6200 900 1310 2120 2300 3480 6500 7240 11500 20200
2021-03-20 05:00 18.29 31700 71900 (2008) 460 (1954) 6200 900 1310 2120 2300 3480 6500 7240 11500 20200
2021-03-20 04:30 18.31 31800 71900 (2008) 460 (1954) 6200 900 1310 2120 2300 3480 6500 7240 11500 20200
2021-03-20 04:00 18.28 31700 71900 (2008) 460 (1954) 6200 900 1310 2120 2300 3480 6500 7240 11500 20200
2021-03-20 03:30 18.25 31600 71900 (2008) 460 (1954) 6200 900 1310 2120 2300 3480 6500 7240 11500 20200
2021-03-20 03:00 18.22 31600 71900 (2008) 460 (1954) 6200 900 1310 2120 2300 3480 6500 7240 11500 20200
2021-03-20 02:30 18.22 31600 71900 (2008) 460 (1954) 6200 900 1310 2120 2300 3480 6500 7240 11500 20200
2021-03-20 02:00 18.20 31500 71900 (2008) 460 (1954) 6200 900 1310 2120 2300 3480 6500 7240 11500 20200
2021-03-20 01:30 18.16 31400 71900 (2008) 460 (1954) 6200 900 1310 2120 2300 3480 6500 7240 11500 20200
2021-03-20 01:00 18.13 31300 71900 (2008) 460 (1954) 6200 900 1310 2120 2300 3480 6500 7240 11500 20200
2021-03-20 00:30 18.06 31100 71900 (2008) 460 (1954) 6200 900 1310 2120 2300 3480 6500 7240 11500 20200
2021-03-20 00:00 18.05 31100 71900 (2008) 460 (1954) 6200 900 1310 2120 2300 3480 6500 7240 11500 20200
2021-03-19 23:30 18.03 31100 40800 (2008) 460 (1954) 5360 881 1210 1820 2110 3150 6160 7230 11500 18200
2021-03-19 23:00 17.97 30900 40800 (2008) 460 (1954) 5360 881 1210 1820 2110 3150 6160 7230 11500 18200
2021-03-19 22:30 17.94 30800 40800 (2008) 460 (1954) 5360 881 1210 1820 2110 3150 6160 7230 11500 18200
2021-03-19 22:00 17.93 30800 40800 (2008) 460 (1954) 5360 881 1210 1820 2110 3150 6160 7230 11500 18200
2021-03-19 21:30 17.90 30700 40800 (2008) 460 (1954) 5360 881 1210 1820 2110 3150 6160 7230 11500 18200
2021-03-19 21:00 17.86 30600 40800 (2008) 460 (1954) 5360 881 1210 1820 2110 3150 6160 7230 11500 18200
2021-03-19 20:30 17.80 30500 40800 (2008) 460 (1954) 5360 881 1210 1820 2110 3150 6160 7230 11500 18200
2021-03-19 20:00 17.76 30300 40800 (2008) 460 (1954) 5360 881 1210 1820 2110 3150 6160 7230 11500 18200
2021-03-19 19:30 17.74 30300 40800 (2008) 460 (1954) 5360 881 1210 1820 2110 3150 6160 7230 11500 18200
2021-03-19 19:00 17.67 30100 40800 (2008) 460 (1954) 5360 881 1210 1820 2110 3150 6160 7230 11500 18200
2021-03-19 18:30 17.66 30100 40800 (2008) 460 (1954) 5360 881 1210 1820 2110 3150 6160 7230 11500 18200
2021-03-19 18:00 17.61 30000 40800 (2008) 460 (1954) 5360 881 1210 1820 2110 3150 6160 7230 11500 18200
2021-03-19 17:30 17.56 29800 40800 (2008) 460 (1954) 5360 881 1210 1820 2110 3150 6160 7230 11500 18200
2021-03-19 17:00 17.50 29700 40800 (2008) 460 (1954) 5360 881 1210 1820 2110 3150 6160 7230 11500 18200
2021-03-19 16:30 17.46 29600 40800 (2008) 460 (1954) 5360 881 1210 1820 2110 3150 6160 7230 11500 18200
2021-03-19 16:00 17.40 29400 40800 (2008) 460 (1954) 5360 881 1210 1820 2110 3150 6160 7230 11500 18200
2021-03-19 15:30 17.38 29300 40800 (2008) 460 (1954) 5360 881 1210 1820 2110 3150 6160 7230 11500 18200
2021-03-19 15:00 17.31 29200 40800 (2008) 460 (1954) 5360 881 1210 1820 2110 3150 6160 7230 11500 18200
2021-03-19 14:30 17.26 29000 40800 (2008) 460 (1954) 5360 881 1210 1820 2110 3150 6160 7230 11500 18200
2021-03-19 14:00 17.19 28900 40800 (2008) 460 (1954) 5360 881 1210 1820 2110 3150 6160 7230 11500 18200
2021-03-19 13:30 17.15 28700 40800 (2008) 460 (1954) 5360 881 1210 1820 2110 3150 6160 7230 11500 18200
2021-03-19 13:00 17.08 28600 40800 (2008) 460 (1954) 5360 881 1210 1820 2110 3150 6160 7230 11500 18200
2021-03-19 12:30 17.02 28400 40800 (2008) 460 (1954) 5360 881 1210 1820 2110 3150 6160 7230 11500 18200
2021-03-19 12:00 16.95 28200 40800 (2008) 460 (1954) 5360 881 1210 1820 2110 3150 6160 7230 11500 18200
2021-03-19 11:30 16.87 28000 40800 (2008) 460 (1954) 5360 881 1210 1820 2110 3150 6160 7230 11500 18200
2021-03-19 11:00 16.81 27900 40800 (2008) 460 (1954) 5360 881 1210 1820 2110 3150 6160 7230 11500 18200
2021-03-19 10:30 16.73 27700 40800 (2008) 460 (1954) 5360 881 1210 1820 2110 3150 6160 7230 11500 18200
2021-03-19 10:00 16.65 27500 40800 (2008) 460 (1954) 5360 881 1210 1820 2110 3150 6160 7230 11500 18200
2021-03-19 09:30 16.56 27200 40800 (2008) 460 (1954) 5360 881 1210 1820 2110 3150 6160 7230 11500 18200
2021-03-19 09:00 16.49 27000 40800 (2008) 460 (1954) 5360 881 1210 1820 2110 3150 6160 7230 11500 18200
2021-03-19 08:30 16.40 26800 40800 (2008) 460 (1954) 5360 881 1210 1820 2110 3150 6160 7230 11500 18200
2021-03-19 08:00 16.34 26700 40800 (2008) 460 (1954) 5360 881 1210 1820 2110 3150 6160 7230 11500 18200
2021-03-19 07:30 16.26 26500 40800 (2008) 460 (1954) 5360 881 1210 1820 2110 3150 6160 7230 11500 18200
2021-03-19 07:00 16.12 26100 40800 (2008) 460 (1954) 5360 881 1210 1820 2110 3150 6160 7230 11500 18200
2021-03-19 06:30 16.06 26000 40800 (2008) 460 (1954) 5360 881 1210 1820 2110 3150 6160 7230 11500 18200
2021-03-19 06:00 15.96 25700 40800 (2008) 460 (1954) 5360 881 1210 1820 2110 3150 6160 7230 11500 18200
2021-03-19 05:30 15.91 25600 40800 (2008) 460 (1954) 5360 881 1210 1820 2110 3150 6160 7230 11500 18200
2021-03-19 05:00 15.78 25200 40800 (2008) 460 (1954) 5360 881 1210 1820 2110 3150 6160 7230 11500 18200
2021-03-19 04:30 15.69 25000 40800 (2008) 460 (1954) 5360 881 1210 1820 2110 3150 6160 7230 11500 18200
2021-03-19 04:00 15.58 24700 40800 (2008) 460 (1954) 5360 881 1210 1820 2110 3150 6160 7230 11500 18200
2021-03-19 03:30 15.50 24500 40800 (2008) 460 (1954) 5360 881 1210 1820 2110 3150 6160 7230 11500 18200
2021-03-19 03:00 15.42 24300 40800 (2008) 460 (1954) 5360 881 1210 1820 2110 3150 6160 7230 11500 18200
2021-03-19 02:30 15.30 24000 40800 (2008) 460 (1954) 5360 881 1210 1820 2110 3150 6160 7230 11500 18200
2021-03-19 02:00 15.21 23800 40800 (2008) 460 (1954) 5360 881 1210 1820 2110 3150 6160 7230 11500 18200
2021-03-19 01:30 15.13 23600 40800 (2008) 460 (1954) 5360 881 1210 1820 2110 3150 6160 7230 11500 18200
2021-03-19 01:00 15.03 23400 40800 (2008) 460 (1954) 5360 881 1210 1820 2110 3150 6160 7230 11500 18200
2021-03-19 00:30 14.94 23200 40800 (2008) 460 (1954) 5360 881 1210 1820 2110 3150 6160 7230 11500 18200
2021-03-19 00:00 14.84 22900 40800 (2008) 460 (1954) 5360 881 1210 1820 2110 3150 6160 7230 11500 18200
2021-03-18 23:30 14.75 22700 24100 (1968) 452 (1954) 5120 874 1260 1660 1980 3290 6640 8020 12100 16900
2021-03-18 23:00 14.71 22600 24100 (1968) 452 (1954) 5120 874 1260 1660 1980 3290 6640 8020 12100 16900
2021-03-18 22:30 14.59 22300 24100 (1968) 452 (1954) 5120 874 1260 1660 1980 3290 6640 8020 12100 16900
2021-03-18 22:00 14.55 22200 24100 (1968) 452 (1954) 5120 874 1260 1660 1980 3290 6640 8020 12100 16900
2021-03-18 21:30 14.48 22000 24100 (1968) 452 (1954) 5120 874 1260 1660 1980 3290 6640 8020 12100 16900
2021-03-18 21:00 14.40 21800 24100 (1968) 452 (1954) 5120 874 1260 1660 1980 3290 6640 8020 12100 16900
2021-03-18 20:30 14.34 21700 24100 (1968) 452 (1954) 5120 874 1260 1660 1980 3290 6640 8020 12100 16900
2021-03-18 20:00 14.29 21600 24100 (1968) 452 (1954) 5120 874 1260 1660 1980 3290 6640 8020 12100 16900
2021-03-18 19:30 14.23 21400 24100 (1968) 452 (1954) 5120 874 1260 1660 1980 3290 6640 8020 12100 16900
2021-03-18 19:00 14.18 21300 24100 (1968) 452 (1954) 5120 874 1260 1660 1980 3290 6640 8020 12100 16900
2021-03-18 18:30 14.10 21100 24100 (1968) 452 (1954) 5120 874 1260 1660 1980 3290 6640 8020 12100 16900
2021-03-18 18:00 14.05 21000 24100 (1968) 452 (1954) 5120 874 1260 1660 1980 3290 6640 8020 12100 16900
2021-03-18 17:30 14.00 20900 24100 (1968) 452 (1954) 5120 874 1260 1660 1980 3290 6640 8020 12100 16900
2021-03-18 17:00 13.95 20800 24100 (1968) 452 (1954) 5120 874 1260 1660 1980 3290 6640 8020 12100 16900
2021-03-18 16:30 13.87 20600 24100 (1968) 452 (1954) 5120 874 1260 1660 1980 3290 6640 8020 12100 16900
2021-03-18 16:00 13.82 20500 24100 (1968) 452 (1954) 5120 874 1260 1660 1980 3290 6640 8020 12100 16900
2021-03-18 15:30 13.75 20300 24100 (1968) 452 (1954) 5120 874 1260 1660 1980 3290 6640 8020 12100 16900
2021-03-18 15:00 13.71 20200 24100 (1968) 452 (1954) 5120 874 1260 1660 1980 3290 6640 8020 12100 16900
2021-03-18 14:30 13.61 20000 24100 (1968) 452 (1954) 5120 874 1260 1660 1980 3290 6640 8020 12100 16900
2021-03-18 14:00 13.52 19700 24100 (1968) 452 (1954) 5120 874 1260 1660 1980 3290 6640 8020 12100 16900
2021-03-18 13:30 13.45 19600 24100 (1968) 452 (1954) 5120 874 1260 1660 1980 3290 6640 8020 12100 16900
2021-03-18 13:00 13.35 19300 24100 (1968) 452 (1954) 5120 874 1260 1660 1980 3290 6640 8020 12100 16900
2021-03-18 12:30 13.31 19200 24100 (1968) 452 (1954) 5120 874 1260 1660 1980 3290 6640 8020 12100 16900
2021-03-18 12:00 13.19 19000 24100 (1968) 452 (1954) 5120 874 1260 1660 1980 3290 6640 8020 12100 16900
2021-03-18 11:30 13.10 18800 24100 (1968) 452 (1954) 5120 874 1260 1660 1980 3290 6640 8020 12100 16900
2021-03-18 11:00 13.04 18600 24100 (1968) 452 (1954) 5120 874 1260 1660 1980 3290 6640 8020 12100 16900
2021-03-18 10:30 12.93 18400 24100 (1968) 452 (1954) 5120 874 1260 1660 1980 3290 6640 8020 12100 16900
2021-03-18 10:00 12.84 18200 24100 (1968) 452 (1954) 5120 874 1260 1660 1980 3290 6640 8020 12100 16900
2021-03-18 09:30 12.77 18000 24100 (1968) 452 (1954) 5120 874 1260 1660 1980 3290 6640 8020 12100 16900
2021-03-18 08:30 12.61 17600 24100 (1968) 452 (1954) 5120 874 1260 1660 1980 3290 6640 8020 12100 16900
2021-03-18 08:00 12.51 17400 24100 (1968) 452 (1954) 5120 874 1260 1660 1980 3290 6640 8020 12100 16900
2021-03-18 07:30 12.35 17000 24100 (1968) 452 (1954) 5120 874 1260 1660 1980 3290 6640 8020 12100 16900
2021-03-18 07:00 12.25 16800 24100 (1968) 452 (1954) 5120 874 1260 1660 1980 3290 6640 8020 12100 16900
2021-03-18 06:30 12.11 16500 24100 (1968) 452 (1954) 5120 874 1260 1660 1980 3290 6640 8020 12100 16900
2021-03-18 06:00 11.94 16100 24100 (1968) 452 (1954) 5120 874 1260 1660 1980 3290 6640 8020 12100 16900
2021-03-18 05:30 11.74 15700 24100 (1968) 452 (1954) 5120 874 1260 1660 1980 3290 6640 8020 12100 16900
2021-03-18 05:00 11.51 15200 24100 (1968) 452 (1954) 5120 874 1260 1660 1980 3290 6640 8020 12100 16900
2021-03-18 04:30 11.32 14700 24100 (1968) 452 (1954) 5120 874 1260 1660 1980 3290 6640 8020 12100 16900
2021-03-18 04:00 11.14 14400 24100 (1968) 452 (1954) 5120 874 1260 1660 1980 3290 6640 8020 12100 16900
2021-03-18 03:30 10.95 13900 24100 (1968) 452 (1954) 5120 874 1260 1660 1980 3290 6640 8020 12100 16900
2021-03-18 03:00 10.75 13500 24100 (1968) 452 (1954) 5120 874 1260 1660 1980 3290 6640 8020 12100 16900
2021-03-18 02:30 10.56 13100 24100 (1968) 452 (1954) 5120 874 1260 1660 1980 3290 6640 8020 12100 16900
2021-03-18 02:00 10.43 12800 24100 (1968) 452 (1954) 5120 874 1260 1660 1980 3290 6640 8020 12100 16900
2021-03-18 01:30 10.35 12700 24100 (1968) 452 (1954) 5120 874 1260 1660 1980 3290 6640 8020 12100 16900
2021-03-18 01:00 10.24 12400 24100 (1968) 452 (1954) 5120 874 1260 1660 1980 3290 6640 8020 12100 16900
2021-03-18 00:30 10.14 12200 24100 (1968) 452 (1954) 5120 874 1260 1660 1980 3290 6640 8020 12100 16900
2021-03-18 00:00 10.12 12200 24100 (1968) 452 (1954) 5120 874 1260 1660 1980 3290 6640 8020 12100 16900
2021-03-17 23:30 10.08 12100 27300 (2011) 460 (1954) 5230 884 1240 1580 1920 3440 6310 8280 11800 17100
2021-03-17 23:00 10.07 12100 27300 (2011) 460 (1954) 5230 884 1240 1580 1920 3440 6310 8280 11800 17100
2021-03-17 22:30 10.03 12000 27300 (2011) 460 (1954) 5230 884 1240 1580 1920 3440 6310 8280 11800 17100
2021-03-17 22:00 9.94 11800 27300 (2011) 460 (1954) 5230 884 1240 1580 1920 3440 6310 8280 11800 17100
2021-03-17 21:30 9.94 11800 27300 (2011) 460 (1954) 5230 884 1240 1580 1920 3440 6310 8280 11800 17100
2021-03-17 21:00 9.94 11800 27300 (2011) 460 (1954) 5230 884 1240 1580 1920 3440 6310 8280 11800 17100
2021-03-17 20:30 9.90 11700 27300 (2011) 460 (1954) 5230 884 1240 1580 1920 3440 6310 8280 11800 17100
2021-03-17 20:00 9.87 11700 27300 (2011) 460 (1954) 5230 884 1240 1580 1920 3440 6310 8280 11800 17100
2021-03-17 19:30 9.80 11500 27300 (2011) 460 (1954) 5230 884 1240 1580 1920 3440 6310 8280 11800 17100
2021-03-17 19:00 9.74 11400 27300 (2011) 460 (1954) 5230 884 1240 1580 1920 3440 6310 8280 11800 17100
2021-03-17 18:30 9.70 11300 27300 (2011) 460 (1954) 5230 884 1240 1580 1920 3440 6310 8280 11800 17100
2021-03-17 18:00 9.69 11300 27300 (2011) 460 (1954) 5230 884 1240 1580 1920 3440 6310 8280 11800 17100
2021-03-17 17:30 9.68 11300 27300 (2011) 460 (1954) 5230 884 1240 1580 1920 3440 6310 8280 11800 17100
2021-03-17 17:00 9.64 11200 27300 (2011) 460 (1954) 5230 884 1240 1580 1920 3440 6310 8280 11800 17100
2021-03-17 16:30 9.57 11100 27300 (2011) 460 (1954) 5230 884 1240 1580 1920 3440 6310 8280 11800 17100
2021-03-17 16:00 9.59 11100 27300 (2011) 460 (1954) 5230 884 1240 1580 1920 3440 6310 8280 11800 17100
2021-03-17 15:30 9.60 11100 27300 (2011) 460 (1954) 5230 884 1240 1580 1920 3440 6310 8280 11800 17100
2021-03-17 15:00 9.59 11100 27300 (2011) 460 (1954) 5230 884 1240 1580 1920 3440 6310 8280 11800 17100
2021-03-17 14:30 9.55 11000 27300 (2011) 460 (1954) 5230 884 1240 1580 1920 3440 6310 8280 11800 17100
2021-03-17 14:00 9.55 11000 27300 (2011) 460 (1954) 5230 884 1240 1580 1920 3440 6310 8280 11800 17100
2021-03-17 13:30 9.53 11000 27300 (2011) 460 (1954) 5230 884 1240 1580 1920 3440 6310 8280 11800 17100
2021-03-17 13:00 9.55 11000 27300 (2011) 460 (1954) 5230 884 1240 1580 1920 3440 6310 8280 11800 17100
2021-03-17 12:30 9.53 11000 27300 (2011) 460 (1954) 5230 884 1240 1580 1920 3440 6310 8280 11800 17100
2021-03-17 12:00 9.53 11000 27300 (2011) 460 (1954) 5230 884 1240 1580 1920 3440 6310 8280 11800 17100
2021-03-17 11:30 9.52 11000 27300 (2011) 460 (1954) 5230 884 1240 1580 1920 3440 6310 8280 11800 17100
2021-03-17 11:00 9.52 11000 27300 (2011) 460 (1954) 5230 884 1240 1580 1920 3440 6310 8280 11800 17100
2021-03-17 10:30 9.51 10900 27300 (2011) 460 (1954) 5230 884 1240 1580 1920 3440 6310 8280 11800 17100
2021-03-17 10:00 9.53 11000 27300 (2011) 460 (1954) 5230 884 1240 1580 1920 3440 6310 8280 11800 17100
2021-03-17 09:30 9.51 10900 27300 (2011) 460 (1954) 5230 884 1240 1580 1920 3440 6310 8280 11800 17100
2021-03-17 09:00 9.55 11000 27300 (2011) 460 (1954) 5230 884 1240 1580 1920 3440 6310 8280 11800 17100
2021-03-17 08:30 9.53 11000 27300 (2011) 460 (1954) 5230 884 1240 1580 1920 3440 6310 8280 11800 17100
2021-03-17 08:00 9.55 11000 27300 (2011) 460 (1954) 5230 884 1240 1580 1920 3440 6310 8280 11800 17100
2021-03-17 07:30 9.50 10900 27300 (2011) 460 (1954) 5230 884 1240 1580 1920 3440 6310 8280 11800 17100
2021-03-17 07:00 9.57 11100 27300 (2011) 460 (1954) 5230 884 1240 1580 1920 3440 6310 8280 11800 17100
2021-03-17 06:30 9.56 11000 27300 (2011) 460 (1954) 5230 884 1240 1580 1920 3440 6310 8280 11800 17100
2021-03-17 06:00 9.60 11100 27300 (2011) 460 (1954) 5230 884 1240 1580 1920 3440 6310 8280 11800 17100
2021-03-17 05:30 9.61 11100 27300 (2011) 460 (1954) 5230 884 1240 1580 1920 3440 6310 8280 11800 17100
2021-03-17 05:00 9.63 11200 27300 (2011) 460 (1954) 5230 884 1240 1580 1920 3440 6310 8280 11800 17100
2021-03-17 04:30 9.67 11300 27300 (2011) 460 (1954) 5230 884 1240 1580 1920 3440 6310 8280 11800 17100
2021-03-17 04:00 9.68 11300 27300 (2011) 460 (1954) 5230 884 1240 1580 1920 3440 6310 8280 11800 17100
2021-03-17 03:30 9.69 11300 27300 (2011) 460 (1954) 5230 884 1240 1580 1920 3440 6310 8280 11800 17100
2021-03-17 03:00 9.76 11400 27300 (2011) 460 (1954) 5230 884 1240 1580 1920 3440 6310 8280 11800 17100
2021-03-17 02:30 9.78 11500 27300 (2011) 460 (1954) 5230 884 1240 1580 1920 3440 6310 8280 11800 17100
2021-03-17 02:00 9.81 11500 27300 (2011) 460 (1954) 5230 884 1240 1580 1920 3440 6310 8280 11800 17100
2021-03-17 01:30 9.84 11600 27300 (2011) 460 (1954) 5230 884 1240 1580 1920 3440 6310 8280 11800 17100
2021-03-17 01:00 9.92 11800 27300 (2011) 460 (1954) 5230 884 1240 1580 1920 3440 6310 8280 11800 17100
2021-03-17 00:30 9.91 11800 27300 (2011) 460 (1954) 5230 884 1240 1580 1920 3440 6310 8280 11800 17100
2021-03-17 00:00 1 11900 27300 (2011) 460 (1954) 5230 884 1240 1580 1920 3440 6310 8280 11800 17100
2021-03-16 23:30 10.04 12000 28400 (1978) 460 (1954) 5380 907 1100 1570 1820 3410 6160 7840 13200 19200
2021-03-16 23:00 10.09 12100 28400 (1978) 460 (1954) 5380 907 1100 1570 1820 3410 6160 7840 13200 19200
2021-03-16 22:30 10.18 12300 28400 (1978) 460 (1954) 5380 907 1100 1570 1820 3410 6160 7840 13200 19200
2021-03-16 22:00 10.24 12400 28400 (1978) 460 (1954) 5380 907 1100 1570 1820 3410 6160 7840 13200 19200
2021-03-16 21:30 10.33 12600 28400 (1978) 460 (1954) 5380 907 1100 1570 1820 3410 6160 7840 13200 19200
2021-03-16 21:00 10.41 12800 28400 (1978) 460 (1954) 5380 907 1100 1570 1820 3410 6160 7840 13200 19200
2021-03-16 20:30 10.49 13000 28400 (1978) 460 (1954) 5380 907 1100 1570 1820 3410 6160 7840 13200 19200
2021-03-16 20:00 10.57 13100 28400 (1978) 460 (1954) 5380 907 1100 1570 1820 3410 6160 7840 13200 19200
2021-03-16 19:30 10.66 13300 28400 (1978) 460 (1954) 5380 907 1100 1570 1820 3410 6160 7840 13200 19200
2021-03-16 19:00 10.75 13500 28400 (1978) 460 (1954) 5380 907 1100 1570 1820 3410 6160 7840 13200 19200
2021-03-16 18:30 10.88 13800 28400 (1978) 460 (1954) 5380 907 1100 1570 1820 3410 6160 7840 13200 19200
2021-03-16 18:00 11.00 14000 28400 (1978) 460 (1954) 5380 907 1100 1570 1820 3410 6160 7840 13200 19200
2021-03-16 17:30 11.10 14300 28400 (1978) 460 (1954) 5380 907 1100 1570 1820 3410 6160 7840 13200 19200
2021-03-16 17:00 11.23 14500 28400 (1978) 460 (1954) 5380 907 1100 1570 1820 3410 6160 7840 13200 19200
2021-03-16 16:30 11.35 14800 28400 (1978) 460 (1954) 5380 907 1100 1570 1820 3410 6160 7840 13200 19200
2021-03-16 16:00 11.50 15100 28400 (1978) 460 (1954) 5380 907 1100 1570 1820 3410 6160 7840 13200 19200
2021-03-16 15:30 11.64 15400 28400 (1978) 460 (1954) 5380 907 1100 1570 1820 3410 6160 7840 13200 19200
2021-03-16 15:00 11.72 15600 28400 (1978) 460 (1954) 5380 907 1100 1570 1820 3410 6160 7840 13200 19200
2021-03-16 14:30 11.90 16000 28400 (1978) 460 (1954) 5380 907 1100 1570 1820 3410 6160 7840 13200 19200
2021-03-16 14:00 12.05 16400 28400 (1978) 460 (1954) 5380 907 1100 1570 1820 3410 6160 7840 13200 19200
2021-03-16 13:30 12.18 16700 28400 (1978) 460 (1954) 5380 907 1100 1570 1820 3410 6160 7840 13200 19200
2021-03-16 13:00 12.36 17100 28400 (1978) 460 (1954) 5380 907 1100 1570 1820 3410 6160 7840 13200 19200
2021-03-16 12:30 12.48 17300 28400 (1978) 460 (1954) 5380 907 1100 1570 1820 3410 6160 7840 13200 19200
2021-03-16 12:00 12.66 17700 28400 (1978) 460 (1954) 5380 907 1100 1570 1820 3410 6160 7840 13200 19200
2021-03-16 11:30 12.78 18000 28400 (1978) 460 (1954) 5380 907 1100 1570 1820 3410 6160 7840 13200 19200
2021-03-16 11:00 12.95 18400 28400 (1978) 460 (1954) 5380 907 1100 1570 1820 3410 6160 7840 13200 19200
2021-03-16 10:30 13.11 18800 28400 (1978) 460 (1954) 5380 907 1100 1570 1820 3410 6160 7840 13200 19200
2021-03-16 10:00 13.25 19100 28400 (1978) 460 (1954) 5380 907 1100 1570 1820 3410 6160 7840 13200 19200
2021-03-16 09:30 13.41 19500 28400 (1978) 460 (1954) 5380 907 1100 1570 1820 3410 6160 7840 13200 19200
2021-03-16 09:00 13.55 19800 28400 (1978) 460 (1954) 5380 907 1100 1570 1820 3410 6160 7840 13200 19200
2021-03-16 08:30 13.69 20100 28400 (1978) 460 (1954) 5380 907 1100 1570 1820 3410 6160 7840 13200 19200
2021-03-16 08:00 13.83 20500 28400 (1978) 460 (1954) 5380 907 1100 1570 1820 3410 6160 7840 13200 19200
2021-03-16 07:30 13.95 20800 28400 (1978) 460 (1954) 5380 907 1100 1570 1820 3410 6160 7840 13200 19200
2021-03-16 07:00 14.07 21000 28400 (1978) 460 (1954) 5380 907 1100 1570 1820 3410 6160 7840 13200 19200
2021-03-16 06:30 14.18 21300 28400 (1978) 460 (1954) 5380 907 1100 1570 1820 3410 6160 7840 13200 19200
2021-03-16 06:00 14.29 21600 28400 (1978) 460 (1954) 5380 907 1100 1570 1820 3410 6160 7840 13200 19200
2021-03-16 05:30 14.43 21900 28400 (1978) 460 (1954) 5380 907 1100 1570 1820 3410 6160 7840 13200 19200
2021-03-16 05:00 14.54 22200 28400 (1978) 460 (1954) 5380 907 1100 1570 1820 3410 6160 7840 13200 19200
2021-03-16 04:30 14.64 22400 28400 (1978) 460 (1954) 5380 907 1100 1570 1820 3410 6160 7840 13200 19200
2021-03-16 04:00 14.68 22500 28400 (1978) 460 (1954) 5380 907 1100 1570 1820 3410 6160 7840 13200 19200
2021-03-16 03:30 14.81 22800 28400 (1978) 460 (1954) 5380 907 1100 1570 1820 3410 6160 7840 13200 19200
2021-03-16 03:00 14.86 23000 28400 (1978) 460 (1954) 5380 907 1100 1570 1820 3410 6160 7840 13200 19200
2021-03-16 02:30 14.94 23200 28400 (1978) 460 (1954) 5380 907 1100 1570 1820 3410 6160 7840 13200 19200
2021-03-16 02:00 15.03 23400 28400 (1978) 460 (1954) 5380 907 1100 1570 1820 3410 6160 7840 13200 19200
2021-03-16 01:30 15.11 23600 28400 (1978) 460 (1954) 5380 907 1100 1570 1820 3410 6160 7840 13200 19200
2021-03-16 01:00 15.15 23700 28400 (1978) 460 (1954) 5380 907 1100 1570 1820 3410 6160 7840 13200 19200
2021-03-16 00:30 15.21 23800 28400 (1978) 460 (1954) 5380 907 1100 1570 1820 3410 6160 7840 13200 19200
2021-03-16 00:00 15.30 24000 28400 (1978) 460 (1954) 5380 907 1100 1570 1820 3410 6160 7840 13200 19200
2021-03-15 23:30 15.35 24200 46400 (1935) 468 (1954) 5760 927 1110 1500 1750 3140 6530 7720 15400 22100
2021-03-15 23:00 15.36 24200 46400 (1935) 468 (1954) 5760 927 1110 1500 1750 3140 6530 7720 15400 22100
2021-03-15 22:30 15.45 24400 46400 (1935) 468 (1954) 5760 927 1110 1500 1750 3140 6530 7720 15400 22100
2021-03-15 22:00 15.50 24500 46400 (1935) 468 (1954) 5760 927 1110 1500 1750 3140 6530 7720 15400 22100
2021-03-15 21:30 15.51 24600 46400 (1935) 468 (1954) 5760 927 1110 1500 1750 3140 6530 7720 15400 22100
2021-03-15 21:00 15.57 24700 46400 (1935) 468 (1954) 5760 927 1110 1500 1750 3140 6530 7720 15400 22100
2021-03-15 20:30 15.62 24800 46400 (1935) 468 (1954) 5760 927 1110 1500 1750 3140 6530 7720 15400 22100
2021-03-15 20:00 15.64 24900 46400 (1935) 468 (1954) 5760 927 1110 1500 1750 3140 6530 7720 15400 22100
2021-03-15 19:30 15.67 25000 46400 (1935) 468 (1954) 5760 927 1110 1500 1750 3140 6530 7720 15400 22100
2021-03-15 19:00 15.75 25200 46400 (1935) 468 (1954) 5760 927 1110 1500 1750 3140 6530 7720 15400 22100
2021-03-15 18:30 15.76 25200 46400 (1935) 468 (1954) 5760 927 1110 1500 1750 3140 6530 7720 15400 22100
2021-03-15 18:00 15.80 25300 46400 (1935) 468 (1954) 5760 927 1110 1500 1750 3140 6530 7720 15400 22100
2021-03-15 17:30 15.82 25300 46400 (1935) 468 (1954) 5760 927 1110 1500 1750 3140 6530 7720 15400 22100
2021-03-15 17:00 15.84 25400 46400 (1935) 468 (1954) 5760 927 1110 1500 1750 3140 6530 7720 15400 22100
2021-03-15 16:30 15.87 25500 46400 (1935) 468 (1954) 5760 927 1110 1500 1750 3140 6530 7720 15400 22100
2021-03-15 16:00 15.92 25600 46400 (1935) 468 (1954) 5760 927 1110 1500 1750 3140 6530 7720 15400 22100
2021-03-15 15:30 15.98 25800 46400 (1935) 468 (1954) 5760 927 1110 1500 1750 3140 6530 7720 15400 22100
2021-03-15 15:00 15.96 25700 46400 (1935) 468 (1954) 5760 927 1110 1500 1750 3140 6530 7720 15400 22100
2021-03-15 14:30 16.00 25800 46400 (1935) 468 (1954) 5760 927 1110 1500 1750 3140 6530 7720 15400 22100
2021-03-15 14:00 16.04 25900 46400 (1935) 468 (1954) 5760 927 1110 1500 1750 3140 6530 7720 15400 22100
2021-03-15 13:30 16.09 26000 46400 (1935) 468 (1954) 5760 927 1110 1500 1750 3140 6530 7720 15400 22100
2021-03-15 13:00 16.10 26100 46400 (1935) 468 (1954) 5760 927 1110 1500 1750 3140 6530 7720 15400 22100
2021-03-15 12:30 16.13 26100 46400 (1935) 468 (1954) 5760 927 1110 1500 1750 3140 6530 7720 15400 22100
2021-03-15 12:00 16.15 26200 46400 (1935) 468 (1954) 5760 927 1110 1500 1750 3140 6530 7720 15400 22100
2021-03-15 11:30 16.17 26200 46400 (1935) 468 (1954) 5760 927 1110 1500 1750 3140 6530 7720 15400 22100
2021-03-15 11:00 16.17 26200 46400 (1935) 468 (1954) 5760 927 1110 1500 1750 3140 6530 7720 15400 22100
2021-03-15 10:30 16.24 26400 46400 (1935) 468 (1954) 5760 927 1110 1500 1750 3140 6530 7720 15400 22100
2021-03-15 10:00 16.24 26400 46400 (1935) 468 (1954) 5760 927 1110 1500 1750 3140 6530 7720 15400 22100
2021-03-15 09:30 16.29 26500 46400 (1935) 468 (1954) 5760 927 1110 1500 1750 3140 6530 7720 15400 22100
2021-03-15 09:00 16.32 26600 46400 (1935) 468 (1954) 5760 927 1110 1500 1750 3140 6530 7720 15400 22100
2021-03-15 08:30 16.36 26700 46400 (1935) 468 (1954) 5760 927 1110 1500 1750 3140 6530 7720 15400 22100
2021-03-15 08:00 16.38 26800 46400 (1935) 468 (1954) 5760 927 1110 1500 1750 3140 6530 7720 15400 22100
2021-03-15 07:30 16.44 26900 46400 (1935) 468 (1954) 5760 927 1110 1500 1750 3140 6530 7720 15400 22100
2021-03-15 07:00 16.48 27000 46400 (1935) 468 (1954) 5760 927 1110 1500 1750 3140 6530 7720 15400 22100
2021-03-15 06:30 16.51 27100 46400 (1935) 468 (1954) 5760 927 1110 1500 1750 3140 6530 7720 15400 22100
2021-03-15 06:00 16.57 27300 46400 (1935) 468 (1954) 5760 927 1110 1500 1750 3140 6530 7720 15400 22100
2021-03-15 05:30 16.62 27400 46400 (1935) 468 (1954) 5760 927 1110 1500 1750 3140 6530 7720 15400 22100
2021-03-15 05:00 16.65 27500 46400 (1935) 468 (1954) 5760 927 1110 1500 1750 3140 6530 7720 15400 22100
2021-03-15 04:30 16.67 27500 46400 (1935) 468 (1954) 5760 927 1110 1500 1750 3140 6530 7720 15400 22100
2021-03-15 04:00 16.74 27700 46400 (1935) 468 (1954) 5760 927 1110 1500 1750 3140 6530 7720 15400 22100
2021-03-15 03:30 16.78 27800 46400 (1935) 468 (1954) 5760 927 1110 1500 1750 3140 6530 7720 15400 22100
2021-03-15 03:00 16.83 27900 46400 (1935) 468 (1954) 5760 927 1110 1500 1750 3140 6530 7720 15400 22100
2021-03-15 02:30 16.86 28000 46400 (1935) 468 (1954) 5760 927 1110 1500 1750 3140 6530 7720 15400 22100
2021-03-15 02:00 16.91 28100 46400 (1935) 468 (1954) 5760 927 1110 1500 1750 3140 6530 7720 15400 22100
2021-03-15 01:30 16.95 28200 46400 (1935) 468 (1954) 5760 927 1110 1500 1750 3140 6530 7720 15400 22100
2021-03-15 01:00 17.01 28400 46400 (1935) 468 (1954) 5760 927 1110 1500 1750 3140 6530 7720 15400 22100
2021-03-15 00:30 17.05 28500 46400 (1935) 468 (1954) 5760 927 1110 1500 1750 3140 6530 7720 15400 22100
2021-03-15 00:00 17.11 28600 46400 (1935) 468 (1954) 5760 927 1110 1500 1750 3140 6530 7720 15400 22100
2021-03-14 23:30 17.13 28700 60600 (1935) 468 (1954) 6380 905 1120 1480 1710 3140 6660 9340 16100 25100
2021-03-14 23:00 17.18 28800 60600 (1935) 468 (1954) 6380 905 1120 1480 1710 3140 6660 9340 16100 25100
2021-03-14 22:30 17.20 28900 60600 (1935) 468 (1954) 6380 905 1120 1480 1710 3140 6660 9340 16100 25100
2021-03-14 22:00 17.22 28900 60600 (1935) 468 (1954) 6380 905 1120 1480 1710 3140 6660 9340 16100 25100
2021-03-14 21:30 17.24 29000 60600 (1935) 468 (1954) 6380 905 1120 1480 1710 3140 6660 9340 16100 25100
2021-03-14 21:00 17.27 29100 60600 (1935) 468 (1954) 6380 905 1120 1480 1710 3140 6660 9340 16100 25100
2021-03-14 20:30 17.27 29100 60600 (1935) 468 (1954) 6380 905 1120 1480 1710 3140 6660 9340 16100 25100
2021-03-14 20:00 17.29 29100 60600 (1935) 468 (1954) 6380 905 1120 1480 1710 3140 6660 9340 16100 25100
2021-03-14 19:30 17.32 29200 60600 (1935) 468 (1954) 6380 905 1120 1480 1710 3140 6660 9340 16100 25100
2021-03-14 19:00 17.30 29100 60600 (1935) 468 (1954) 6380 905 1120 1480 1710 3140 6660 9340 16100 25100
2021-03-14 18:30 17.28 29100 60600 (1935) 468 (1954) 6380 905 1120 1480 1710 3140 6660 9340 16100 25100
2021-03-14 18:00 17.28 29100 60600 (1935) 468 (1954) 6380 905 1120 1480 1710 3140 6660 9340 16100 25100
2021-03-14 17:30 17.27 29100 60600 (1935) 468 (1954) 6380 905 1120 1480 1710 3140 6660 9340 16100 25100
2021-03-14 17:00 17.25 29000 60600 (1935) 468 (1954) 6380 905 1120 1480 1710 3140 6660 9340 16100 25100
2021-03-14 16:30 17.23 29000 60600 (1935) 468 (1954) 6380 905 1120 1480 1710 3140 6660 9340 16100 25100
2021-03-14 16:00 17.17 28800 60600 (1935) 468 (1954) 6380 905 1120 1480 1710 3140 6660 9340 16100 25100
2021-03-14 15:30 17.15 28700 60600 (1935) 468 (1954) 6380 905 1120 1480 1710 3140 6660 9340 16100 25100
2021-03-14 15:00 17.11 28600 60600 (1935) 468 (1954) 6380 905 1120 1480 1710 3140 6660 9340 16100 25100
2021-03-14 14:30 17.07 28500 60600 (1935) 468 (1954) 6380 905 1120 1480 1710 3140 6660 9340 16100 25100
2021-03-14 14:00 17.02 28400 60600 (1935) 468 (1954) 6380 905 1120 1480 1710 3140 6660 9340 16100 25100
2021-03-14 13:30 16.97 28300 60600 (1935) 468 (1954) 6380 905 1120 1480 1710 3140 6660 9340 16100 25100
2021-03-14 13:00 16.90 28100 60600 (1935) 468 (1954) 6380 905 1120 1480 1710 3140 6660 9340 16100 25100
2021-03-14 12:30 16.84 27900 60600 (1935) 468 (1954) 6380 905 1120 1480 1710 3140 6660 9340 16100 25100
2021-03-14 12:00 16.82 27900 60600 (1935) 468 (1954) 6380 905 1120 1480 1710 3140 6660 9340 16100 25100
2021-03-14 11:30 16.69 27600 60600 (1935) 468 (1954) 6380 905 1120 1480 1710 3140 6660 9340 16100 25100
2021-03-14 11:00 16.65 27500 60600 (1935) 468 (1954) 6380 905 1120 1480 1710 3140 6660 9340 16100 25100
2021-03-14 10:30 16.55 27200 60600 (1935) 468 (1954) 6380 905 1120 1480 1710 3140 6660 9340 16100 25100
2021-03-14 10:00 16.49 27000 60600 (1935) 468 (1954) 6380 905 1120 1480 1710 3140 6660 9340 16100 25100
2021-03-14 09:30 16.38 26800 60600 (1935) 468 (1954) 6380 905 1120 1480 1710 3140 6660 9340 16100 25100
2021-03-14 09:00 16.33 26600 60600 (1935) 468 (1954) 6380 905 1120 1480 1710 3140 6660 9340 16100 25100
2021-03-14 08:30 16.23 26400 60600 (1935) 468 (1954) 6380 905 1120 1480 1710 3140 6660 9340 16100 25100
2021-03-14 08:00 16.13 26100 60600 (1935) 468 (1954) 6380 905 1120 1480 1710 3140 6660 9340 16100 25100
2021-03-14 07:30 16.06 26000 60600 (1935) 468 (1954) 6380 905 1120 1480 1710 3140 6660 9340 16100 25100
2021-03-14 07:00 15.96 25700 60600 (1935) 468 (1954) 6380 905 1120 1480 1710 3140 6660 9340 16100 25100
2021-03-14 06:30 15.89 25500 60600 (1935) 468 (1954) 6380 905 1120 1480 1710 3140 6660 9340 16100 25100
2021-03-14 06:00 15.76 25200 60600 (1935) 468 (1954) 6380 905 1120 1480 1710 3140 6660 9340 16100 25100
2021-03-14 05:30 15.72 25100 60600 (1935) 468 (1954) 6380 905 1120 1480 1710 3140 6660 9340 16100 25100
2021-03-14 05:00 15.62 24800 60600 (1935) 468 (1954) 6380 905 1120 1480 1710 3140 6660 9340 16100 25100
2021-03-14 04:30 15.50 24500 60600 (1935) 468 (1954) 6380 905 1120 1480 1710 3140 6660 9340 16100 25100
2021-03-14 04:00 15.37 24200 60600 (1935) 468 (1954) 6380 905 1120 1480 1710 3140 6660 9340 16100 25100
2021-03-14 03:30 15.33 24100 60600 (1935) 468 (1954) 6380 905 1120 1480 1710 3140 6660 9340 16100 25100
2021-03-14 03:00 15.21 23800 60600 (1935) 468 (1954) 6380 905 1120 1480 1710 3140 6660 9340 16100 25100
2021-03-14 01:30 15.09 23500 60600 (1935) 468 (1954) 6380 905 1120 1480 1710 3140 6660 9340 16100 25100
2021-03-14 01:00 14.99 23300 60600 (1935) 468 (1954) 6380 905 1120 1480 1710 3140 6660 9340 16100 25100
2021-03-14 00:30 14.87 23000 60600 (1935) 468 (1954) 6380 905 1120 1480 1710 3140 6660 9340 16100 25100
2021-03-14 00:00 14.80 22800 60600 (1935) 468 (1954) 6380 905 1120 1480 1710 3140 6660 9340 16100 25100
2021-03-13 23:30 14.66 22500 53600 (1935) 476 (1954) 6190 919 1140 1440 1690 3070 6190 7450 19600 23700
2021-03-13 23:00 14.60 22300 53600 (1935) 476 (1954) 6190 919 1140 1440 1690 3070 6190 7450 19600 23700
2021-03-13 22:30 14.51 22100 53600 (1935) 476 (1954) 6190 919 1140 1440 1690 3070 6190 7450 19600 23700
2021-03-13 22:00 14.36 21700 53600 (1935) 476 (1954) 6190 919 1140 1440 1690 3070 6190 7450 19600 23700
2021-03-13 21:30 14.23 21400 53600 (1935) 476 (1954) 6190 919 1140 1440 1690 3070 6190 7450 19600 23700
2021-03-13 21:00 14.12 21200 53600 (1935) 476 (1954) 6190 919 1140 1440 1690 3070 6190 7450 19600 23700
2021-03-13 20:30 14.00 20900 53600 (1935) 476 (1954) 6190 919 1140 1440 1690 3070 6190 7450 19600 23700
2021-03-13 20:00 13.91 20700 53600 (1935) 476 (1954) 6190 919 1140 1440 1690 3070 6190 7450 19600 23700
2021-03-13 19:30 13.77 20300 53600 (1935) 476 (1954) 6190 919 1140 1440 1690 3070 6190 7450 19600 23700
2021-03-13 19:00 13.65 20000 53600 (1935) 476 (1954) 6190 919 1140 1440 1690 3070 6190 7450 19600 23700
2021-03-13 18:30 13.56 19800 53600 (1935) 476 (1954) 6190 919 1140 1440 1690 3070 6190 7450 19600 23700
2021-03-13 18:00 13.45 19600 53600 (1935) 476 (1954) 6190 919 1140 1440 1690 3070 6190 7450 19600 23700
2021-03-13 17:30 13.32 19300 53600 (1935) 476 (1954) 6190 919 1140 1440 1690 3070 6190 7450 19600 23700
2021-03-13 17:00 13.21 19000 53600 (1935) 476 (1954) 6190 919 1140 1440 1690 3070 6190 7450 19600 23700
2021-03-13 16:30 13.10 18800 53600 (1935) 476 (1954) 6190 919 1140 1440 1690 3070 6190 7450 19600 23700
2021-03-13 16:00 12.98 18500 53600 (1935) 476 (1954) 6190 919 1140 1440 1690 3070 6190 7450 19600 23700
2021-03-13 15:30 12.85 18200 53600 (1935) 476 (1954) 6190 919 1140 1440 1690 3070 6190 7450 19600 23700
2021-03-13 15:00 12.73 17900 53600 (1935) 476 (1954) 6190 919 1140 1440 1690 3070 6190 7450 19600 23700
2021-03-13 14:30 12.61 17600 53600 (1935) 476 (1954) 6190 919 1140 1440 1690 3070 6190 7450 19600 23700
2021-03-13 14:00 12.48 17300 53600 (1935) 476 (1954) 6190 919 1140 1440 1690 3070 6190 7450 19600 23700
2021-03-13 13:30 12.38 17100 53600 (1935) 476 (1954) 6190 919 1140 1440 1690 3070 6190 7450 19600 23700
2021-03-13 13:00 12.22 16700 53600 (1935) 476 (1954) 6190 919 1140 1440 1690 3070 6190 7450 19600 23700
2021-03-13 12:30 12.08 16400 53600 (1935) 476 (1954) 6190 919 1140 1440 1690 3070 6190 7450 19600 23700
2021-03-13 12:00 11.98 16200 53600 (1935) 476 (1954) 6190 919 1140 1440 1690 3070 6190 7450 19600 23700
2021-03-13 11:30 11.85 15900 53600 (1935) 476 (1954) 6190 919 1140 1440 1690 3070 6190 7450 19600 23700
2021-03-13 11:00 11.69 15600 53600 (1935) 476 (1954) 6190 919 1140 1440 1690 3070 6190 7450 19600 23700
2021-03-13 10:30 11.54 15200 53600 (1935) 476 (1954) 6190 919 1140 1440 1690 3070 6190 7450 19600 23700
2021-03-13 10:00 11.40 14900 53600 (1935) 476 (1954) 6190 919 1140 1440 1690 3070 6190 7450 19600 23700
2021-03-13 09:30 11.26 14600 53600 (1935) 476 (1954) 6190 919 1140 1440 1690 3070 6190 7450 19600 23700
2021-03-13 09:00 11.15 14400 53600 (1935) 476 (1954) 6190 919 1140 1440 1690 3070 6190 7450 19600 23700
2021-03-13 08:30 11.02 14100 53600 (1935) 476 (1954) 6190 919 1140 1440 1690 3070 6190 7450 19600 23700
2021-03-13 08:00 10.83 13700 53600 (1935) 476 (1954) 6190 919 1140 1440 1690 3070 6190 7450 19600 23700
2021-03-13 07:30 10.69 13400 53600 (1935) 476 (1954) 6190 919 1140 1440 1690 3070 6190 7450 19600 23700
2021-03-13 07:00 10.53 13000 53600 (1935) 476 (1954) 6190 919 1140 1440 1690 3070 6190 7450 19600 23700
2021-03-13 06:30 10.37 12700 53600 (1935) 476 (1954) 6190 919 1140 1440 1690 3070 6190 7450 19600 23700
2021-03-13 06:00 10.20 12400 53600 (1935) 476 (1954) 6190 919 1140 1440 1690 3070 6190 7450 19600 23700
2021-03-13 05:30 10.03 12000 53600 (1935) 476 (1954) 6190 919 1140 1440 1690 3070 6190 7450 19600 23700
2021-03-13 05:00 9.88 11700 53600 (1935) 476 (1954) 6190 919 1140 1440 1690 3070 6190 7450 19600 23700
2021-03-13 04:30 9.75 11400 53600 (1935) 476 (1954) 6190 919 1140 1440 1690 3070 6190 7450 19600 23700
2021-03-13 04:00 9.57 11100 53600 (1935) 476 (1954) 6190 919 1140 1440 1690 3070 6190 7450 19600 23700
2021-03-13 03:30 9.41 10700 53600 (1935) 476 (1954) 6190 919 1140 1440 1690 3070 6190 7450 19600 23700
2021-03-13 03:00 9.28 10500 53600 (1935) 476 (1954) 6190 919 1140 1440 1690 3070 6190 7450 19600 23700
2021-03-13 02:30 9.11 10100 53600 (1935) 476 (1954) 6190 919 1140 1440 1690 3070 6190 7450 19600 23700
2021-03-13 02:00 8.97 9860 53600 (1935) 476 (1954) 6190 919 1140 1440 1690 3070 6190 7450 19600 23700
2021-03-13 01:30 8.83 9580 53600 (1935) 476 (1954) 6190 919 1140 1440 1690 3070 6190 7450 19600 23700
2021-03-13 01:00 8.65 9230 53600 (1935) 476 (1954) 6190 919 1140 1440 1690 3070 6190 7450 19600 23700
2021-03-13 00:30 8.49 8930 53600 (1935) 476 (1954) 6190 919 1140 1440 1690 3070 6190 7450 19600 23700
2021-03-13 00:00 8.37 8700 53600 (1935) 476 (1954) 6190 919 1140 1440 1690 3070 6190 7450 19600 23700
2021-03-12 23:30 8.22 8410 31700 (1935) 476 (1954) 5670 966 1110 1390 1670 2940 7260 8720 16600 20300
2021-03-12 23:00 8.06 8110 31700 (1935) 476 (1954) 5670 966 1110 1390 1670 2940 7260 8720 16600 20300
2021-03-12 22:30 7.90 7810 31700 (1935) 476 (1954) 5670 966 1110 1390 1670 2940 7260 8720 16600 20300
2021-03-12 22:00 7.79 7610 31700 (1935) 476 (1954) 5670 966 1110 1390 1670 2940 7260 8720 16600 20300
2021-03-12 21:30 7.63 7320 31700 (1935) 476 (1954) 5670 966 1110 1390 1670 2940 7260 8720 16600 20300
2021-03-12 21:00 7.47 7030 31700 (1935) 476 (1954) 5670 966 1110 1390 1670 2940 7260 8720 16600 20300
2021-03-12 20:30 7.29 6700 31700 (1935) 476 (1954) 5670 966 1110 1390 1670 2940 7260 8720 16600 20300
2021-03-12 20:00 7.11 6390 31700 (1935) 476 (1954) 5670 966 1110 1390 1670 2940 7260 8720 16600 20300
2021-03-12 19:30 6.95 6110 31700 (1935) 476 (1954) 5670 966 1110 1390 1670 2940 7260 8720 16600 20300
2021-03-12 19:00 6.77 5790 31700 (1935) 476 (1954) 5670 966 1110 1390 1670 2940 7260 8720 16600 20300
2021-03-12 18:30 6.57 5450 31700 (1935) 476 (1954) 5670 966 1110 1390 1670 2940 7260 8720 16600 20300
2021-03-12 18:00 6.41 5170 31700 (1935) 476 (1954) 5670 966 1110 1390 1670 2940 7260 8720 16600 20300
2021-03-12 17:30 6.20 4820 31700 (1935) 476 (1954) 5670 966 1110 1390 1670 2940 7260 8720 16600 20300
2021-03-12 17:00 6.03 4540 31700 (1935) 476 (1954) 5670 966 1110 1390 1670 2940 7260 8720 16600 20300
2021-03-12 16:30 5.86 4270 31700 (1935) 476 (1954) 5670 966 1110 1390 1670 2940 7260 8720 16600 20300
2021-03-12 16:00 5.71 4030 31700 (1935) 476 (1954) 5670 966 1110 1390 1670 2940 7260 8720 16600 20300
2021-03-12 15:30 5.54 3760 31700 (1935) 476 (1954) 5670 966 1110 1390 1670 2940 7260 8720 16600 20300
2021-03-12 15:00 5.39 3530 31700 (1935) 476 (1954) 5670 966 1110 1390 1670 2940 7260 8720 16600 20300
2021-03-12 14:30 5.26 3330 31700 (1935) 476 (1954) 5670 966 1110 1390 1670 2940 7260 8720 16600 20300
2021-03-12 14:00 5.16 3180 31700 (1935) 476 (1954) 5670 966 1110 1390 1670 2940 7260 8720 16600 20300
2021-03-12 13:30 5.08 3070 31700 (1935) 476 (1954) 5670 966 1110 1390 1670 2940 7260 8720 16600 20300
2021-03-12 13:00 5.02 2980 31700 (1935) 476 (1954) 5670 966 1110 1390 1670 2940 7260 8720 16600 20300
2021-03-12 12:30 4.97 2910 31700 (1935) 476 (1954) 5670 966 1110 1390 1670 2940 7260 8720 16600 20300
2021-03-12 12:00 4.93 2850 31700 (1935) 476 (1954) 5670 966 1110 1390 1670 2940 7260 8720 16600 20300
2021-03-12 11:30 4.91 2820 31700 (1935) 476 (1954) 5670 966 1110 1390 1670 2940 7260 8720 16600 20300
2021-03-12 11:00 4.89 2790 31700 (1935) 476 (1954) 5670 966 1110 1390 1670 2940 7260 8720 16600 20300
2021-03-12 10:30 4.88 2780 31700 (1935) 476 (1954) 5670 966 1110 1390 1670 2940 7260 8720 16600 20300
2021-03-12 10:00 4.86 2750 31700 (1935) 476 (1954) 5670 966 1110 1390 1670 2940 7260 8720 16600 20300
2021-03-12 09:30 4.84 2720 31700 (1935) 476 (1954) 5670 966 1110 1390 1670 2940 7260 8720 16600 20300
2021-03-12 09:00 4.82 2690 31700 (1935) 476 (1954) 5670 966 1110 1390 1670 2940 7260 8720 16600 20300
2021-03-12 08:30 4.79 2650 31700 (1935) 476 (1954) 5670 966 1110 1390 1670 2940 7260 8720 16600 20300
2021-03-12 08:00 4.78 2630 31700 (1935) 476 (1954) 5670 966 1110 1390 1670 2940 7260 8720 16600 20300
2021-03-12 07:30 4.77 2620 31700 (1935) 476 (1954) 5670 966 1110 1390 1670 2940 7260 8720 16600 20300
2021-03-12 07:00 4.74 2580 31700 (1935) 476 (1954) 5670 966 1110 1390 1670 2940 7260 8720 16600 20300
2021-03-12 06:30 4.72 2550 31700 (1935) 476 (1954) 5670 966 1110 1390 1670 2940 7260 8720 16600 20300
2021-03-12 06:00 4.72 2550 31700 (1935) 476 (1954) 5670 966 1110 1390 1670 2940 7260 8720 16600 20300
2021-03-12 05:30 4.69 2510 31700 (1935) 476 (1954) 5670 966 1110 1390 1670 2940 7260 8720 16600 20300
2021-03-12 05:00 4.69 2510 31700 (1935) 476 (1954) 5670 966 1110 1390 1670 2940 7260 8720 16600 20300
2021-03-12 04:30 4.68 2490 31700 (1935) 476 (1954) 5670 966 1110 1390 1670 2940 7260 8720 16600 20300
2021-03-12 04:00 4.66 2460 31700 (1935) 476 (1954) 5670 966 1110 1390 1670 2940 7260 8720 16600 20300
2021-03-12 03:30 4.65 2450 31700 (1935) 476 (1954) 5670 966 1110 1390 1670 2940 7260 8720 16600 20300
2021-03-12 03:00 4.64 2440 31700 (1935) 476 (1954) 5670 966 1110 1390 1670 2940 7260 8720 16600 20300
2021-03-12 02:30 4.63 2420 31700 (1935) 476 (1954) 5670 966 1110 1390 1670 2940 7260 8720 16600 20300
2021-03-12 02:00 4.62 2410 31700 (1935) 476 (1954) 5670 966 1110 1390 1670 2940 7260 8720 16600 20300
2021-03-12 01:30 4.60 2380 31700 (1935) 476 (1954) 5670 966 1110 1390 1670 2940 7260 8720 16600 20300
2021-03-12 01:00 4.60 2380 31700 (1935) 476 (1954) 5670 966 1110 1390 1670 2940 7260 8720 16600 20300
2021-03-12 00:30 4.59 2370 31700 (1935) 476 (1954) 5670 966 1110 1390 1670 2940 7260 8720 16600 20300
2021-03-12 00:00 4.58 2350 31700 (1935) 476 (1954) 5670 966 1110 1390 1670 2940 7260 8720 16600 20300
2021-03-11 23:30 4.58 2350 25000 (1964) 476 (1954) 5060 961 1100 1410 1530 2830 5790 8010 14100 17100
2021-03-11 23:00 4.58 2350 25000 (1964) 476 (1954) 5060 961 1100 1410 1530 2830 5790 8010 14100 17100
2021-03-11 22:30 4.56 2330 25000 (1964) 476 (1954) 5060 961 1100 1410 1530 2830 5790 8010 14100 17100
2021-03-11 22:00 4.56 2330 25000 (1964) 476 (1954) 5060 961 1100 1410 1530 2830 5790 8010 14100 17100
2021-03-11 21:30 4.56 2330 25000 (1964) 476 (1954) 5060 961 1100 1410 1530 2830 5790 8010 14100 17100
2021-03-11 21:00 4.55 2310 25000 (1964) 476 (1954) 5060 961 1100 1410 1530 2830 5790 8010 14100 17100
2021-03-11 20:30 4.56 2330 25000 (1964) 476 (1954) 5060 961 1100 1410 1530 2830 5790 8010 14100 17100
2021-03-11 20:00 4.55 2310 25000 (1964) 476 (1954) 5060 961 1100 1410 1530 2830 5790 8010 14100 17100
2021-03-11 19:30 4.54 2300 25000 (1964) 476 (1954) 5060 961 1100 1410 1530 2830 5790 8010 14100 17100
2021-03-11 19:00 4.55 2310 25000 (1964) 476 (1954) 5060 961 1100 1410 1530 2830 5790 8010 14100 17100
2021-03-11 18:30 4.54 2300 25000 (1964) 476 (1954) 5060 961 1100 1410 1530 2830 5790 8010 14100 17100
2021-03-11 18:00 4.55 2310 25000 (1964) 476 (1954) 5060 961 1100 1410 1530 2830 5790 8010 14100 17100
2021-03-11 17:30 4.54 2300 25000 (1964) 476 (1954) 5060 961 1100 1410 1530 2830 5790 8010 14100 17100
2021-03-11 17:00 4.54 2300 25000 (1964) 476 (1954) 5060 961 1100 1410 1530 2830 5790 8010 14100 17100
2021-03-11 16:30 4.54 2300 25000 (1964) 476 (1954) 5060 961 1100 1410 1530 2830 5790 8010 14100 17100
2021-03-11 16:00 4.53 2290 25000 (1964) 476 (1954) 5060 961 1100 1410 1530 2830 5790 8010 14100 17100
2021-03-11 15:30 4.53 2290 25000 (1964) 476 (1954) 5060 961 1100 1410 1530 2830 5790 8010 14100 17100
2021-03-11 15:00 4.54 2300 25000 (1964) 476 (1954) 5060 961 1100 1410 1530 2830 5790 8010 14100 17100
2021-03-11 14:30 4.52 2270 25000 (1964) 476 (1954) 5060 961 1100 1410 1530 2830 5790 8010 14100 17100
2021-03-11 14:00 4.53 2290 25000 (1964) 476 (1954) 5060 961 1100 1410 1530 2830 5790 8010 14100 17100
2021-03-11 13:30 4.53 2290 25000 (1964) 476 (1954) 5060 961 1100 1410 1530 2830 5790 8010 14100 17100
2021-03-11 13:00 4.52 2270 25000 (1964) 476 (1954) 5060 961 1100 1410 1530 2830 5790 8010 14100 17100
2021-03-11 12:30 4.53 2290 25000 (1964) 476 (1954) 5060 961 1100 1410 1530 2830 5790 8010 14100 17100
2021-03-11 12:00 4.52 2270 25000 (1964) 476 (1954) 5060 961 1100 1410 1530 2830 5790 8010 14100 17100
2021-03-11 11:30 4.51 2260 25000 (1964) 476 (1954) 5060 961 1100 1410 1530 2830 5790 8010 14100 17100
2021-03-11 11:00 4.50 2240 25000 (1964) 476 (1954) 5060 961 1100 1410 1530 2830 5790 8010 14100 17100
2021-03-11 10:30 4.50 2240 25000 (1964) 476 (1954) 5060 961 1100 1410 1530 2830 5790 8010 14100 17100
2021-03-11 10:00 4.49 2230 25000 (1964) 476 (1954) 5060 961 1100 1410 1530 2830 5790 8010 14100 17100
2021-03-11 09:30 4.49 2230 25000 (1964) 476 (1954) 5060 961 1100 1410 1530 2830 5790 8010 14100 17100
2021-03-11 09:00 4.49 2230 25000 (1964) 476 (1954) 5060 961 1100 1410 1530 2830 5790 8010 14100 17100
2021-03-11 08:30 4.48 2220 25000 (1964) 476 (1954) 5060 961 1100 1410 1530 2830 5790 8010 14100 17100
2021-03-11 08:00 4.48 2220 25000 (1964) 476 (1954) 5060 961 1100 1410 1530 2830 5790 8010 14100 17100
2021-03-11 07:30 4.47 2200 25000 (1964) 476 (1954) 5060 961 1100 1410 1530 2830 5790 8010 14100 17100
2021-03-11 07:00 4.47 2200 25000 (1964) 476 (1954) 5060 961 1100 1410 1530 2830 5790 8010 14100 17100
2021-03-11 06:30 4.43 2150 25000 (1964) 476 (1954) 5060 961 1100 1410 1530 2830 5790 8010 14100 17100
2021-03-11 06:00 4.43 2150 25000 (1964) 476 (1954) 5060 961 1100 1410 1530 2830 5790 8010 14100 17100
2021-03-11 05:30 4.43 2150 25000 (1964) 476 (1954) 5060 961 1100 1410 1530 2830 5790 8010 14100 17100
2021-03-11 05:00 4.42 2140 25000 (1964) 476 (1954) 5060 961 1100 1410 1530 2830 5790 8010 14100 17100
2021-03-11 04:30 4.43 2150 25000 (1964) 476 (1954) 5060 961 1100 1410 1530 2830 5790 8010 14100 17100
2021-03-11 04:00 4.44 2160 25000 (1964) 476 (1954) 5060 961 1100 1410 1530 2830 5790 8010 14100 17100
2021-03-11 03:30 4.43 2150 25000 (1964) 476 (1954) 5060 961 1100 1410 1530 2830 5790 8010 14100 17100
2021-03-11 03:00 4.44 2160 25000 (1964) 476 (1954) 5060 961 1100 1410 1530 2830 5790 8010 14100 17100
2021-03-11 02:30 4.43 2150 25000 (1964) 476 (1954) 5060 961 1100 1410 1530 2830 5790 8010 14100 17100
2021-03-11 02:00 4.44 2160 25000 (1964) 476 (1954) 5060 961 1100 1410 1530 2830 5790 8010 14100 17100
2021-03-11 01:30 4.44 2160 25000 (1964) 476 (1954) 5060 961 1100 1410 1530 2830 5790 8010 14100 17100
2021-03-11 01:00 4.44 2160 25000 (1964) 476 (1954) 5060 961 1100 1410 1530 2830 5790 8010 14100 17100
2021-03-11 00:30 4.44 2160 25000 (1964) 476 (1954) 5060 961 1100 1410 1530 2830 5790 8010 14100 17100
2021-03-11 00:00 4.44 2160 25000 (1964) 476 (1954) 5060 961 1100 1410 1530 2830 5790 8010 14100 17100
2021-03-10 23:30 4.45 2180 34100 (1995) 468 (1954) 4900 1000 1080 1410 1580 2850 5440 6050 13800 17400
2021-03-10 23:00 4.45 2180 34100 (1995) 468 (1954) 4900 1000 1080 1410 1580 2850 5440 6050 13800 17400
2021-03-10 22:30 4.46 2190 34100 (1995) 468 (1954) 4900 1000 1080 1410 1580 2850 5440 6050 13800 17400
2021-03-10 22:00 4.47 2200 34100 (1995) 468 (1954) 4900 1000 1080 1410 1580 2850 5440 6050 13800 17400
2021-03-10 21:30 4.46 2190 34100 (1995) 468 (1954) 4900 1000 1080 1410 1580 2850 5440 6050 13800 17400
2021-03-10 21:00 4.46 2190 34100 (1995) 468 (1954) 4900 1000 1080 1410 1580 2850 5440 6050 13800 17400
2021-03-10 20:30 4.47 2200 34100 (1995) 468 (1954) 4900 1000 1080 1410 1580 2850 5440 6050 13800 17400
2021-03-10 20:00 4.47 2200 34100 (1995) 468 (1954) 4900 1000 1080 1410 1580 2850 5440 6050 13800 17400
2021-03-10 19:30 4.46 2190 34100 (1995) 468 (1954) 4900 1000 1080 1410 1580 2850 5440 6050 13800 17400
2021-03-10 19:00 4.46 2190 34100 (1995) 468 (1954) 4900 1000 1080 1410 1580 2850 5440 6050 13800 17400
2021-03-10 18:30 4.47 2200 34100 (1995) 468 (1954) 4900 1000 1080 1410 1580 2850 5440 6050 13800 17400
2021-03-10 18:00 4.48 2220 34100 (1995) 468 (1954) 4900 1000 1080 1410 1580 2850 5440 6050 13800 17400
2021-03-10 17:30 4.48 2220 34100 (1995) 468 (1954) 4900 1000 1080 1410 1580 2850 5440 6050 13800 17400
2021-03-10 17:00 4.48 2220 34100 (1995) 468 (1954) 4900 1000 1080 1410 1580 2850 5440 6050 13800 17400
2021-03-10 16:30 4.48 2220 34100 (1995) 468 (1954) 4900 1000 1080 1410 1580 2850 5440 6050 13800 17400
2021-03-10 16:00 4.47 2200 34100 (1995) 468 (1954) 4900 1000 1080 1410 1580 2850 5440 6050 13800 17400
2021-03-10 15:30 4.48 2220 34100 (1995) 468 (1954) 4900 1000 1080 1410 1580 2850 5440 6050 13800 17400
2021-03-10 15:00 4.49 2230 34100 (1995) 468 (1954) 4900 1000 1080 1410 1580 2850 5440 6050 13800 17400
2021-03-10 14:30 4.49 2230 34100 (1995) 468 (1954) 4900 1000 1080 1410 1580 2850 5440 6050 13800 17400
2021-03-10 14:00 4.49 2230 34100 (1995) 468 (1954) 4900 1000 1080 1410 1580 2850 5440 6050 13800 17400
2021-03-10 13:30 4.48 2220 34100 (1995) 468 (1954) 4900 1000 1080 1410 1580 2850 5440 6050 13800 17400
2021-03-10 13:00 4.47 2200 34100 (1995) 468 (1954) 4900 1000 1080 1410 1580 2850 5440 6050 13800 17400
2021-03-10 12:30 4.48 2220 34100 (1995) 468 (1954) 4900 1000 1080 1410 1580 2850 5440 6050 13800 17400
2021-03-10 12:00 4.49 2230 34100 (1995) 468 (1954) 4900 1000 1080 1410 1580 2850 5440 6050 13800 17400
2021-03-10 11:30 4.50 2240 34100 (1995) 468 (1954) 4900 1000 1080 1410 1580 2850 5440 6050 13800 17400
2021-03-10 11:00 4.51 2260 34100 (1995) 468 (1954) 4900 1000 1080 1410 1580 2850 5440 6050 13800 17400
2021-03-10 10:30 4.50 2240 34100 (1995) 468 (1954) 4900 1000 1080 1410 1580 2850 5440 6050 13800 17400
2021-03-10 10:00 4.51 2260 34100 (1995) 468 (1954) 4900 1000 1080 1410 1580 2850 5440 6050 13800 17400
2021-03-10 09:30 4.51 2260 34100 (1995) 468 (1954) 4900 1000 1080 1410 1580 2850 5440 6050 13800 17400
2021-03-10 09:00 4.51 2260 34100 (1995) 468 (1954) 4900 1000 1080 1410 1580 2850 5440 6050 13800 17400
2021-03-10 08:30 4.51 2260 34100 (1995) 468 (1954) 4900 1000 1080 1410 1580 2850 5440 6050 13800 17400
2021-03-10 08:00 4.50 2240 34100 (1995) 468 (1954) 4900 1000 1080 1410 1580 2850 5440 6050 13800 17400
2021-03-10 07:30 4.51 2260 34100 (1995) 468 (1954) 4900 1000 1080 1410 1580 2850 5440 6050 13800 17400
2021-03-10 07:00 4.52 2270 34100 (1995) 468 (1954) 4900 1000 1080 1410 1580 2850 5440 6050 13800 17400
2021-03-10 06:30 4.52 2270 34100 (1995) 468 (1954) 4900 1000 1080 1410 1580 2850 5440 6050 13800 17400
2021-03-10 06:00 4.52 2270 34100 (1995) 468 (1954) 4900 1000 1080 1410 1580 2850 5440 6050 13800 17400
2021-03-10 05:30 4.51 2260 34100 (1995) 468 (1954) 4900 1000 1080 1410 1580 2850 5440 6050 13800 17400
2021-03-10 05:00 4.52 2270 34100 (1995) 468 (1954) 4900 1000 1080 1410 1580 2850 5440 6050 13800 17400
2021-03-10 04:30 4.52 2270 34100 (1995) 468 (1954) 4900 1000 1080 1410 1580 2850 5440 6050 13800 17400
2021-03-10 04:00 4.52 2270 34100 (1995) 468 (1954) 4900 1000 1080 1410 1580 2850 5440 6050 13800 17400
2021-03-10 03:30 4.53 2290 34100 (1995) 468 (1954) 4900 1000 1080 1410 1580 2850 5440 6050 13800 17400
2021-03-10 03:00 4.53 2290 34100 (1995) 468 (1954) 4900 1000 1080 1410 1580 2850 5440 6050 13800 17400
2021-03-10 02:30 4.52 2270 34100 (1995) 468 (1954) 4900 1000 1080 1410 1580 2850 5440 6050 13800 17400
2021-03-10 02:00 4.53 2290 34100 (1995) 468 (1954) 4900 1000 1080 1410 1580 2850 5440 6050 13800 17400
2021-03-10 01:30 4.53 2290 34100 (1995) 468 (1954) 4900 1000 1080 1410 1580 2850 5440 6050 13800 17400
2021-03-10 01:00 4.54 2300 34100 (1995) 468 (1954) 4900 1000 1080 1410 1580 2850 5440 6050 13800 17400
2021-03-10 00:30 4.53 2290 34100 (1995) 468 (1954) 4900 1000 1080 1410 1580 2850 5440 6050 13800 17400
2021-03-10 00:00 4.54 2300 34100 (1995) 468 (1954) 4900 1000 1080 1410 1580 2850 5440 6050 13800 17400
2021-03-09 23:30 4.55 2310 35900 (1995) 468 (1954) 4910 904 1140 1530 1660 2830 5250 6370 10700 18000
2021-03-09 23:00 4.55 2310 35900 (1995) 468 (1954) 4910 904 1140 1530 1660 2830 5250 6370 10700 18000
2021-03-09 22:30 4.55 2310 35900 (1995) 468 (1954) 4910 904 1140 1530 1660 2830 5250 6370 10700 18000
2021-03-09 22:00 4.55 2310 35900 (1995) 468 (1954) 4910 904 1140 1530 1660 2830 5250 6370 10700 18000
2021-03-09 21:30 4.55 2310 35900 (1995) 468 (1954) 4910 904 1140 1530 1660 2830 5250 6370 10700 18000
2021-03-09 21:00 4.55 2310 35900 (1995) 468 (1954) 4910 904 1140 1530 1660 2830 5250 6370 10700 18000
2021-03-09 20:30 4.56 2330 35900 (1995) 468 (1954) 4910 904 1140 1530 1660 2830 5250 6370 10700 18000
2021-03-09 20:00 4.55 2310 35900 (1995) 468 (1954) 4910 904 1140 1530 1660 2830 5250 6370 10700 18000
2021-03-09 19:30 4.55 2310 35900 (1995) 468 (1954) 4910 904 1140 1530 1660 2830 5250 6370 10700 18000
2021-03-09 19:00 4.56 2330 35900 (1995) 468 (1954) 4910 904 1140 1530 1660 2830 5250 6370 10700 18000
2021-03-09 18:30 4.56 2330 35900 (1995) 468 (1954) 4910 904 1140 1530 1660 2830 5250 6370 10700 18000
2021-03-09 18:00 4.56 2330 35900 (1995) 468 (1954) 4910 904 1140 1530 1660 2830 5250 6370 10700 18000
2021-03-09 17:30 4.57 2340 35900 (1995) 468 (1954) 4910 904 1140 1530 1660 2830 5250 6370 10700 18000
2021-03-09 17:00 4.57 2340 35900 (1995) 468 (1954) 4910 904 1140 1530 1660 2830 5250 6370 10700 18000
2021-03-09 16:30 4.59 2370 35900 (1995) 468 (1954) 4910 904 1140 1530 1660 2830 5250 6370 10700 18000
2021-03-09 16:00 4.57 2340 35900 (1995) 468 (1954) 4910 904 1140 1530 1660 2830 5250 6370 10700 18000
2021-03-09 15:30 4.58 2350 35900 (1995) 468 (1954) 4910 904 1140 1530 1660 2830 5250 6370 10700 18000
2021-03-09 15:00 4.59 2370 35900 (1995) 468 (1954) 4910 904 1140 1530 1660 2830 5250 6370 10700 18000
2021-03-09 14:30 4.58 2350 35900 (1995) 468 (1954) 4910 904 1140 1530 1660 2830 5250 6370 10700 18000
2021-03-09 14:00 4.59 2370 35900 (1995) 468 (1954) 4910 904 1140 1530 1660 2830 5250 6370 10700 18000
2021-03-09 13:30 4.60 2380 35900 (1995) 468 (1954) 4910 904 1140 1530 1660 2830 5250 6370 10700 18000
2021-03-09 13:00 4.59 2370 35900 (1995) 468 (1954) 4910 904 1140 1530 1660 2830 5250 6370 10700 18000
2021-03-09 12:30 4.58 2350 35900 (1995) 468 (1954) 4910 904 1140 1530 1660 2830 5250 6370 10700 18000
2021-03-09 12:00 4.61 2400 35900 (1995) 468 (1954) 4910 904 1140 1530 1660 2830 5250 6370 10700 18000
2021-03-09 11:30 4.60 2380 35900 (1995) 468 (1954) 4910 904 1140 1530 1660 2830 5250 6370 10700 18000
2021-03-09 11:00 4.60 2380 35900 (1995) 468 (1954) 4910 904 1140 1530 1660 2830 5250 6370 10700 18000
2021-03-09 10:30 4.61 2400 35900 (1995) 468 (1954) 4910 904 1140 1530 1660 2830 5250 6370 10700 18000
2021-03-09 10:00 4.61 2400 35900 (1995) 468 (1954) 4910 904 1140 1530 1660 2830 5250 6370 10700 18000
2021-03-09 09:30 4.61 2400 35900 (1995) 468 (1954) 4910 904 1140 1530 1660 2830 5250 6370 10700 18000
2021-03-09 09:00 4.62 2410 35900 (1995) 468 (1954) 4910 904 1140 1530 1660 2830 5250 6370 10700 18000
2021-03-09 08:30 4.61 2400 35900 (1995) 468 (1954) 4910 904 1140 1530 1660 2830 5250 6370 10700 18000
2021-03-09 08:00 4.62 2410 35900 (1995) 468 (1954) 4910 904 1140 1530 1660 2830 5250 6370 10700 18000
2021-03-09 07:30 4.62 2410 35900 (1995) 468 (1954) 4910 904 1140 1530 1660 2830 5250 6370 10700 18000
2021-03-09 07:00 4.62 2410 35900 (1995) 468 (1954) 4910 904 1140 1530 1660 2830 5250 6370 10700 18000
2021-03-09 06:30 4.63 2420 35900 (1995) 468 (1954) 4910 904 1140 1530 1660 2830 5250 6370 10700 18000
2021-03-09 06:00 4.63 2420 35900 (1995) 468 (1954) 4910 904 1140 1530 1660 2830 5250 6370 10700 18000
2021-03-09 05:30 4.63 2420 35900 (1995) 468 (1954) 4910 904 1140 1530 1660 2830 5250 6370 10700 18000
2021-03-09 05:00 4.64 2440 35900 (1995) 468 (1954) 4910 904 1140 1530 1660 2830 5250 6370 10700 18000
2021-03-09 04:30 4.64 2440 35900 (1995) 468 (1954) 4910 904 1140 1530 1660 2830 5250 6370 10700 18000
2021-03-09 04:00 4.64 2440 35900 (1995) 468 (1954) 4910 904 1140 1530 1660 2830 5250 6370 10700 18000
2021-03-09 03:30 4.64 2440 35900 (1995) 468 (1954) 4910 904 1140 1530 1660 2830 5250 6370 10700 18000
2021-03-09 03:00 4.64 2440 35900 (1995) 468 (1954) 4910 904 1140 1530 1660 2830 5250 6370 10700 18000
2021-03-09 02:30 4.64 2440 35900 (1995) 468 (1954) 4910 904 1140 1530 1660 2830 5250 6370 10700 18000
2021-03-09 02:00 4.65 2450 35900 (1995) 468 (1954) 4910 904 1140 1530 1660 2830 5250 6370 10700 18000
2021-03-09 01:30 4.65 2450 35900 (1995) 468 (1954) 4910 904 1140 1530 1660 2830 5250 6370 10700 18000
2021-03-09 01:00 4.66 2460 35900 (1995) 468 (1954) 4910 904 1140 1530 1660 2830 5250 6370 10700 18000
2021-03-09 00:30 4.65 2450 35900 (1995) 468 (1954) 4910 904 1140 1530 1660 2830 5250 6370 10700 18000
2021-03-09 00:00 4.66 2460 35900 (1995) 468 (1954) 4910 904 1140 1530 1660 2830 5250 6370 10700 18000
2021-03-08 23:30 4.66 2460 34900 (1945) 476 (1954) 4720 918 1080 1490 1620 2710 4770 5500 10300 17700
2021-03-08 23:00 4.67 2480 34900 (1945) 476 (1954) 4720 918 1080 1490 1620 2710 4770 5500 10300 17700
2021-03-08 22:30 4.67 2480 34900 (1945) 476 (1954) 4720 918 1080 1490 1620 2710 4770 5500 10300 17700
2021-03-08 22:00 4.67 2480 34900 (1945) 476 (1954) 4720 918 1080 1490 1620 2710 4770 5500 10300 17700
2021-03-08 21:30 4.67 2480 34900 (1945) 476 (1954) 4720 918 1080 1490 1620 2710 4770 5500 10300 17700
2021-03-08 21:00 4.68 2490 34900 (1945) 476 (1954) 4720 918 1080 1490 1620 2710 4770 5500 10300 17700
2021-03-08 20:30 4.68 2490 34900 (1945) 476 (1954) 4720 918 1080 1490 1620 2710 4770 5500 10300 17700
2021-03-08 20:00 4.68 2490 34900 (1945) 476 (1954) 4720 918 1080 1490 1620 2710 4770 5500 10300 17700
2021-03-08 19:30 4.68 2490 34900 (1945) 476 (1954) 4720 918 1080 1490 1620 2710 4770 5500 10300 17700
2021-03-08 19:00 4.68 2490 34900 (1945) 476 (1954) 4720 918 1080 1490 1620 2710 4770 5500 10300 17700
2021-03-08 18:30 4.69 2510 34900 (1945) 476 (1954) 4720 918 1080 1490 1620 2710 4770 5500 10300 17700
2021-03-08 18:00 4.70 2520 34900 (1945) 476 (1954) 4720 918 1080 1490 1620 2710 4770 5500 10300 17700
2021-03-08 17:30 4.69 2510 34900 (1945) 476 (1954) 4720 918 1080 1490 1620 2710 4770 5500 10300 17700
2021-03-08 17:00 4.70 2520 34900 (1945) 476 (1954) 4720 918 1080 1490 1620 2710 4770 5500 10300 17700
2021-03-08 16:30 4.71 2530 34900 (1945) 476 (1954) 4720 918 1080 1490 1620 2710 4770 5500 10300 17700
2021-03-08 16:00 4.71 2530 34900 (1945) 476 (1954) 4720 918 1080 1490 1620 2710 4770 5500 10300 17700
2021-03-08 15:30 4.71 2530 34900 (1945) 476 (1954) 4720 918 1080 1490 1620 2710 4770 5500 10300 17700
2021-03-08 15:00 4.72 2550 34900 (1945) 476 (1954) 4720 918 1080 1490 1620 2710 4770 5500 10300 17700
2021-03-08 14:30 4.74 2580 34900 (1945) 476 (1954) 4720 918 1080 1490 1620 2710 4770 5500 10300 17700
2021-03-08 14:00 4.73 2560 34900 (1945) 476 (1954) 4720 918 1080 1490 1620 2710 4770 5500 10300 17700
2021-03-08 13:30 4.72 2550 34900 (1945) 476 (1954) 4720 918 1080 1490 1620 2710 4770 5500 10300 17700
2021-03-08 13:00 4.73 2560 34900 (1945) 476 (1954) 4720 918 1080 1490 1620 2710 4770 5500 10300 17700
2021-03-08 12:30 4.73 2560 34900 (1945) 476 (1954) 4720 918 1080 1490 1620 2710 4770 5500 10300 17700
2021-03-08 12:00 4.74 2580 34900 (1945) 476 (1954) 4720 918 1080 1490 1620 2710 4770 5500 10300 17700
2021-03-08 11:30 4.74 2580 34900 (1945) 476 (1954) 4720 918 1080 1490 1620 2710 4770 5500 10300 17700
2021-03-08 11:00 4.75 2590 34900 (1945) 476 (1954) 4720 918 1080 1490 1620 2710 4770 5500 10300 17700
2021-03-08 10:30 4.75 2590 34900 (1945) 476 (1954) 4720 918 1080 1490 1620 2710 4770 5500 10300 17700
2021-03-08 10:00 4.74 2580 34900 (1945) 476 (1954) 4720 918 1080 1490 1620 2710 4770 5500 10300 17700
2021-03-08 09:30 4.74 2580 34900 (1945) 476 (1954) 4720 918 1080 1490 1620 2710 4770 5500 10300 17700
2021-03-08 09:00 4.74 2580 34900 (1945) 476 (1954) 4720 918 1080 1490 1620 2710 4770 5500 10300 17700
2021-03-08 08:30 4.76 2600 34900 (1945) 476 (1954) 4720 918 1080 1490 1620 2710 4770 5500 10300 17700
2021-03-08 08:00 4.76 2600 34900 (1945) 476 (1954) 4720 918 1080 1490 1620 2710 4770 5500 10300 17700
2021-03-08 07:30 4.76 2600 34900 (1945) 476 (1954) 4720 918 1080 1490 1620 2710 4770 5500 10300 17700
2021-03-08 07:00 4.76 2600 34900 (1945) 476 (1954) 4720 918 1080 1490 1620 2710 4770 5500 10300 17700
2021-03-08 06:30 4.77 2620 34900 (1945) 476 (1954) 4720 918 1080 1490 1620 2710 4770 5500 10300 17700
2021-03-08 06:00 4.77 2620 34900 (1945) 476 (1954) 4720 918 1080 1490 1620 2710 4770 5500 10300 17700
2021-03-08 05:30 4.77 2620 34900 (1945) 476 (1954) 4720 918 1080 1490 1620 2710 4770 5500 10300 17700
2021-03-08 05:00 4.77 2620 34900 (1945) 476 (1954) 4720 918 1080 1490 1620 2710 4770 5500 10300 17700
2021-03-08 04:30 4.78 2630 34900 (1945) 476 (1954) 4720 918 1080 1490 1620 2710 4770 5500 10300 17700
2021-03-08 04:00 4.78 2630 34900 (1945) 476 (1954) 4720 918 1080 1490 1620 2710 4770 5500 10300 17700
2021-03-08 03:30 4.79 2650 34900 (1945) 476 (1954) 4720 918 1080 1490 1620 2710 4770 5500 10300 17700
2021-03-08 03:00 4.80 2660 34900 (1945) 476 (1954) 4720 918 1080 1490 1620 2710 4770 5500 10300 17700
2021-03-08 02:30 4.79 2650 34900 (1945) 476 (1954) 4720 918 1080 1490 1620 2710 4770 5500 10300 17700
2021-03-08 02:00 4.80 2660 34900 (1945) 476 (1954) 4720 918 1080 1490 1620 2710 4770 5500 10300 17700
2021-03-08 01:30 4.80 2660 34900 (1945) 476 (1954) 4720 918 1080 1490 1620 2710 4770 5500 10300 17700
2021-03-08 01:00 4.80 2660 34900 (1945) 476 (1954) 4720 918 1080 1490 1620 2710 4770 5500 10300 17700
2021-03-08 00:30 4.81 2680 34900 (1945) 476 (1954) 4720 918 1080 1490 1620 2710 4770 5500 10300 17700
2021-03-08 00:00 4.81 2680 34900 (1945) 476 (1954) 4720 918 1080 1490 1620 2710 4770 5500 10300 17700
2021-03-07 23:30 4.80 2660 26800 (1945) 484 (1954) 4470 900 1080 1510 1580 2750 4340 5370 9700 19100
2021-03-07 23:00 4.81 2680 26800 (1945) 484 (1954) 4470 900 1080 1510 1580 2750 4340 5370 9700 19100
2021-03-07 22:30 4.82 2690 26800 (1945) 484 (1954) 4470 900 1080 1510 1580 2750 4340 5370 9700 19100
2021-03-07 22:00 4.81 2680 26800 (1945) 484 (1954) 4470 900 1080 1510 1580 2750 4340 5370 9700 19100
2021-03-07 21:30 4.82 2690 26800 (1945) 484 (1954) 4470 900 1080 1510 1580 2750 4340 5370 9700 19100
2021-03-07 21:00 4.83 2700 26800 (1945) 484 (1954) 4470 900 1080 1510 1580 2750 4340 5370 9700 19100
2021-03-07 20:30 4.84 2720 26800 (1945) 484 (1954) 4470 900 1080 1510 1580 2750 4340 5370 9700 19100
2021-03-07 20:00 4.83 2700 26800 (1945) 484 (1954) 4470 900 1080 1510 1580 2750 4340 5370 9700 19100
2021-03-07 19:30 4.84 2720 26800 (1945) 484 (1954) 4470 900 1080 1510 1580 2750 4340 5370 9700 19100
2021-03-07 19:00 4.84 2720 26800 (1945) 484 (1954) 4470 900 1080 1510 1580 2750 4340 5370 9700 19100
2021-03-07 18:30 4.84 2720 26800 (1945) 484 (1954) 4470 900 1080 1510 1580 2750 4340 5370 9700 19100
2021-03-07 18:00 4.84 2720 26800 (1945) 484 (1954) 4470 900 1080 1510 1580 2750 4340 5370 9700 19100
2021-03-07 17:30 4.84 2720 26800 (1945) 484 (1954) 4470 900 1080 1510 1580 2750 4340 5370 9700 19100
2021-03-07 17:00 4.85 2730 26800 (1945) 484 (1954) 4470 900 1080 1510 1580 2750 4340 5370 9700 19100
2021-03-07 16:30 4.86 2750 26800 (1945) 484 (1954) 4470 900 1080 1510 1580 2750 4340 5370 9700 19100
2021-03-07 16:00 4.86 2750 26800 (1945) 484 (1954) 4470 900 1080 1510 1580 2750 4340 5370 9700 19100
2021-03-07 15:30 4.86 2750 26800 (1945) 484 (1954) 4470 900 1080 1510 1580 2750 4340 5370 9700 19100
2021-03-07 15:00 4.86 2750 26800 (1945) 484 (1954) 4470 900 1080 1510 1580 2750 4340 5370 9700 19100
2021-03-07 14:30 4.88 2780 26800 (1945) 484 (1954) 4470 900 1080 1510 1580 2750 4340 5370 9700 19100
2021-03-07 14:00 4.88 2780 26800 (1945) 484 (1954) 4470 900 1080 1510 1580 2750 4340 5370 9700 19100
2021-03-07 13:30 4.88 2780 26800 (1945) 484 (1954) 4470 900 1080 1510 1580 2750 4340 5370 9700 19100
2021-03-07 13:00 4.87 2760 26800 (1945) 484 (1954) 4470 900 1080 1510 1580 2750 4340 5370 9700 19100
2021-03-07 12:30 4.88 2780 26800 (1945) 484 (1954) 4470 900 1080 1510 1580 2750 4340 5370 9700 19100
2021-03-07 12:00 4.89 2790 26800 (1945) 484 (1954) 4470 900 1080 1510 1580 2750 4340 5370 9700 19100
2021-03-07 11:30 4.89 2790 26800 (1945) 484 (1954) 4470 900 1080 1510 1580 2750 4340 5370 9700 19100
2021-03-07 11:00 4.90 2800 26800 (1945) 484 (1954) 4470 900 1080 1510 1580 2750 4340 5370 9700 19100
2021-03-07 10:30 4.91 2820 26800 (1945) 484 (1954) 4470 900 1080 1510 1580 2750 4340 5370 9700 19100
2021-03-07 10:00 4.91 2820 26800 (1945) 484 (1954) 4470 900 1080 1510 1580 2750 4340 5370 9700 19100
2021-03-07 09:30 4.91 2820 26800 (1945) 484 (1954) 4470 900 1080 1510 1580 2750 4340 5370 9700 19100
2021-03-07 09:00 4.91 2820 26800 (1945) 484 (1954) 4470 900 1080 1510 1580 2750 4340 5370 9700 19100
2021-03-07 08:30 4.92 2830 26800 (1945) 484 (1954) 4470 900 1080 1510 1580 2750 4340 5370 9700 19100
2021-03-07 08:00 4.92 2830 26800 (1945) 484 (1954) 4470 900 1080 1510 1580 2750 4340 5370 9700 19100
2021-03-07 07:30 4.93 2850 26800 (1945) 484 (1954) 4470 900 1080 1510 1580 2750 4340 5370 9700 19100
2021-03-07 07:00 4.93 2850 26800 (1945) 484 (1954) 4470 900 1080 1510 1580 2750 4340 5370 9700 19100
2021-03-07 06:30 4.93 2850 26800 (1945) 484 (1954) 4470 900 1080 1510 1580 2750 4340 5370 9700 19100
2021-03-07 06:00 4.94 2860 26800 (1945) 484 (1954) 4470 900 1080 1510 1580 2750 4340 5370 9700 19100
2021-03-07 05:30 4.94 2860 26800 (1945) 484 (1954) 4470 900 1080 1510 1580 2750 4340 5370 9700 19100
2021-03-07 05:00 4.95 2880 26800 (1945) 484 (1954) 4470 900 1080 1510 1580 2750 4340 5370 9700 19100
2021-03-07 04:30 4.95 2880 26800 (1945) 484 (1954) 4470 900 1080 1510 1580 2750 4340 5370 9700 19100
2021-03-07 04:00 4.94 2860 26800 (1945) 484 (1954) 4470 900 1080 1510 1580 2750 4340 5370 9700 19100
2021-03-07 03:30 4.95 2880 26800 (1945) 484 (1954) 4470 900 1080 1510 1580 2750 4340 5370 9700 19100
2021-03-07 03:00 4.96 2890 26800 (1945) 484 (1954) 4470 900 1080 1510 1580 2750 4340 5370 9700 19100
2021-03-07 02:30 4.96 2890 26800 (1945) 484 (1954) 4470 900 1080 1510 1580 2750 4340 5370 9700 19100
2021-03-07 02:00 4.97 2910 26800 (1945) 484 (1954) 4470 900 1080 1510 1580 2750 4340 5370 9700 19100
2021-03-07 01:30 4.97 2910 26800 (1945) 484 (1954) 4470 900 1080 1510 1580 2750 4340 5370 9700 19100
2021-03-07 01:00 4.98 2920 26800 (1945) 484 (1954) 4470 900 1080 1510 1580 2750 4340 5370 9700 19100
2021-03-07 00:30 4.97 2910 26800 (1945) 484 (1954) 4470 900 1080 1510 1580 2750 4340 5370 9700 19100
2021-03-07 00:00 4.99 2930 26800 (1945) 484 (1954) 4470 900 1080 1510 1580 2750 4340 5370 9700 19100
2021-03-06 23:30 4.99 2930 27000 (1945) 500 (1954) 4340 851 985 1480 1590 2670 3970 4400 10300 17400
2021-03-06 23:00 4.99 2930 27000 (1945) 500 (1954) 4340 851 985 1480 1590 2670 3970 4400 10300 17400
2021-03-06 22:30 4.99 2930 27000 (1945) 500 (1954) 4340 851 985 1480 1590 2670 3970 4400 10300 17400
2021-03-06 22:00 4.99 2930 27000 (1945) 500 (1954) 4340 851 985 1480 1590 2670 3970 4400 10300 17400
2021-03-06 21:30 4.99 2930 27000 (1945) 500 (1954) 4340 851 985 1480 1590 2670 3970 4400 10300 17400
2021-03-06 21:00 5.01 2960 27000 (1945) 500 (1954) 4340 851 985 1480 1590 2670 3970 4400 10300 17400
2021-03-06 20:30 5.01 2960 27000 (1945) 500 (1954) 4340 851 985 1480 1590 2670 3970 4400 10300 17400
2021-03-06 20:00 5.02 2980 27000 (1945) 500 (1954) 4340 851 985 1480 1590 2670 3970 4400 10300 17400
2021-03-06 19:30 5.03 2990 27000 (1945) 500 (1954) 4340 851 985 1480 1590 2670 3970 4400 10300 17400
2021-03-06 19:00 5.03 2990 27000 (1945) 500 (1954) 4340 851 985 1480 1590 2670 3970 4400 10300 17400
2021-03-06 18:30 5.03 2990 27000 (1945) 500 (1954) 4340 851 985 1480 1590 2670 3970 4400 10300 17400
2021-03-06 18:00 5.04 3010 27000 (1945) 500 (1954) 4340 851 985 1480 1590 2670 3970 4400 10300 17400
2021-03-06 17:30 5.04 3010 27000 (1945) 500 (1954) 4340 851 985 1480 1590 2670 3970 4400 10300 17400
2021-03-06 17:00 5.05 3020 27000 (1945) 500 (1954) 4340 851 985 1480 1590 2670 3970 4400 10300 17400
2021-03-06 16:30 5.05 3020 27000 (1945) 500 (1954) 4340 851 985 1480 1590 2670 3970 4400 10300 17400
2021-03-06 16:00 5.05 3020 27000 (1945) 500 (1954) 4340 851 985 1480 1590 2670 3970 4400 10300 17400
2021-03-06 15:30 5.05 3020 27000 (1945) 500 (1954) 4340 851 985 1480 1590 2670 3970 4400 10300 17400
2021-03-06 15:00 5.07 3050 27000 (1945) 500 (1954) 4340 851 985 1480 1590 2670 3970 4400 10300 17400
2021-03-06 14:30 5.05 3020 27000 (1945) 500 (1954) 4340 851 985 1480 1590 2670 3970 4400 10300 17400
2021-03-06 14:00 5.07 3050 27000 (1945) 500 (1954) 4340 851 985 1480 1590 2670 3970 4400 10300 17400
2021-03-06 13:30 5.08 3070 27000 (1945) 500 (1954) 4340 851 985 1480 1590 2670 3970 4400 10300 17400
2021-03-06 13:00 5.07 3050 27000 (1945) 500 (1954) 4340 851 985 1480 1590 2670 3970 4400 10300 17400
2021-03-06 12:30 5.08 3070 27000 (1945) 500 (1954) 4340 851 985 1480 1590 2670 3970 4400 10300 17400
2021-03-06 12:00 5.08 3070 27000 (1945) 500 (1954) 4340 851 985 1480 1590 2670 3970 4400 10300 17400
2021-03-06 11:30 5.09 3080 27000 (1945) 500 (1954) 4340 851 985 1480 1590 2670 3970 4400 10300 17400
2021-03-06 11:00 5.10 3100 27000 (1945) 500 (1954) 4340 851 985 1480 1590 2670 3970 4400 10300 17400
2021-03-06 10:30 5.11 3110 27000 (1945) 500 (1954) 4340 851 985 1480 1590 2670 3970 4400 10300 17400
2021-03-06 10:00 5.10 3100 27000 (1945) 500 (1954) 4340 851 985 1480 1590 2670 3970 4400 10300 17400
2021-03-06 09:30 5.11 3110 27000 (1945) 500 (1954) 4340 851 985 1480 1590 2670 3970 4400 10300 17400
2021-03-06 09:00 5.12 3130 27000 (1945) 500 (1954) 4340 851 985 1480 1590 2670 3970 4400 10300 17400
2021-03-06 08:30 5.11 3110 27000 (1945) 500 (1954) 4340 851 985 1480 1590 2670 3970 4400 10300 17400
2021-03-06 08:00 5.12 3130 27000 (1945) 500 (1954) 4340 851 985 1480 1590 2670 3970 4400 10300 17400
2021-03-06 07:30 5.12 3130 27000 (1945) 500 (1954) 4340 851 985 1480 1590 2670 3970 4400 10300 17400
2021-03-06 07:00 5.14 3160 27000 (1945) 500 (1954) 4340 851 985 1480 1590 2670 3970 4400 10300 17400
2021-03-06 06:30 5.14 3160 27000 (1945) 500 (1954) 4340 851 985 1480 1590 2670 3970 4400 10300 17400
2021-03-06 06:00 5.14 3160 27000 (1945) 500 (1954) 4340 851 985 1480 1590 2670 3970 4400 10300 17400
2021-03-06 05:30 5.14 3160 27000 (1945) 500 (1954) 4340 851 985 1480 1590 2670 3970 4400 10300 17400
2021-03-06 05:00 5.15 3170 27000 (1945) 500 (1954) 4340 851 985 1480 1590 2670 3970 4400 10300 17400
2021-03-06 04:30 5.16 3180 27000 (1945) 500 (1954) 4340 851 985 1480 1590 2670 3970 4400 10300 17400
2021-03-06 04:00 5.16 3180 27000 (1945) 500 (1954) 4340 851 985 1480 1590 2670 3970 4400 10300 17400
2021-03-06 03:30 5.16 3180 27000 (1945) 500 (1954) 4340 851 985 1480 1590 2670 3970 4400 10300 17400
2021-03-06 03:00 5.17 3200 27000 (1945) 500 (1954) 4340 851 985 1480 1590 2670 3970 4400 10300 17400
2021-03-06 02:30 5.19 3230 27000 (1945) 500 (1954) 4340 851 985 1480 1590 2670 3970 4400 10300 17400
2021-03-06 02:00 5.19 3230 27000 (1945) 500 (1954) 4340 851 985 1480 1590 2670 3970 4400 10300 17400
2021-03-06 01:30 5.18 3210 27000 (1945) 500 (1954) 4340 851 985 1480 1590 2670 3970 4400 10300 17400
2021-03-06 01:00 5.19 3230 27000 (1945) 500 (1954) 4340 851 985 1480 1590 2670 3970 4400 10300 17400
2021-03-06 00:30 5.20 3240 27000 (1945) 500 (1954) 4340 851 985 1480 1590 2670 3970 4400 10300 17400
2021-03-06 00:00 5.19 3230 27000 (1945) 500 (1954) 4340 851 985 1480 1590 2670 3970 4400 10300 17400
2021-03-05 23:30 5.21 3260 24400 (1945) 517 (1954) 4070 766 992 1430 1630 2570 4180 4640 8890 17200
2021-03-05 23:00 5.22 3270 24400 (1945) 517 (1954) 4070 766 992 1430 1630 2570 4180 4640 8890 17200
2021-03-05 22:30 5.22 3270 24400 (1945) 517 (1954) 4070 766 992 1430 1630 2570 4180 4640 8890 17200
2021-03-05 22:00 5.22 3270 24400 (1945) 517 (1954) 4070 766 992 1430 1630 2570 4180 4640 8890 17200
2021-03-05 21:30 5.22 3270 24400 (1945) 517 (1954) 4070 766 992 1430 1630 2570 4180 4640 8890 17200
2021-03-05 21:00 5.23 3290 24400 (1945) 517 (1954) 4070 766 992 1430 1630 2570 4180 4640 8890 17200
2021-03-05 20:30 5.22 3270 24400 (1945) 517 (1954) 4070 766 992 1430 1630 2570 4180 4640 8890 17200
2021-03-05 20:00 5.24 3300 24400 (1945) 517 (1954) 4070 766 992 1430 1630 2570 4180 4640 8890 17200
2021-03-05 19:30 5.23 3290 24400 (1945) 517 (1954) 4070 766 992 1430 1630 2570 4180 4640 8890 17200
2021-03-05 19:00 5.27 3350 24400 (1945) 517 (1954) 4070 766 992 1430 1630 2570 4180 4640 8890 17200
2021-03-05 18:30 5.25 3320 24400 (1945) 517 (1954) 4070 766 992 1430 1630 2570 4180 4640 8890 17200
2021-03-05 18:00 5.26 3330 24400 (1945) 517 (1954) 4070 766 992 1430 1630 2570 4180 4640 8890 17200
2021-03-05 17:30 5.26 3330 24400 (1945) 517 (1954) 4070 766 992 1430 1630 2570 4180 4640 8890 17200
2021-03-05 17:00 5.28 3360 24400 (1945) 517 (1954) 4070 766 992 1430 1630 2570 4180 4640 8890 17200
2021-03-05 16:30 5.27 3350 24400 (1945) 517 (1954) 4070 766 992 1430 1630 2570 4180 4640 8890 17200
2021-03-05 16:00 5.28 3360 24400 (1945) 517 (1954) 4070 766 992 1430 1630 2570 4180 4640 8890 17200
2021-03-05 15:30 5.29 3380 24400 (1945) 517 (1954) 4070 766 992 1430 1630 2570 4180 4640 8890 17200
2021-03-05 15:00 5.29 3380 24400 (1945) 517 (1954) 4070 766 992 1430 1630 2570 4180 4640 8890 17200
2021-03-05 14:30 5.30 3390 24400 (1945) 517 (1954) 4070 766 992 1430 1630 2570 4180 4640 8890 17200
2021-03-05 14:00 5.31 3410 24400 (1945) 517 (1954) 4070 766 992 1430 1630 2570 4180 4640 8890 17200
2021-03-05 13:30 5.31 3410 24400 (1945) 517 (1954) 4070 766 992 1430 1630 2570 4180 4640 8890 17200
2021-03-05 13:00 5.33 3440 24400 (1945) 517 (1954) 4070 766 992 1430 1630 2570 4180 4640 8890 17200
2021-03-05 12:30 5.33 3440 24400 (1945) 517 (1954) 4070 766 992 1430 1630 2570 4180 4640 8890 17200
2021-03-05 12:00 5.30 3390 24400 (1945) 517 (1954) 4070 766 992 1430 1630 2570 4180 4640 8890 17200
2021-03-05 11:30 5.35 3470 24400 (1945) 517 (1954) 4070 766 992 1430 1630 2570 4180 4640 8890 17200
2021-03-05 11:00 5.35 3470 24400 (1945) 517 (1954) 4070 766 992 1430 1630 2570 4180 4640 8890 17200
2021-03-05 10:30 5.35 3470 24400 (1945) 517 (1954) 4070 766 992 1430 1630 2570 4180 4640 8890 17200
2021-03-05 10:00 5.36 3490 24400 (1945) 517 (1954) 4070 766 992 1430 1630 2570 4180 4640 8890 17200
2021-03-05 09:30 5.36 3490 24400 (1945) 517 (1954) 4070 766 992 1430 1630 2570 4180 4640 8890 17200
2021-03-05 09:00 5.36 3490 24400 (1945) 517 (1954) 4070 766 992 1430 1630 2570 4180 4640 8890 17200
2021-03-05 08:30 5.38 3520 24400 (1945) 517 (1954) 4070 766 992 1430 1630 2570 4180 4640 8890 17200
2021-03-05 08:00 5.38 3520 24400 (1945) 517 (1954) 4070 766 992 1430 1630 2570 4180 4640 8890 17200
2021-03-05 07:30 5.38 3520 24400 (1945) 517 (1954) 4070 766 992 1430 1630 2570 4180 4640 8890 17200
2021-03-05 07:00 5.41 3560 24400 (1945) 517 (1954) 4070 766 992 1430 1630 2570 4180 4640 8890 17200
2021-03-05 06:30 5.41 3560 24400 (1945) 517 (1954) 4070 766 992 1430 1630 2570 4180 4640 8890 17200
2021-03-05 06:00 5.39 3530 24400 (1945) 517 (1954) 4070 766 992 1430 1630 2570 4180 4640 8890 17200
2021-03-05 05:30 5.40 3550 24400 (1945) 517 (1954) 4070 766 992 1430 1630 2570 4180 4640 8890 17200
2021-03-05 05:00 5.42 3580 24400 (1945) 517 (1954) 4070 766 992 1430 1630 2570 4180 4640 8890 17200
2021-03-05 04:30 5.44 3610 24400 (1945) 517 (1954) 4070 766 992 1430 1630 2570 4180 4640 8890 17200
2021-03-05 04:00 5.43 3590 24400 (1945) 517 (1954) 4070 766 992 1430 1630 2570 4180 4640 8890 17200
2021-03-05 03:30 5.44 3610 24400 (1945) 517 (1954) 4070 766 992 1430 1630 2570 4180 4640 8890 17200
2021-03-05 03:00 5.44 3610 24400 (1945) 517 (1954) 4070 766 992 1430 1630 2570 4180 4640 8890 17200
2021-03-05 02:30 5.43 3590 24400 (1945) 517 (1954) 4070 766 992 1430 1630 2570 4180 4640 8890 17200
2021-03-05 02:00 5.45 3620 24400 (1945) 517 (1954) 4070 766 992 1430 1630 2570 4180 4640 8890 17200
2021-03-05 01:30 5.46 3640 24400 (1945) 517 (1954) 4070 766 992 1430 1630 2570 4180 4640 8890 17200
2021-03-05 01:00 5.47 3650 24400 (1945) 517 (1954) 4070 766 992 1430 1630 2570 4180 4640 8890 17200
2021-03-05 00:30 5.47 3650 24400 (1945) 517 (1954) 4070 766 992 1430 1630 2570 4180 4640 8890 17200
2021-03-05 00:00 5.49 3690 24400 (1945) 517 (1954) 4070 766 992 1430 1630 2570 4180 4640 8890 17200
2021-03-04 23:30 5.48 3670 26000 (1945) 526 (1954) 3710 766 992 1400 1610 2440 4680 5150 7020 12100
2021-03-04 23:00 5.50 3700 26000 (1945) 526 (1954) 3710 766 992 1400 1610 2440 4680 5150 7020 12100
2021-03-04 22:30 5.50 3700 26000 (1945) 526 (1954) 3710 766 992 1400 1610 2440 4680 5150 7020 12100
2021-03-04 22:00 5.50 3700 26000 (1945) 526 (1954) 3710 766 992 1400 1610 2440 4680 5150 7020 12100
2021-03-04 21:30 5.51 3720 26000 (1945) 526 (1954) 3710 766 992 1400 1610 2440 4680 5150 7020 12100
2021-03-04 21:00 5.52 3730 26000 (1945) 526 (1954) 3710 766 992 1400 1610 2440 4680 5150 7020 12100
2021-03-04 20:30 5.52 3730 26000 (1945) 526 (1954) 3710 766 992 1400 1610 2440 4680 5150 7020 12100
2021-03-04 20:00 5.54 3760 26000 (1945) 526 (1954) 3710 766 992 1400 1610 2440 4680 5150 7020 12100
2021-03-04 19:30 5.55 3780 26000 (1945) 526 (1954) 3710 766 992 1400 1610 2440 4680 5150 7020 12100
2021-03-04 19:00 5.54 3760 26000 (1945) 526 (1954) 3710 766 992 1400 1610 2440 4680 5150 7020 12100
2021-03-04 18:30 5.55 3780 26000 (1945) 526 (1954) 3710 766 992 1400 1610 2440 4680 5150 7020 12100
2021-03-04 18:00 5.56 3790 26000 (1945) 526 (1954) 3710 766 992 1400 1610 2440 4680 5150 7020 12100
2021-03-04 17:30 5.58 3830 26000 (1945) 526 (1954) 3710 766 992 1400 1610 2440 4680 5150 7020 12100
2021-03-04 17:00 5.57 3810 26000 (1945) 526 (1954) 3710 766 992 1400 1610 2440 4680 5150 7020 12100
2021-03-04 16:30 5.58 3830 26000 (1945) 526 (1954) 3710 766 992 1400 1610 2440 4680 5150 7020 12100
2021-03-04 16:00 5.57 3810 26000 (1945) 526 (1954) 3710 766 992 1400 1610 2440 4680 5150 7020 12100
2021-03-04 15:30 5.61 3870 26000 (1945) 526 (1954) 3710 766 992 1400 1610 2440 4680 5150 7020 12100
2021-03-04 15:00 5.60 3860 26000 (1945) 526 (1954) 3710 766 992 1400 1610 2440 4680 5150 7020 12100
2021-03-04 14:30 5.62 3890 26000 (1945) 526 (1954) 3710 766 992 1400 1610 2440 4680 5150 7020 12100
2021-03-04 14:00 5.63 3900 26000 (1945) 526 (1954) 3710 766 992 1400 1610 2440 4680 5150 7020 12100
2021-03-04 13:30 5.62 3890 26000 (1945) 526 (1954) 3710 766 992 1400 1610 2440 4680 5150 7020 12100
2021-03-04 13:00 5.63 3900 26000 (1945) 526 (1954) 3710 766 992 1400 1610 2440 4680 5150 7020 12100
2021-03-04 12:30 5.66 3950 26000 (1945) 526 (1954) 3710 766 992 1400 1610 2440 4680 5150 7020 12100
2021-03-04 12:00 5.67 3970 26000 (1945) 526 (1954) 3710 766 992 1400 1610 2440 4680 5150 7020 12100
2021-03-04 11:30 5.65 3930 26000 (1945) 526 (1954) 3710 766 992 1400 1610 2440 4680 5150 7020 12100
2021-03-04 11:00 5.69 4000 26000 (1945) 526 (1954) 3710 766 992 1400 1610 2440 4680 5150 7020 12100
2021-03-04 10:30 5.68 3980 26000 (1945) 526 (1954) 3710 766 992 1400 1610 2440 4680 5150 7020 12100
2021-03-04 10:00 5.68 3980 26000 (1945) 526 (1954) 3710 766 992 1400 1610 2440 4680 5150 7020 12100
2021-03-04 09:30 5.69 4000 26000 (1945) 526 (1954) 3710 766 992 1400 1610 2440 4680 5150 7020 12100
2021-03-04 09:00 5.72 4050 26000 (1945) 526 (1954) 3710 766 992 1400 1610 2440 4680 5150 7020 12100
2021-03-04 08:30 5.71 4030 26000 (1945) 526 (1954) 3710 766 992 1400 1610 2440 4680 5150 7020 12100
2021-03-04 08:00 5.72 4050 26000 (1945) 526 (1954) 3710 766 992 1400 1610 2440 4680 5150 7020 12100
2021-03-04 07:30 5.75 4090 26000 (1945) 526 (1954) 3710 766 992 1400 1610 2440 4680 5150 7020 12100
2021-03-04 07:00 5.75 4090 26000 (1945) 526 (1954) 3710 766 992 1400 1610 2440 4680 5150 7020 12100
2021-03-04 06:30 5.76 4110 26000 (1945) 526 (1954) 3710 766 992 1400 1610 2440 4680 5150 7020 12100
2021-03-04 06:00 5.76 4110 26000 (1945) 526 (1954) 3710 766 992 1400 1610 2440 4680 5150 7020 12100
2021-03-04 05:30 5.77 4120 26000 (1945) 526 (1954) 3710 766 992 1400 1610 2440 4680 5150 7020 12100
2021-03-04 05:00 5.78 4140 26000 (1945) 526 (1954) 3710 766 992 1400 1610 2440 4680 5150 7020 12100
2021-03-04 04:30 5.80 4170 26000 (1945) 526 (1954) 3710 766 992 1400 1610 2440 4680 5150 7020 12100
2021-03-04 04:00 5.80 4170 26000 (1945) 526 (1954) 3710 766 992 1400 1610 2440 4680 5150 7020 12100
2021-03-04 03:30 5.80 4170 26000 (1945) 526 (1954) 3710 766 992 1400 1610 2440 4680 5150 7020 12100
2021-03-04 03:00 5.83 4220 26000 (1945) 526 (1954) 3710 766 992 1400 1610 2440 4680 5150 7020 12100
2021-03-04 02:30 5.81 4190 26000 (1945) 526 (1954) 3710 766 992 1400 1610 2440 4680 5150 7020 12100
2021-03-04 02:00 5.84 4240 26000 (1945) 526 (1954) 3710 766 992 1400 1610 2440 4680 5150 7020 12100
2021-03-04 01:30 5.84 4240 26000 (1945) 526 (1954) 3710 766 992 1400 1610 2440 4680 5150 7020 12100
2021-03-04 01:00 5.86 4270 26000 (1945) 526 (1954) 3710 766 992 1400 1610 2440 4680 5150 7020 12100
2021-03-04 00:30 5.88 4300 26000 (1945) 526 (1954) 3710 766 992 1400 1610 2440 4680 5150 7020 12100
2021-03-04 00:00 5.88 4300 26000 (1945) 526 (1954) 3710 766 992 1400 1610 2440 4680 5150 7020 12100
2021-03-03 23:30 5.88 4300 20300 (1945) 542 (1954) 3510 725 968 1440 1510 2440 4570 5490 7360 8930
2021-03-03 23:00 5.88 4300 20300 (1945) 542 (1954) 3510 725 968 1440 1510 2440 4570 5490 7360 8930
2021-03-03 22:30 5.89 4320 20300 (1945) 542 (1954) 3510 725 968 1440 1510 2440 4570 5490 7360 8930
2021-03-03 22:00 5.91 4350 20300 (1945) 542 (1954) 3510 725 968 1440 1510 2440 4570 5490 7360 8930
2021-03-03 21:30 5.92 4360 20300 (1945) 542 (1954) 3510 725 968 1440 1510 2440 4570 5490 7360 8930
2021-03-03 21:00 5.93 4380 20300 (1945) 542 (1954) 3510 725 968 1440 1510 2440 4570 5490 7360 8930
2021-03-03 20:30 5.93 4380 20300 (1945) 542 (1954) 3510 725 968 1440 1510 2440 4570 5490 7360 8930
2021-03-03 20:00 5.95 4410 20300 (1945) 542 (1954) 3510 725 968 1440 1510 2440 4570 5490 7360 8930
2021-03-03 19:30 5.95 4410 20300 (1945) 542 (1954) 3510 725 968 1440 1510 2440 4570 5490 7360 8930
2021-03-03 19:00 5.96 4430 20300 (1945) 542 (1954) 3510 725 968 1440 1510 2440 4570 5490 7360 8930
2021-03-03 18:30 5.97 4450 20300 (1945) 542 (1954) 3510 725 968 1440 1510 2440 4570 5490 7360 8930
2021-03-03 18:00 5.99 4480 20300 (1945) 542 (1954) 3510 725 968 1440 1510 2440 4570 5490 7360 8930
2021-03-03 17:30 5.98 4460 20300 (1945) 542 (1954) 3510 725 968 1440 1510 2440 4570 5490 7360 8930
2021-03-03 17:00 6.00 4490 20300 (1945) 542 (1954) 3510 725 968 1440 1510 2440 4570 5490 7360 8930
2021-03-03 16:30 6.01 4510 20300 (1945) 542 (1954) 3510 725 968 1440 1510 2440 4570 5490 7360 8930
2021-03-03 16:00 6.04 4560 20300 (1945) 542 (1954) 3510 725 968 1440 1510 2440 4570 5490 7360 8930
2021-03-03 15:30 6.03 4540 20300 (1945) 542 (1954) 3510 725 968 1440 1510 2440 4570 5490 7360 8930
2021-03-03 15:00 6.04 4560 20300 (1945) 542 (1954) 3510 725 968 1440 1510 2440 4570 5490 7360 8930
2021-03-03 14:30 6.04 4560 20300 (1945) 542 (1954) 3510 725 968 1440 1510 2440 4570 5490 7360 8930
2021-03-03 14:00 6.08 4630 20300 (1945) 542 (1954) 3510 725 968 1440 1510 2440 4570 5490 7360 8930
2021-03-03 13:30 6.07 4610 20300 (1945) 542 (1954) 3510 725 968 1440 1510 2440 4570 5490 7360 8930
2021-03-03 13:00 6.10 4660 20300 (1945) 542 (1954) 3510 725 968 1440 1510 2440 4570 5490 7360 8930
2021-03-03 12:30 6.09 4640 20300 (1945) 542 (1954) 3510 725 968 1440 1510 2440 4570 5490 7360 8930
2021-03-03 12:00 6.11 4670 20300 (1945) 542 (1954) 3510 725 968 1440 1510 2440 4570 5490 7360 8930
2021-03-03 11:30 6.12 4690 20300 (1945) 542 (1954) 3510 725 968 1440 1510 2440 4570 5490 7360 8930
2021-03-03 11:00 6.12 4690 20300 (1945) 542 (1954) 3510 725 968 1440 1510 2440 4570 5490 7360 8930
2021-03-03 10:30 6.13 4710 20300 (1945) 542 (1954) 3510 725 968 1440 1510 2440 4570 5490 7360 8930
2021-03-03 10:00 6.12 4690 20300 (1945) 542 (1954) 3510 725 968 1440 1510 2440 4570 5490 7360 8930
2021-03-03 09:30 6.14 4720 20300 (1945) 542 (1954) 3510 725 968 1440 1510 2440 4570 5490 7360 8930
2021-03-03 09:00 6.17 4770 20300 (1945) 542 (1954) 3510 725 968 1440 1510 2440 4570 5490 7360 8930
2021-03-03 08:30 6.18 4790 20300 (1945) 542 (1954) 3510 725 968 1440 1510 2440 4570 5490 7360 8930
2021-03-03 08:00 6.18 4790 20300 (1945) 542 (1954) 3510 725 968 1440 1510 2440 4570 5490 7360 8930
2021-03-03 07:30 6.19 4810 20300 (1945) 542 (1954) 3510 725 968 1440 1510 2440 4570 5490 7360 8930
2021-03-03 07:00 6.21 4840 20300 (1945) 542 (1954) 3510 725 968 1440 1510 2440 4570 5490 7360 8930
2021-03-03 06:30 6.21 4840 20300 (1945) 542 (1954) 3510 725 968 1440 1510 2440 4570 5490 7360 8930
2021-03-03 06:00 6.21 4840 20300 (1945) 542 (1954) 3510 725 968 1440 1510 2440 4570 5490 7360 8930
2021-03-03 05:30 6.22 4860 20300 (1945) 542 (1954) 3510 725 968 1440 1510 2440 4570 5490 7360 8930
2021-03-03 05:00 6.24 4890 20300 (1945) 542 (1954) 3510 725 968 1440 1510 2440 4570 5490 7360 8930
2021-03-03 04:30 6.27 4940 20300 (1945) 542 (1954) 3510 725 968 1440 1510 2440 4570 5490 7360 8930
2021-03-03 04:00 6.25 4910 20300 (1945) 542 (1954) 3510 725 968 1440 1510 2440 4570 5490 7360 8930
2021-03-03 03:30 6.27 4940 20300 (1945) 542 (1954) 3510 725 968 1440 1510 2440 4570 5490 7360 8930
2021-03-03 03:00 6.28 4960 20300 (1945) 542 (1954) 3510 725 968 1440 1510 2440 4570 5490 7360 8930
2021-03-03 02:30 6.29 4970 20300 (1945) 542 (1954) 3510 725 968 1440 1510 2440 4570 5490 7360 8930
2021-03-03 02:00 6.31 5010 20300 (1945) 542 (1954) 3510 725 968 1440 1510 2440 4570 5490 7360 8930
2021-03-03 01:30 6.31 5010 20300 (1945) 542 (1954) 3510 725 968 1440 1510 2440 4570 5490 7360 8930
2021-03-03 01:00 6.33 5040 20300 (1945) 542 (1954) 3510 725 968 1440 1510 2440 4570 5490 7360 8930
2021-03-03 00:30 6.34 5060 20300 (1945) 542 (1954) 3510 725 968 1440 1510 2440 4570 5490 7360 8930
2021-03-03 00:00 6.35 5070 20300 (1945) 542 (1954) 3510 725 968 1440 1510 2440 4570 5490 7360 8930
2021-03-02 23:30 6.36 5090 32200 (1997) 517 (1954) 3870 751 968 1270 1500 2370 4560 5590 8410 11400
2021-03-02 23:00 6.37 5110 32200 (1997) 517 (1954) 3870 751 968 1270 1500 2370 4560 5590 8410 11400
2021-03-02 22:30 6.36 5090 32200 (1997) 517 (1954) 3870 751 968 1270 1500 2370 4560 5590 8410 11400
2021-03-02 22:00 6.38 5120 32200 (1997) 517 (1954) 3870 751 968 1270 1500 2370 4560 5590 8410 11400
2021-03-02 21:30 6.39 5140 32200 (1997) 517 (1954) 3870 751 968 1270 1500 2370 4560 5590 8410 11400
2021-03-02 21:00 6.39 5140 32200 (1997) 517 (1954) 3870 751 968 1270 1500 2370 4560 5590 8410 11400
2021-03-02 20:30 6.43 5210 32200 (1997) 517 (1954) 3870 751 968 1270 1500 2370 4560 5590 8410 11400
2021-03-02 20:00 6.44 5220 32200 (1997) 517 (1954) 3870 751 968 1270 1500 2370 4560 5590 8410 11400
2021-03-02 19:30 6.45 5240 32200 (1997) 517 (1954) 3870 751 968 1270 1500 2370 4560 5590 8410 11400
2021-03-02 19:00 6.47 5280 32200 (1997) 517 (1954) 3870 751 968 1270 1500 2370 4560 5590 8410 11400
2021-03-02 18:30 6.47 5280 32200 (1997) 517 (1954) 3870 751 968 1270 1500 2370 4560 5590 8410 11400
2021-03-02 18:00 6.48 5290 32200 (1997) 517 (1954) 3870 751 968 1270 1500 2370 4560 5590 8410 11400
2021-03-02 17:30 6.48 5290 32200 (1997) 517 (1954) 3870 751 968 1270 1500 2370 4560 5590 8410 11400
2021-03-02 17:00 6.51 5340 32200 (1997) 517 (1954) 3870 751 968 1270 1500 2370 4560 5590 8410 11400
2021-03-02 16:30 6.52 5360 32200 (1997) 517 (1954) 3870 751 968 1270 1500 2370 4560 5590 8410 11400
2021-03-02 16:00 6.51 5340 32200 (1997) 517 (1954) 3870 751 968 1270 1500 2370 4560 5590 8410 11400
2021-03-02 15:30 6.54 5390 32200 (1997) 517 (1954) 3870 751 968 1270 1500 2370 4560 5590 8410 11400
2021-03-02 15:00 6.53 5380 32200 (1997) 517 (1954) 3870 751 968 1270 1500 2370 4560 5590 8410 11400
2021-03-02 14:30 6.56 5430 32200 (1997) 517 (1954) 3870 751 968 1270 1500 2370 4560 5590 8410 11400
2021-03-02 14:00 6.56 5430 32200 (1997) 517 (1954) 3870 751 968 1270 1500 2370 4560 5590 8410 11400
2021-03-02 13:30 6.56 5430 32200 (1997) 517 (1954) 3870 751 968 1270 1500 2370 4560 5590 8410 11400
2021-03-02 13:00 6.59 5480 32200 (1997) 517 (1954) 3870 751 968 1270 1500 2370 4560 5590 8410 11400
2021-03-02 12:30 6.59 5480 32200 (1997) 517 (1954) 3870 751 968 1270 1500 2370 4560 5590 8410 11400
2021-03-02 12:00 6.59 5480 32200 (1997) 517 (1954) 3870 751 968 1270 1500 2370 4560 5590 8410 11400
2021-03-02 11:00 6.61 5510 32200 (1997) 517 (1954) 3870 751 968 1270 1500 2370 4560 5590 8410 11400
2021-03-02 10:30 6.62 5530 32200 (1997) 517 (1954) 3870 751 968 1270 1500 2370 4560 5590 8410 11400
2021-03-02 10:00 6.64 5570 32200 (1997) 517 (1954) 3870 751 968 1270 1500 2370 4560 5590 8410 11400
2021-03-02 09:30 6.62 5530 32200 (1997) 517 (1954) 3870 751 968 1270 1500 2370 4560 5590 8410 11400
2021-03-02 09:00 6.64 5570 32200 (1997) 517 (1954) 3870 751 968 1270 1500 2370 4560 5590 8410 11400
2021-03-02 08:30 6.64 5570 32200 (1997) 517 (1954) 3870 751 968 1270 1500 2370 4560 5590 8410 11400
2021-03-02 08:00 6.64 5570 32200 (1997) 517 (1954) 3870 751 968 1270 1500 2370 4560 5590 8410 11400
2021-03-02 07:30 6.65 5580 32200 (1997) 517 (1954) 3870 751 968 1270 1500 2370 4560 5590 8410 11400
2021-03-02 07:00 6.65 5580 32200 (1997) 517 (1954) 3870 751 968 1270 1500 2370 4560 5590 8410 11400
2021-03-02 06:30 6.64 5570 32200 (1997) 517 (1954) 3870 751 968 1270 1500 2370 4560 5590 8410 11400
2021-03-02 06:00 6.66 5600 32200 (1997) 517 (1954) 3870 751 968 1270 1500 2370 4560 5590 8410 11400
2021-03-02 05:30 6.65 5580 32200 (1997) 517 (1954) 3870 751 968 1270 1500 2370 4560 5590 8410 11400
2021-03-02 05:00 6.66 5600 32200 (1997) 517 (1954) 3870 751 968 1270 1500 2370 4560 5590 8410 11400
2021-03-02 04:30 6.67 5620 32200 (1997) 517 (1954) 3870 751 968 1270 1500 2370 4560 5590 8410 11400
2021-03-02 04:00 6.65 5580 32200 (1997) 517 (1954) 3870 751 968 1270 1500 2370 4560 5590 8410 11400
2021-03-02 03:30 6.67 5620 32200 (1997) 517 (1954) 3870 751 968 1270 1500 2370 4560 5590 8410 11400
2021-03-02 03:00 6.67 5620 32200 (1997) 517 (1954) 3870 751 968 1270 1500 2370 4560 5590 8410 11400
2021-03-02 02:30 6.67 5620 32200 (1997) 517 (1954) 3870 751 968 1270 1500 2370 4560 5590 8410 11400
2021-03-02 02:00 6.65 5580 32200 (1997) 517 (1954) 3870 751 968 1270 1500 2370 4560 5590 8410 11400
2021-03-02 01:30 6.67 5620 32200 (1997) 517 (1954) 3870 751 968 1270 1500 2370 4560 5590 8410 11400
2021-03-02 01:00 6.65 5580 32200 (1997) 517 (1954) 3870 751 968 1270 1500 2370 4560 5590 8410 11400
2021-03-02 00:30 6.65 5580 32200 (1997) 517 (1954) 3870 751 968 1270 1500 2370 4560 5590 8410 11400
2021-03-02 00:00 6.65 5580 32200 (1997) 517 (1954) 3870 751 968 1270 1500 2370 4560 5590 8410 11400
2021-03-01 23:30 6.65 5580 39800 (1997) 517 (1954) 4120 727 971 1300 1420 2510 5020 5530 9510 10800
2021-03-01 23:00 6.64 5570 39800 (1997) 517 (1954) 4120 727 971 1300 1420 2510 5020 5530 9510 10800
2021-03-01 22:30 6.63 5550 39800 (1997) 517 (1954) 4120 727 971 1300 1420 2510 5020 5530 9510 10800
2021-03-01 22:00 6.65 5580 39800 (1997) 517 (1954) 4120 727 971 1300 1420 2510 5020 5530 9510 10800
2021-03-01 21:30 6.65 5580 39800 (1997) 517 (1954) 4120 727 971 1300 1420 2510 5020 5530 9510 10800
2021-03-01 21:00 6.64 5570 39800 (1997) 517 (1954) 4120 727 971 1300 1420 2510 5020 5530 9510 10800
2021-03-01 20:30 6.64 5570 39800 (1997) 517 (1954) 4120 727 971 1300 1420 2510 5020 5530 9510 10800
2021-03-01 20:00 6.62 5530 39800 (1997) 517 (1954) 4120 727 971 1300 1420 2510 5020 5530 9510 10800
2021-03-01 19:30 6.64 5570 39800 (1997) 517 (1954) 4120 727 971 1300 1420 2510 5020 5530 9510 10800
2021-03-01 19:00 6.64 5570 39800 (1997) 517 (1954) 4120 727 971 1300 1420 2510 5020 5530 9510 10800
2021-03-01 18:30 6.64 5570 39800 (1997) 517 (1954) 4120 727 971 1300 1420 2510 5020 5530 9510 10800
2021-03-01 18:00 6.63 5550 39800 (1997) 517 (1954) 4120 727 971 1300 1420 2510 5020 5530 9510 10800
2021-03-01 17:30 6.61 5510 39800 (1997) 517 (1954) 4120 727 971 1300 1420 2510 5020 5530 9510 10800
2021-03-01 17:00 6.63 5550 39800 (1997) 517 (1954) 4120 727 971 1300 1420 2510 5020 5530 9510 10800
2021-03-01 16:30 6.62 5530 39800 (1997) 517 (1954) 4120 727 971 1300 1420 2510 5020 5530 9510 10800
2021-03-01 16:00 6.59 5480 39800 (1997) 517 (1954) 4120 727 971 1300 1420 2510 5020 5530 9510 10800
2021-03-01 15:30 6.61 5510 39800 (1997) 517 (1954) 4120 727 971 1300 1420 2510 5020 5530 9510 10800
2021-03-01 15:00 6.59 5480 39800 (1997) 517 (1954) 4120 727 971 1300 1420 2510 5020 5530 9510 10800
2021-03-01 14:30 6.57 5450 39800 (1997) 517 (1954) 4120 727 971 1300 1420 2510 5020 5530 9510 10800
2021-03-01 14:00 6.56 5430 39800 (1997) 517 (1954) 4120 727 971 1300 1420 2510 5020 5530 9510 10800
2021-03-01 13:30 6.53 5380 39800 (1997) 517 (1954) 4120 727 971 1300 1420 2510 5020 5530 9510 10800
2021-03-01 13:00 6.51 5340 39800 (1997) 517 (1954) 4120 727 971 1300 1420 2510 5020 5530 9510 10800
2021-03-01 12:30 6.49 5310 39800 (1997) 517 (1954) 4120 727 971 1300 1420 2510 5020 5530 9510 10800
2021-03-01 12:00 6.45 5240 39800 (1997) 517 (1954) 4120 727 971 1300 1420 2510 5020 5530 9510 10800
2021-03-01 11:30 6.41 5170 39800 (1997) 517 (1954) 4120 727 971 1300 1420 2510 5020 5530 9510 10800
2021-03-01 11:00 6.40 5160 39800 (1997) 517 (1954) 4120 727 971 1300 1420 2510 5020 5530 9510 10800
2021-03-01 10:30 6.36 5090 39800 (1997) 517 (1954) 4120 727 971 1300 1420 2510 5020 5530 9510 10800
2021-03-01 10:00 6.34 5060 39800 (1997) 517 (1954) 4120 727 971 1300 1420 2510 5020 5530 9510 10800
2021-03-01 09:30 6.31 5010 39800 (1997) 517 (1954) 4120 727 971 1300 1420 2510 5020 5530 9510 10800
2021-03-01 09:00 6.26 4920 39800 (1997) 517 (1954) 4120 727 971 1300 1420 2510 5020 5530 9510 10800
2021-03-01 08:30 6.22 4860 39800 (1997) 517 (1954) 4120 727 971 1300 1420 2510 5020 5530 9510 10800
2021-03-01 08:00 6.18 4790 39800 (1997) 517 (1954) 4120 727 971 1300 1420 2510 5020 5530 9510 10800
2021-03-01 07:30 6.16 4760 39800 (1997) 517 (1954) 4120 727 971 1300 1420 2510 5020 5530 9510 10800
2021-03-01 07:00 6.13 4710 39800 (1997) 517 (1954) 4120 727 971 1300 1420 2510 5020 5530 9510 10800
2021-03-01 06:30 6.10 4660 39800 (1997) 517 (1954) 4120 727 971 1300 1420 2510 5020 5530 9510 10800
2021-03-01 06:00 6.08 4630 39800 (1997) 517 (1954) 4120 727 971 1300 1420 2510 5020 5530 9510 10800
2021-03-01 05:30 6.04 4560 39800 (1997) 517 (1954) 4120 727 971 1300 1420 2510 5020 5530 9510 10800
2021-03-01 05:00 5.99 4480 39800 (1997) 517 (1954) 4120 727 971 1300 1420 2510 5020 5530 9510 10800
2021-03-01 04:30 5.98 4460 39800 (1997) 517 (1954) 4120 727 971 1300 1420 2510 5020 5530 9510 10800
2021-03-01 04:00 5.98 4460 39800 (1997) 517 (1954) 4120 727 971 1300 1420 2510 5020 5530 9510 10800
2021-03-01 03:30 5.94 4400 39800 (1997) 517 (1954) 4120 727 971 1300 1420 2510 5020 5530 9510 10800
2021-03-01 03:00 5.94 4400 39800 (1997) 517 (1954) 4120 727 971 1300 1420 2510 5020 5530 9510 10800
2021-03-01 02:30 5.91 4350 39800 (1997) 517 (1954) 4120 727 971 1300 1420 2510 5020 5530 9510 10800
2021-03-01 02:00 5.90 4330 39800 (1997) 517 (1954) 4120 727 971 1300 1420 2510 5020 5530 9510 10800
2021-03-01 01:30 5.87 4280 39800 (1997) 517 (1954) 4120 727 971 1300 1420 2510 5020 5530 9510 10800
2021-03-01 01:00 5.87 4280 39800 (1997) 517 (1954) 4120 727 971 1300 1420 2510 5020 5530 9510 10800
2021-03-01 00:30 5.86 4270 39800 (1997) 517 (1954) 4120 727 971 1300 1420 2510 5020 5530 9510 10800
2021-03-01 00:00 5.86 4270 39800 (1997) 517 (1954) 4120 727 971 1300 1420 2510 5020 5530 9510 10800
2021-02-28 23:30 5.86 4270 34900 (2018) 517 (1954) 4800 736 955 1330 1470 2430 5100 6050 11200 22400
2021-02-28 23:00 5.86 4270 34900 (2018) 517 (1954) 4800 736 955 1330 1470 2430 5100 6050 11200 22400
2021-02-28 22:30 5.85 4250 34900 (2018) 517 (1954) 4800 736 955 1330 1470 2430 5100 6050 11200 22400
2021-02-28 22:00 5.84 4240 34900 (2018) 517 (1954) 4800 736 955 1330 1470 2430 5100 6050 11200 22400
2021-02-28 21:30 5.84 4240 34900 (2018) 517 (1954) 4800 736 955 1330 1470 2430 5100 6050 11200 22400
2021-02-28 21:00 5.83 4220 34900 (2018) 517 (1954) 4800 736 955 1330 1470 2430 5100 6050 11200 22400
2021-02-28 20:30 5.82 4200 34900 (2018) 517 (1954) 4800 736 955 1330 1470 2430 5100 6050 11200 22400
2021-02-28 20:00 5.83 4220 34900 (2018) 517 (1954) 4800 736 955 1330 1470 2430 5100 6050 11200 22400
2021-02-28 19:30 5.81 4190 34900 (2018) 517 (1954) 4800 736 955 1330 1470 2430 5100 6050 11200 22400
2021-02-28 19:00 5.82 4200 34900 (2018) 517 (1954) 4800 736 955 1330 1470 2430 5100 6050 11200 22400
2021-02-28 18:30 5.80 4170 34900 (2018) 517 (1954) 4800 736 955 1330 1470 2430 5100 6050 11200 22400
2021-02-28 18:00 5.77 4120 34900 (2018) 517 (1954) 4800 736 955 1330 1470 2430 5100 6050 11200 22400
2021-02-28 17:30 5.76 4110 34900 (2018) 517 (1954) 4800 736 955 1330 1470 2430 5100 6050 11200 22400
2021-02-28 17:00 5.75 4090 34900 (2018) 517 (1954) 4800 736 955 1330 1470 2430 5100 6050 11200 22400
2021-02-28 16:30 5.73 4060 34900 (2018) 517 (1954) 4800 736 955 1330 1470 2430 5100 6050 11200 22400
2021-02-28 16:00 5.72 4050 34900 (2018) 517 (1954) 4800 736 955 1330 1470 2430 5100 6050 11200 22400
2021-02-28 15:30 5.70 4010 34900 (2018) 517 (1954) 4800 736 955 1330 1470 2430 5100 6050 11200 22400
2021-02-28 15:00 5.66 3950 34900 (2018) 517 (1954) 4800 736 955 1330 1470 2430 5100 6050 11200 22400
2021-02-28 14:30 5.65 3930 34900 (2018) 517 (1954) 4800 736 955 1330 1470 2430 5100 6050 11200 22400
2021-02-28 14:00 5.62 3890 34900 (2018) 517 (1954) 4800 736 955 1330 1470 2430 5100 6050 11200 22400
2021-02-28 13:30 5.61 3870 34900 (2018) 517 (1954) 4800 736 955 1330 1470 2430 5100 6050 11200 22400
2021-02-28 13:00 5.59 3840 34900 (2018) 517 (1954) 4800 736 955 1330 1470 2430 5100 6050 11200 22400
2021-02-28 12:30 5.57 3810 34900 (2018) 517 (1954) 4800 736 955 1330 1470 2430 5100 6050 11200 22400
2021-02-28 12:00 5.56 3790 34900 (2018) 517 (1954) 4800 736 955 1330 1470 2430 5100 6050 11200 22400
2021-02-28 11:30 5.55 3780 34900 (2018) 517 (1954) 4800 736 955 1330 1470 2430 5100 6050 11200 22400
2021-02-28 11:00 5.54 3760 34900 (2018) 517 (1954) 4800 736 955 1330 1470 2430 5100 6050 11200 22400
2021-02-28 10:30 5.51 3720 34900 (2018) 517 (1954) 4800 736 955 1330 1470 2430 5100 6050 11200 22400
2021-02-28 10:00 5.49 3690 34900 (2018) 517 (1954) 4800 736 955 1330 1470 2430 5100 6050 11200 22400
2021-02-28 09:30 5.44 3610 34900 (2018) 517 (1954) 4800 736 955 1330 1470 2430 5100 6050 11200 22400
2021-02-28 09:00 5.41 3560 34900 (2018) 517 (1954) 4800 736 955 1330 1470 2430 5100 6050 11200 22400
2021-02-28 08:30 5.41 3560 34900 (2018) 517 (1954) 4800 736 955 1330 1470 2430 5100 6050 11200 22400
2021-02-28 08:00 5.38 3520 34900 (2018) 517 (1954) 4800 736 955 1330 1470 2430 5100 6050 11200 22400
2021-02-28 07:30 5.36 3490 34900 (2018) 517 (1954) 4800 736 955 1330 1470 2430 5100 6050 11200 22400
2021-02-28 07:00 5.33 3440 34900 (2018) 517 (1954) 4800 736 955 1330 1470 2430 5100 6050 11200 22400
2021-02-28 06:30 5.31 3410 34900 (2018) 517 (1954) 4800 736 955 1330 1470 2430 5100 6050 11200 22400
2021-02-28 06:00 5.30 3390 34900 (2018) 517 (1954) 4800 736 955 1330 1470 2430 5100 6050 11200 22400
2021-02-28 05:30 5.27 3350 34900 (2018) 517 (1954) 4800 736 955 1330 1470 2430 5100 6050 11200 22400
2021-02-28 05:00 5.25 3320 34900 (2018) 517 (1954) 4800 736 955 1330 1470 2430 5100 6050 11200 22400
2021-02-28 04:30 5.22 3270 34900 (2018) 517 (1954) 4800 736 955 1330 1470 2430 5100 6050 11200 22400
2021-02-28 04:00 5.20 3240 34900 (2018) 517 (1954) 4800 736 955 1330 1470 2430 5100 6050 11200 22400
2021-02-28 03:30 5.20 3240 34900 (2018) 517 (1954) 4800 736 955 1330 1470 2430 5100 6050 11200 22400
2021-02-28 03:00 5.18 3210 34900 (2018) 517 (1954) 4800 736 955 1330 1470 2430 5100 6050 11200 22400
2021-02-28 02:30 5.16 3180 34900 (2018) 517 (1954) 4800 736 955 1330 1470 2430 5100 6050 11200 22400
2021-02-28 02:00 5.16 3180 34900 (2018) 517 (1954) 4800 736 955 1330 1470 2430 5100 6050 11200 22400
2021-02-28 01:30 5.16 3180 34900 (2018) 517 (1954) 4800 736 955 1330 1470 2430 5100 6050 11200 22400
2021-02-28 01:00 5.16 3180 34900 (2018) 517 (1954) 4800 736 955 1330 1470 2430 5100 6050 11200 22400
2021-02-28 00:30 5.15 3170 34900 (2018) 517 (1954) 4800 736 955 1330 1470 2430 5100 6050 11200 22400
2021-02-28 00:00 5.14 3160 34900 (2018) 517 (1954) 4800 736 955 1330 1470 2430 5100 6050 11200 22400
2021-02-27 23:30 5.16 3180 62900 (1985) 517 (1954) 5470 742 960 1260 1520 2360 5010 5920 14600 21700
2021-02-27 23:00 5.15 3170 62900 (1985) 517 (1954) 5470 742 960 1260 1520 2360 5010 5920 14600 21700
2021-02-27 22:30 5.15 3170 62900 (1985) 517 (1954) 5470 742 960 1260 1520 2360 5010 5920 14600 21700
2021-02-27 22:00 5.16 3180 62900 (1985) 517 (1954) 5470 742 960 1260 1520 2360 5010 5920 14600 21700
2021-02-27 21:30 5.16 3180 62900 (1985) 517 (1954) 5470 742 960 1260 1520 2360 5010 5920 14600 21700
2021-02-27 21:00 5.15 3170 62900 (1985) 517 (1954) 5470 742 960 1260 1520 2360 5010 5920 14600 21700
2021-02-27 20:30 5.16 3180 62900 (1985) 517 (1954) 5470 742 960 1260 1520 2360 5010 5920 14600 21700
2021-02-27 20:00 5.14 3160 62900 (1985) 517 (1954) 5470 742 960 1260 1520 2360 5010 5920 14600 21700
2021-02-27 19:30 5.17 3200 62900 (1985) 517 (1954) 5470 742 960 1260 1520 2360 5010 5920 14600 21700
2021-02-27 19:00 5.15 3170 62900 (1985) 517 (1954) 5470 742 960 1260 1520 2360 5010 5920 14600 21700
2021-02-27 18:30 5.17 3200 62900 (1985) 517 (1954) 5470 742 960 1260 1520 2360 5010 5920 14600 21700
2021-02-27 18:00 5.17 3200 62900 (1985) 517 (1954) 5470 742 960 1260 1520 2360 5010 5920 14600 21700
2021-02-27 17:30 5.17 3200 62900 (1985) 517 (1954) 5470 742 960 1260 1520 2360 5010 5920 14600 21700
2021-02-27 17:00 5.18 3210 62900 (1985) 517 (1954) 5470 742 960 1260 1520 2360 5010 5920 14600 21700
2021-02-27 16:30 5.19 3230 62900 (1985) 517 (1954) 5470 742 960 1260 1520 2360 5010 5920 14600 21700
2021-02-27 16:00 5.19 3230 62900 (1985) 517 (1954) 5470 742 960 1260 1520 2360 5010 5920 14600 21700
2021-02-27 15:30 5.21 3260 62900 (1985) 517 (1954) 5470 742 960 1260 1520 2360 5010 5920 14600 21700
2021-02-27 15:00 5.21 3260 62900 (1985) 517 (1954) 5470 742 960 1260 1520 2360 5010 5920 14600 21700
2021-02-27 14:30 5.21 3260 62900 (1985) 517 (1954) 5470 742 960 1260 1520 2360 5010 5920 14600 21700
2021-02-27 14:00 5.22 3270 62900 (1985) 517 (1954) 5470 742 960 1260 1520 2360 5010 5920 14600 21700
2021-02-27 13:30 5.23 3290 62900 (1985) 517 (1954) 5470 742 960 1260 1520 2360 5010 5920 14600 21700
2021-02-27 13:00 5.24 3300 62900 (1985) 517 (1954) 5470 742 960 1260 1520 2360 5010 5920 14600 21700
2021-02-27 12:30 5.23 3290 62900 (1985) 517 (1954) 5470 742 960 1260 1520 2360 5010 5920 14600 21700
2021-02-27 12:00 5.24 3300 62900 (1985) 517 (1954) 5470 742 960 1260 1520 2360 5010 5920 14600 21700
2021-02-27 11:30 5.25 3320 62900 (1985) 517 (1954) 5470 742 960 1260 1520 2360 5010 5920 14600 21700
2021-02-27 11:00 5.24 3300 62900 (1985) 517 (1954) 5470 742 960 1260 1520 2360 5010 5920 14600 21700
2021-02-27 10:30 5.27 3350 62900 (1985) 517 (1954) 5470 742 960 1260 1520 2360 5010 5920 14600 21700
2021-02-27 10:00 5.25 3320 62900 (1985) 517 (1954) 5470 742 960 1260 1520 2360 5010 5920 14600 21700
2021-02-27 09:30 5.27 3350 62900 (1985) 517 (1954) 5470 742 960 1260 1520 2360 5010 5920 14600 21700
2021-02-27 09:00 5.28 3360 62900 (1985) 517 (1954) 5470 742 960 1260 1520 2360 5010 5920 14600 21700
2021-02-27 08:30 5.27 3350 62900 (1985) 517 (1954) 5470 742 960 1260 1520 2360 5010 5920 14600 21700
2021-02-27 08:00 5.28 3360 62900 (1985) 517 (1954) 5470 742 960 1260 1520 2360 5010 5920 14600 21700
2021-02-27 07:30 5.28 3360 62900 (1985) 517 (1954) 5470 742 960 1260 1520 2360 5010 5920 14600 21700
2021-02-27 07:00 5.29 3380 62900 (1985) 517 (1954) 5470 742 960 1260 1520 2360 5010 5920 14600 21700
2021-02-27 06:30 5.30 3390 62900 (1985) 517 (1954) 5470 742 960 1260 1520 2360 5010 5920 14600 21700
2021-02-27 06:00 5.30 3390 62900 (1985) 517 (1954) 5470 742 960 1260 1520 2360 5010 5920 14600 21700
2021-02-27 05:30 5.31 3410 62900 (1985) 517 (1954) 5470 742 960 1260 1520 2360 5010 5920 14600 21700
2021-02-27 05:00 5.29 3380 62900 (1985) 517 (1954) 5470 742 960 1260 1520 2360 5010 5920 14600 21700
2021-02-27 04:30 5.32 3430 62900 (1985) 517 (1954) 5470 742 960 1260 1520 2360 5010 5920 14600 21700
2021-02-27 04:00 5.32 3430 62900 (1985) 517 (1954) 5470 742 960 1260 1520 2360 5010 5920 14600 21700
2021-02-27 03:30 5.33 3440 62900 (1985) 517 (1954) 5470 742 960 1260 1520 2360 5010 5920 14600 21700
2021-02-27 03:00 5.33 3440 62900 (1985) 517 (1954) 5470 742 960 1260 1520 2360 5010 5920 14600 21700
2021-02-27 02:30 5.34 3460 62900 (1985) 517 (1954) 5470 742 960 1260 1520 2360 5010 5920 14600 21700
2021-02-27 02:00 5.33 3440 62900 (1985) 517 (1954) 5470 742 960 1260 1520 2360 5010 5920 14600 21700
2021-02-27 01:30 5.35 3470 62900 (1985) 517 (1954) 5470 742 960 1260 1520 2360 5010 5920 14600 21700
2021-02-27 01:00 5.34 3460 62900 (1985) 517 (1954) 5470 742 960 1260 1520 2360 5010 5920 14600 21700
2021-02-27 00:30 5.37 3500 62900 (1985) 517 (1954) 5470 742 960 1260 1520 2360 5010 5920 14600 21700
2021-02-27 00:00 5.35 3470 62900 (1985) 517 (1954) 5470 742 960 1260 1520 2360 5010 5920 14600 21700
2021-02-26 23:30 5.36 3490 73700 (1985) 542 (1954) 5450 739 953 1230 1380 2320 5480 6460 13500 18700
2021-02-26 23:00 5.37 3500 73700 (1985) 542 (1954) 5450 739 953 1230 1380 2320 5480 6460 13500 18700
2021-02-26 22:30 5.36 3490 73700 (1985) 542 (1954) 5450 739 953 1230 1380 2320 5480 6460 13500 18700
2021-02-26 22:00 5.38 3520 73700 (1985) 542 (1954) 5450 739 953 1230 1380 2320 5480 6460 13500 18700
2021-02-26 21:30 5.40 3550 73700 (1985) 542 (1954) 5450 739 953 1230 1380 2320 5480 6460 13500 18700
2021-02-26 21:00 5.40 3550 73700 (1985) 542 (1954) 5450 739 953 1230 1380 2320 5480 6460 13500 18700
2021-02-26 20:30 5.39 3530 73700 (1985) 542 (1954) 5450 739 953 1230 1380 2320 5480 6460 13500 18700
2021-02-26 20:00 5.40 3550 73700 (1985) 542 (1954) 5450 739 953 1230 1380 2320 5480 6460 13500 18700
2021-02-26 19:30 5.40 3550 73700 (1985) 542 (1954) 5450 739 953 1230 1380 2320 5480 6460 13500 18700
2021-02-26 19:00 5.40 3550 73700 (1985) 542 (1954) 5450 739 953 1230 1380 2320 5480 6460 13500 18700
2021-02-26 18:30 5.42 3580 73700 (1985) 542 (1954) 5450 739 953 1230 1380 2320 5480 6460 13500 18700
2021-02-26 18:00 5.42 3580 73700 (1985) 542 (1954) 5450 739 953 1230 1380 2320 5480 6460 13500 18700
2021-02-26 17:30 5.41 3560 73700 (1985) 542 (1954) 5450 739 953 1230 1380 2320 5480 6460 13500 18700
2021-02-26 17:00 5.43 3590 73700 (1985) 542 (1954) 5450 739 953 1230 1380 2320 5480 6460 13500 18700
2021-02-26 16:30 5.43 3590 73700 (1985) 542 (1954) 5450 739 953 1230 1380 2320 5480 6460 13500 18700
2021-02-26 16:00 5.44 3610 73700 (1985) 542 (1954) 5450 739 953 1230 1380 2320 5480 6460 13500 18700
2021-02-26 15:30 5.45 3620 73700 (1985) 542 (1954) 5450 739 953 1230 1380 2320 5480 6460 13500 18700
2021-02-26 15:00 5.45 3620 73700 (1985) 542 (1954) 5450 739 953 1230 1380 2320 5480 6460 13500 18700
2021-02-26 14:30 5.45 3620 73700 (1985) 542 (1954) 5450 739 953 1230 1380 2320 5480 6460 13500 18700
2021-02-26 14:00 5.47 3650 73700 (1985) 542 (1954) 5450 739 953 1230 1380 2320 5480 6460 13500 18700
2021-02-26 13:30 5.47 3650 73700 (1985) 542 (1954) 5450 739 953 1230 1380 2320 5480 6460 13500 18700
2021-02-26 13:00 5.47 3650 73700 (1985) 542 (1954) 5450 739 953 1230 1380 2320 5480 6460 13500 18700
2021-02-26 12:30 5.48 3670 73700 (1985) 542 (1954) 5450 739 953 1230 1380 2320 5480 6460 13500 18700
2021-02-26 12:00 5.49 3690 73700 (1985) 542 (1954) 5450 739 953 1230 1380 2320 5480 6460 13500 18700
2021-02-26 11:30 5.50 3700 73700 (1985) 542 (1954) 5450 739 953 1230 1380 2320 5480 6460 13500 18700
2021-02-26 11:00 5.49 3690 73700 (1985) 542 (1954) 5450 739 953 1230 1380 2320 5480 6460 13500 18700
2021-02-26 10:30 5.49 3690 73700 (1985) 542 (1954) 5450 739 953 1230 1380 2320 5480 6460 13500 18700
2021-02-26 10:00 5.50 3700 73700 (1985) 542 (1954) 5450 739 953 1230 1380 2320 5480 6460 13500 18700
2021-02-26 09:30 5.53 3750 73700 (1985) 542 (1954) 5450 739 953 1230 1380 2320 5480 6460 13500 18700
2021-02-26 09:00 5.51 3720 73700 (1985) 542 (1954) 5450 739 953 1230 1380 2320 5480 6460 13500 18700
2021-02-26 08:30 5.52 3730 73700 (1985) 542 (1954) 5450 739 953 1230 1380 2320 5480 6460 13500 18700
2021-02-26 08:00 5.51 3720 73700 (1985) 542 (1954) 5450 739 953 1230 1380 2320 5480 6460 13500 18700
2021-02-26 07:30 5.54 3760 73700 (1985) 542 (1954) 5450 739 953 1230 1380 2320 5480 6460 13500 18700
2021-02-26 07:00 5.53 3750 73700 (1985) 542 (1954) 5450 739 953 1230 1380 2320 5480 6460 13500 18700
2021-02-26 06:30 5.54 3760 73700 (1985) 542 (1954) 5450 739 953 1230 1380 2320 5480 6460 13500 18700
2021-02-26 06:00 5.54 3760 73700 (1985) 542 (1954) 5450 739 953 1230 1380 2320 5480 6460 13500 18700
2021-02-26 05:30 5.56 3790 73700 (1985) 542 (1954) 5450 739 953 1230 1380 2320 5480 6460 13500 18700
2021-02-26 05:00 5.57 3810 73700 (1985) 542 (1954) 5450 739 953 1230 1380 2320 5480 6460 13500 18700
2021-02-26 04:30 5.57 3810 73700 (1985) 542 (1954) 5450 739 953 1230 1380 2320 5480 6460 13500 18700
2021-02-26 04:00 5.57 3810 73700 (1985) 542 (1954) 5450 739 953 1230 1380 2320 5480 6460 13500 18700
2021-02-26 03:30 5.57 3810 73700 (1985) 542 (1954) 5450 739 953 1230 1380 2320 5480 6460 13500 18700
2021-02-26 03:00 5.58 3830 73700 (1985) 542 (1954) 5450 739 953 1230 1380 2320 5480 6460 13500 18700
2021-02-26 02:30 5.59 3840 73700 (1985) 542 (1954) 5450 739 953 1230 1380 2320 5480 6460 13500 18700
2021-02-26 02:00 5.59 3840 73700 (1985) 542 (1954) 5450 739 953 1230 1380 2320 5480 6460 13500 18700
2021-02-26 01:30 5.58 3830 73700 (1985) 542 (1954) 5450 739 953 1230 1380 2320 5480 6460 13500 18700
2021-02-26 01:00 5.58 3830 73700 (1985) 542 (1954) 5450 739 953 1230 1380 2320 5480 6460 13500 18700
2021-02-26 00:30 5.58 3830 73700 (1985) 542 (1954) 5450 739 953 1230 1380 2320 5480 6460 13500 18700
2021-02-26 00:00 5.58 3830 73700 (1985) 542 (1954) 5450 739 953 1230 1380 2320 5480 6460 13500 18700
2021-02-25 23:30 5.58 3830 62500 (1985) 560 (1954) 5030 729 901 1230 1350 2290 5270 6970 10100 15900
2021-02-25 23:00 5.61 3870 62500 (1985) 560 (1954) 5030 729 901 1230 1350 2290 5270 6970 10100 15900
2021-02-25 22:30 5.60 3860 62500 (1985) 560 (1954) 5030 729 901 1230 1350 2290 5270 6970 10100 15900
2021-02-25 22:00 5.60 3860 62500 (1985) 560 (1954) 5030 729 901 1230 1350 2290 5270 6970 10100 15900
2021-02-25 21:30 5.60 3860 62500 (1985) 560 (1954) 5030 729 901 1230 1350 2290 5270 6970 10100 15900
2021-02-25 21:00 5.60 3860 62500 (1985) 560 (1954) 5030 729 901 1230 1350 2290 5270 6970 10100 15900
2021-02-25 20:30 5.61 3870 62500 (1985) 560 (1954) 5030 729 901 1230 1350 2290 5270 6970 10100 15900
2021-02-25 20:00 5.61 3870 62500 (1985) 560 (1954) 5030 729 901 1230 1350 2290 5270 6970 10100 15900
2021-02-25 19:30 5.60 3860 62500 (1985) 560 (1954) 5030 729 901 1230 1350 2290 5270 6970 10100 15900
2021-02-25 19:00 5.60 3860 62500 (1985) 560 (1954) 5030 729 901 1230 1350 2290 5270 6970 10100 15900
2021-02-25 18:30 5.61 3870 62500 (1985) 560 (1954) 5030 729 901 1230 1350 2290 5270 6970 10100 15900
2021-02-25 18:00 5.60 3860 62500 (1985) 560 (1954) 5030 729 901 1230 1350 2290 5270 6970 10100 15900
2021-02-25 17:30 5.60 3860 62500 (1985) 560 (1954) 5030 729 901 1230 1350 2290 5270 6970 10100 15900
2021-02-25 17:00 5.60 3860 62500 (1985) 560 (1954) 5030 729 901 1230 1350 2290 5270 6970 10100 15900
2021-02-25 16:30 5.61 3870 62500 (1985) 560 (1954) 5030 729 901 1230 1350 2290 5270 6970 10100 15900
2021-02-25 16:00 5.60 3860 62500 (1985) 560 (1954) 5030 729 901 1230 1350 2290 5270 6970 10100 15900
2021-02-25 15:30 5.59 3840 62500 (1985) 560 (1954) 5030 729 901 1230 1350 2290 5270 6970 10100 15900
2021-02-25 15:00 5.62 3890 62500 (1985) 560 (1954) 5030 729 901 1230 1350 2290 5270 6970 10100 15900
2021-02-25 14:30 5.60 3860 62500 (1985) 560 (1954) 5030 729 901 1230 1350 2290 5270 6970 10100 15900
2021-02-25 14:00 5.60 3860 62500 (1985) 560 (1954) 5030 729 901 1230 1350 2290 5270 6970 10100 15900
2021-02-25 13:30 5.61 3870 62500 (1985) 560 (1954) 5030 729 901 1230 1350 2290 5270 6970 10100 15900
2021-02-25 13:00 5.60 3860 62500 (1985) 560 (1954) 5030 729 901 1230 1350 2290 5270 6970 10100 15900
2021-02-25 12:30 5.60 3860 62500 (1985) 560 (1954) 5030 729 901 1230 1350 2290 5270 6970 10100 15900
2021-02-25 12:00 5.59 3840 62500 (1985) 560 (1954) 5030 729 901 1230 1350 2290 5270 6970 10100 15900
2021-02-25 11:30 5.61 3870 62500 (1985) 560 (1954) 5030 729 901 1230 1350 2290 5270 6970 10100 15900
2021-02-25 11:00 5.58 3830 62500 (1985) 560 (1954) 5030 729 901 1230 1350 2290 5270 6970 10100 15900
2021-02-25 10:30 5.59 3840 62500 (1985) 560 (1954) 5030 729 901 1230 1350 2290 5270 6970 10100 15900
2021-02-25 10:00 5.59 3840 62500 (1985) 560 (1954) 5030 729 901 1230 1350 2290 5270 6970 10100 15900
2021-02-25 09:30 5.58 3830 62500 (1985) 560 (1954) 5030 729 901 1230 1350 2290 5270 6970 10100 15900
2021-02-25 09:00 5.60 3860 62500 (1985) 560 (1954) 5030 729 901 1230 1350 2290 5270 6970 10100 15900
2021-02-25 08:30 5.59 3840 62500 (1985) 560 (1954) 5030 729 901 1230 1350 2290 5270 6970 10100 15900
2021-02-25 08:00 5.59 3840 62500 (1985) 560 (1954) 5030 729 901 1230 1350 2290 5270 6970 10100 15900
2021-02-25 07:30 5.58 3830 62500 (1985) 560 (1954) 5030 729 901 1230 1350 2290 5270 6970 10100 15900
2021-02-25 07:00 5.59 3840 62500 (1985) 560 (1954) 5030 729 901 1230 1350 2290 5270 6970 10100 15900
2021-02-25 06:30 5.56 3790 62500 (1985) 560 (1954) 5030 729 901 1230 1350 2290 5270 6970 10100 15900
2021-02-25 06:00 5.58 3830 62500 (1985) 560 (1954) 5030 729 901 1230 1350 2290 5270 6970 10100 15900
2021-02-25 05:30 5.58 3830 62500 (1985) 560 (1954) 5030 729 901 1230 1350 2290 5270 6970 10100 15900
2021-02-25 05:00 5.57 3810 62500 (1985) 560 (1954) 5030 729 901 1230 1350 2290 5270 6970 10100 15900
2021-02-25 04:30 5.57 3810 62500 (1985) 560 (1954) 5030 729 901 1230 1350 2290 5270 6970 10100 15900
2021-02-25 04:00 5.57 3810 62500 (1985) 560 (1954) 5030 729 901 1230 1350 2290 5270 6970 10100 15900
2021-02-25 03:30 5.57 3810 62500 (1985) 560 (1954) 5030 729 901 1230 1350 2290 5270 6970 10100 15900
2021-02-25 03:00 5.56 3790 62500 (1985) 560 (1954) 5030 729 901 1230 1350 2290 5270 6970 10100 15900
2021-02-25 02:30 5.55 3780 62500 (1985) 560 (1954) 5030 729 901 1230 1350 2290 5270 6970 10100 15900
2021-02-25 02:00 5.57 3810 62500 (1985) 560 (1954) 5030 729 901 1230 1350 2290 5270 6970 10100 15900
2021-02-25 01:30 5.57 3810 62500 (1985) 560 (1954) 5030 729 901 1230 1350 2290 5270 6970 10100 15900
2021-02-25 01:00 5.55 3780 62500 (1985) 560 (1954) 5030 729 901 1230 1350 2290 5270 6970 10100 15900
2021-02-25 00:30 5.56 3790 62500 (1985) 560 (1954) 5030 729 901 1230 1350 2290 5270 6970 10100 15900
2021-02-25 00:00 5.57 3810 62500 (1985) 560 (1954) 5030 729 901 1230 1350 2290 5270 6970 10100 15900
2021-02-24 23:30 5.55 3780 44100 (1985) 532 (1934) 4700 724 901 1230 1400 2390 4720 6220 11400 14400
2021-02-24 23:00 5.56 3790 44100 (1985) 532 (1934) 4700 724 901 1230 1400 2390 4720 6220 11400 14400
2021-02-24 22:30 5.55 3780 44100 (1985) 532 (1934) 4700 724 901 1230 1400 2390 4720 6220 11400 14400
2021-02-24 22:00 5.57 3810 44100 (1985) 532 (1934) 4700 724 901 1230 1400 2390 4720 6220 11400 14400
2021-02-24 21:30 5.56 3790 44100 (1985) 532 (1934) 4700 724 901 1230 1400 2390 4720 6220 11400 14400
2021-02-24 21:00 5.54 3760 44100 (1985) 532 (1934) 4700 724 901 1230 1400 2390 4720 6220 11400 14400
2021-02-24 20:30 5.55 3780 44100 (1985) 532 (1934) 4700 724 901 1230 1400 2390 4720 6220 11400 14400
2021-02-24 20:00 5.55 3780 44100 (1985) 532 (1934) 4700 724 901 1230 1400 2390 4720 6220 11400 14400
2021-02-24 19:30 5.52 3730 44100 (1985) 532 (1934) 4700 724 901 1230 1400 2390 4720 6220 11400 14400
2021-02-24 19:00 5.54 3760 44100 (1985) 532 (1934) 4700 724 901 1230 1400 2390 4720 6220 11400 14400
2021-02-24 18:30 5.53 3750 44100 (1985) 532 (1934) 4700 724 901 1230 1400 2390 4720 6220 11400 14400
2021-02-24 18:00 5.51 3720 44100 (1985) 532 (1934) 4700 724 901 1230 1400 2390 4720 6220 11400 14400
2021-02-24 17:30 5.52 3730 44100 (1985) 532 (1934) 4700 724 901 1230 1400 2390 4720 6220 11400 14400
2021-02-24 17:00 5.51 3720 44100 (1985) 532 (1934) 4700 724 901 1230 1400 2390 4720 6220 11400 14400
2021-02-24 16:30 5.49 3690 44100 (1985) 532 (1934) 4700 724 901 1230 1400 2390 4720 6220 11400 14400
2021-02-24 16:00 5.50 3700 44100 (1985) 532 (1934) 4700 724 901 1230 1400 2390 4720 6220 11400 14400
2021-02-24 15:30 5.48 3670 44100 (1985) 532 (1934) 4700 724 901 1230 1400 2390 4720 6220 11400 14400
2021-02-24 15:00 5.47 3650 44100 (1985) 532 (1934) 4700 724 901 1230 1400 2390 4720 6220 11400 14400
2021-02-24 14:30 5.45 3620 44100 (1985) 532 (1934) 4700 724 901 1230 1400 2390 4720 6220 11400 14400
2021-02-24 14:00 5.45 3620 44100 (1985) 532 (1934) 4700 724 901 1230 1400 2390 4720 6220 11400 14400
2021-02-24 13:30 5.44 3610 44100 (1985) 532 (1934) 4700 724 901 1230 1400 2390 4720 6220 11400 14400
2021-02-24 13:00 5.42 3580 44100 (1985) 532 (1934) 4700 724 901 1230 1400 2390 4720 6220 11400 14400
2021-02-24 12:30 5.40 3550 44100 (1985) 532 (1934) 4700 724 901 1230 1400 2390 4720 6220 11400 14400
2021-02-24 12:00 5.40 3550 44100 (1985) 532 (1934) 4700 724 901 1230 1400 2390 4720 6220 11400 14400
2021-02-24 11:30 5.38 3520 44100 (1985) 532 (1934) 4700 724 901 1230 1400 2390 4720 6220 11400 14400
2021-02-24 11:00 5.37 3500 44100 (1985) 532 (1934) 4700 724 901 1230 1400 2390 4720 6220 11400 14400
2021-02-24 10:30 5.35 3470 44100 (1985) 532 (1934) 4700 724 901 1230 1400 2390 4720 6220 11400 14400
2021-02-24 10:00 5.32 3430 44100 (1985) 532 (1934) 4700 724 901 1230 1400 2390 4720 6220 11400 14400
2021-02-24 09:30 5.30 3390 44100 (1985) 532 (1934) 4700 724 901 1230 1400 2390 4720 6220 11400 14400
2021-02-24 09:00 5.29 3380 44100 (1985) 532 (1934) 4700 724 901 1230 1400 2390 4720 6220 11400 14400
2021-02-24 08:30 5.25 3320 44100 (1985) 532 (1934) 4700 724 901 1230 1400 2390 4720 6220 11400 14400
2021-02-24 08:00 5.25 332